[[{"header":{"parameterUnit":"m.s-1","parameterCategory":1,"la1":30.6,"la2":28.766,"lo1":-90.7593,"lo2":-88.6598,"dy":0.0162,"dx":0.0183,"nx":116,"ny":114,"refTime":"2024-04-05T00:00:00:Z","depth":0,"parameterNumber":2,"parameterNumberName":"U-component_of_WINDS"},"data":[0.0,0.0,0.0,0.0,0.0,0.0,0.0,0.0,0.0,0.0,0.0,0.0,0.0,0.0,0.0,0.0,0.0,0.0,0.0,0.0,0.0,0.0,0.0,0.0,0.0,0.0,0.0,0.0,0.0,0.0,0.0,0.0,0.0,0.0,0.0,0.0,0.0,0.0,0.0,0.0,0.0,0.0,0.0,0.0,0.0,0.0,0.0,0.0,0.0,0.0,0.0,0.0,0.0,0.0,0.0,0.0,0.0,0.0,0.0,0.0,0.0,0.0,0.0,0.0,0.0,0.0,0.0,0.0,0.0,0.0,0.0,0.0,0.0,0.0,0.0,0.0,0.0,0.0,0.0,0.0,0.0,0.0,0.0,0.0,0.0,0.0,0.0,0.0,0.0,0.0,0.0,0.0,0.0,0.0,0.0,0.0,0.0,0.0,0.0,0.0,0.0,0.0,0.0,0.0,0.0,0.0,0.0,0.0,0.0,0.0,0.0,0.0,0.0,0.0,0.0,0.0,0.0,0.0,0.0,0.0,0.0,0.0,0.0,0.0,0.0,0.0,0.0,0.0,0.0,0.0,0.0,0.0,0.0,0.0,0.0,0.0,0.0,0.0,0.0,0.0,0.0,0.0,0.0,0.0,0.0,0.0,0.0,0.0,0.0,0.0,0.0,0.0,0.0,0.0,0.0,0.0,0.0,0.0,0.0,0.0,0.0,0.0,0.0,0.0,0.0,0.0,0.0,0.0,0.0,0.0,0.0,0.0,0.0,0.0,0.0,0.0,0.0,0.0,0.0,0.0,0.0,0.0,0.0,0.0,0.0,0.0,0.0,0.0,0.0,0.0,0.0,0.0,0.0,0.0,0.0,0.0,0.0,0.0,0.0,0.0,0.0,0.0,0.0,0.0,0.0,0.0,0.0,0.0,0.0,0.0,0.0,0.0,0.0,0.0,0.0,0.0,0.0,0.0,0.0,0.0,0.0,0.0,0.0,0.0,0.0,0.0,0.0,0.0,0.0,0.0,0.0,0.0,0.0,0.0,0.0,0.0,0.0,0.0,0.0,0.0,0.0,0.0,0.0,0.0,0.0,0.0,0.0,0.0,0.0,0.0,0.0,0.0,0.0,0.0,0.0,0.0,0.0,0.0,0.0,0.0,0.0,0.0,0.0,0.0,0.0,0.0,0.0,0.0,0.0,0.0,0.0,0.0,0.0,0.0,0.0,0.0,0.0,0.0,0.0,0.0,0.0,0.0,0.0,0.0,0.0,0.0,0.0,0.0,0.0,0.0,0.0,0.0,0.0,0.0,0.0,0.0,0.0,0.0,0.0,0.0,0.0,0.0,0.0,0.0,0.0,0.0,0.0,0.0,0.0,0.0,0.0,0.0,0.0,0.0,0.0,0.0,0.0,0.0,0.0,0.0,0.0,0.0,0.0,0.0,0.0,0.0,0.0,0.0,0.0,0.0,0.0,0.0,0.0,0.0,0.0,0.0,0.0,0.0,0.0,0.0,0.0,0.0,0.0,0.0,0.0,0.0,0.0,0.0,0.0,0.0,0.0,0.0,0.0,0.0,0.0,0.0,0.0,0.0,0.0,0.0,0.0,0.0,0.0,0.0,0.0,0.0,0.0,0.0,0.0,0.0,0.0,0.0,0.0,0.0,0.0,0.0,0.0,0.0,0.0,0.0,0.0,0.0,0.0,0.0,0.0,0.0,0.0,0.0,0.0,0.0,0.0,0.0,0.0,0.0,0.0,0.0,0.0,0.0,0.0,0.0,0.0,0.0,0.0,0.0,0.0,0.0,0.0,0.0,0.0,0.0,0.0,0.0,0.0,0.0,0.0,0.0,0.0,0.0,0.0,0.0,0.0,0.0,0.0,0.0,0.0,0.0,0.0,0.0,0.0,0.0,0.0,0.0,0.0,0.0,0.0,0.0,0.0,0.0,0.0,0.0,0.0,0.0,0.0,0.0,0.0,0.0,0.0,0.0,0.0,0.0,0.0,0.0,0.0,0.0,0.0,0.0,0.0,0.0,0.0,0.0,0.0,0.0,0.0,0.0,0.0,0.0,0.0,0.0,0.0,0.0,0.0,0.0,0.0,0.0,0.0,0.0,0.0,0.0,0.0,0.0,0.0,0.0,0.0,0.0,0.0,0.0,0.0,0.0,0.0,0.0,0.0,0.0,0.0,0.0,0.0,0.0,0.0,0.0,0.0,0.0,0.0,0.0,0.0,0.0,0.0,0.0,0.0,0.0,0.0,0.0,0.0,0.0,0.0,0.0,0.0,0.0,0.0,0.0,0.0,0.0,0.0,0.0,0.0,0.0,0.0,0.0,0.0,0.0,0.0,0.0,0.0,0.0,0.0,0.0,0.0,0.0,0.0,0.0,0.0,0.0,0.0,0.0,0.0,0.0,0.0,0.0,0.0,0.0,0.0,0.0,0.0,0.0,0.0,0.0,0.0,0.0,0.0,0.0,0.0,0.0,0.0,0.0,0.0,0.0,0.0,0.0,0.0,0.0,0.0,0.0,0.0,0.0,0.0,0.0,0.0,0.0,0.0,0.0,0.0,0.0,0.0,0.0,0.0,0.0,0.0,0.0,0.0,0.0,0.0,0.0,0.0,0.0,0.0,0.0,0.0,0.0,0.0,0.0,0.0,0.0,0.0,0.0,0.0,0.0,0.0,0.0,0.0,0.0,0.0,0.0,0.0,0.0,0.0,0.0,0.0,0.0,0.0,0.0,0.0,0.0,0.0,0.0,0.0,0.0,0.0,0.0,0.0,0.0,0.0,0.0,0.0,0.0,0.0,0.0,0.0,0.0,0.0,0.0,0.0,0.0,0.0,0.0,0.0,0.0,0.0,0.0,0.0,0.0,0.0,0.0,0.0,0.0,0.0,0.0,0.0,0.0,0.0,0.0,0.0,0.0,0.0,0.0,0.0,0.0,0.0,0.0,0.0,0.0,0.0,0.0,0.0,0.0,0.0,0.0,0.0,0.0,0.0,0.0,0.0,0.0,0.0,0.0,0.0,0.0,0.0,0.0,0.0,0.0,0.0,0.0,0.0,0.0,0.0,0.0,0.0,0.0,0.0,0.0,0.0,0.0,0.0,0.0,0.0,0.0,0.0,0.0,0.0,0.0,0.0,0.0,0.0,0.0,0.0,0.0,0.0,0.0,0.0,0.0,0.0,0.0,0.0,0.0,0.0,0.0,0.0,0.0,0.0,0.0,0.0,0.0,0.0,0.0,0.0,0.0,0.0,0.0,0.0,0.0,0.0,0.0,0.0,0.0,0.0,0.0,0.0,0.0,0.0,0.0,0.0,0.0,0.0,0.0,0.0,0.0,0.0,0.0,0.0,0.0,0.0,0.0,0.0,0.0,0.0,0.0,0.0,0.0,0.0,0.0,0.0,0.0,0.0,0.0,0.0,0.0,0.0,0.0,0.0,0.0,0.0,0.0,0.0,0.0,0.0,0.0,0.0,0.0,0.0,0.0,0.0,0.0,0.0,0.0,0.0,0.0,0.0,0.0,0.0,0.0,0.0,0.0,0.0,0.0,0.0,0.0,0.0,0.0,0.0,0.0,0.0,0.0,0.0,0.0,0.0,0.0,0.0,0.0,0.0,0.0,0.0,0.0,0.0,0.0,0.0,0.0,0.0,0.0,0.0,0.0,0.0,0.0,0.0,0.0,0.0,0.0,0.0,0.0,0.0,0.0,0.0,0.0,0.0,0.0,0.0,0.0,0.0,0.0,0.0,0.0,0.0,0.0,0.0,0.0,0.0,0.0,0.0,0.0,0.0,0.0,0.0,0.0,0.0,0.0,0.0,0.0,0.0,0.0,0.0,0.0,0.0,0.0,0.0,0.0,0.0,0.0,0.0,0.0,0.0,0.0,0.0,0.0,0.0,0.0,0.0,0.0,0.0,0.0,0.0,0.0,0.0,0.0,0.0,0.0,0.0,0.0,0.0,0.0,0.0,0.0,0.0,0.0,0.0,0.0,0.0,0.0,0.0,0.0,0.0,0.0,0.0,0.0,0.0,0.0,0.0,0.0,0.0,0.0,0.0,0.0,0.0,0.0,0.0,0.0,0.0,0.0,0.0,0.0,0.0,0.0,0.0,0.0,0.0,0.0,0.0,0.0,0.0,0.0,0.0,0.0,0.0,0.0,0.0,0.0,0.0,0.0,0.0,0.0,0.0,0.0,0.0,0.0,0.0,0.0,0.0,0.0,0.0,0.0,0.0,0.0,0.0,0.0,0.0,0.0,0.0,0.0,0.0,0.0,0.0,0.0,0.0,0.0,0.0,0.0,0.0,0.0,0.0,0.0,0.0,0.0,0.0,0.0,0.0,0.0,0.0,0.0,0.0,0.0,0.0,0.0,0.0,0.0,0.0,0.0,0.0,0.0,0.0,0.0,0.0,0.0,0.0,0.0,0.0,0.0,0.0,0.0,0.0,0.0,0.0,0.0,0.0,0.0,0.0,0.0,0.0,0.0,0.0,0.0,0.0,0.0,0.0,0.0,0.0,0.0,0.0,0.0,0.0,0.0,0.0,0.0,0.0,0.0,0.0,0.0,0.0,0.0,0.0,0.0,0.0,0.0,0.0,0.0,0.0,0.0,0.0,0.0,0.0,0.0,0.0,0.0,0.0,0.0,0.0,0.0,0.0,0.0,0.0,0.0,0.0,0.0,0.0,0.0,0.0,0.0,0.0,0.0,0.0,0.0,0.0,0.0,0.0,0.0,0.0,0.0,0.0,0.0,0.0,0.0,0.0,0.0,0.0,0.0,0.0,0.0,0.0,0.0,0.0,0.0,0.0,0.0,0.0,0.0,0.0,0.0,0.0,0.0,0.0,0.0,0.0,0.0,0.0,0.0,0.0,0.0,0.0,0.0,0.0,0.0,0.0,0.0,0.0,0.0,0.0,0.0,0.0,0.0,0.0,0.0,0.0,0.0,0.0,0.0,0.0,0.0,0.0,0.0,0.0,0.0,0.0,0.0,0.0,0.0,0.0,0.0,0.0,0.0,0.0,0.0,0.0,0.0,0.0,0.0,0.0,0.0,0.0,0.0,0.0,0.0,0.0,0.0,0.0,0.0,0.0,0.0,0.0,0.0,0.0,0.0,0.0,0.0,0.0,0.0,0.0,0.0,0.0,0.0,0.0,0.0,0.0,0.0,0.0,0.0,0.0,0.0,0.0,0.0,0.0,0.0,0.0,0.0,0.0,0.0,0.0,0.0,0.0,0.0,0.0,0.0,0.0,0.0,0.0,0.0,0.0,0.0,0.0,0.0,0.0,0.0,0.0,0.0,0.0,0.0,0.0,0.0,0.0,0.0,0.0,0.0,0.0,0.0,0.0,0.0,0.0,0.0,0.0,0.0,0.0,0.0,0.0,0.0,0.0,0.0,0.0,0.0,0.0,0.0,0.0,0.0,0.0,0.0,0.0,0.0,0.0,0.0,0.0,0.0,0.0,0.0,0.0,0.0,0.0,0.0,0.0,0.0,0.0,0.0,0.0,0.0,0.0,0.0,0.0,0.0,0.0,0.0,0.0,0.0,0.0,0.0,0.0,0.0,0.0,0.0,0.0,0.0,0.0,0.0,0.0,0.0,0.0,0.0,0.0,0.0,0.0,0.0,0.0,0.0,0.0,0.0,0.0,0.0,0.0,0.0,0.0,0.0,0.0,0.0,0.0,0.0,0.0,0.0,0.0,0.0,0.0,0.0,0.0,0.0,0.0,0.0,0.0,0.0,0.0,0.0,0.0,0.0,0.0,0.0,0.0,0.0,0.0,0.0,0.0,0.0,0.0,0.0,0.0,0.0,0.0,0.0,0.0,0.0,0.0,0.0,0.0,0.0,0.0,0.0,0.0,0.0,0.0,0.0,0.0,0.0,0.0,0.0,0.0,0.0,0.0,0.0,0.0,0.0,0.0,0.0,0.0,0.0,0.0,0.0,0.0,0.0,0.0,0.0,0.0,0.0,0.0,0.0,0.0,0.0,0.0,0.0,0.0,0.0,0.0,0.0,0.0,0.0,0.0,0.0,0.0,0.0,0.0,0.0,0.0,0.0,0.0,0.0,0.0,0.0,0.0,0.0,0.0,0.0,0.0,0.0,-2.4298,-2.3806,0.0,0.0,0.0,0.0,0.0,0.0,0.0,0.0,0.0,0.0,0.0,0.0,0.0,0.0,0.0,0.0,0.0,0.0,0.0,0.0,0.0,0.0,0.0,-2.2089,-2.2075,-2.2013,-2.2013,-2.2013,-2.2013,-2.1969,-2.2137,-2.2549,-2.2616,-2.2936,-2.3592,-2.3644,-2.4162,-2.5179,-2.4463,-2.483,-2.6263,-2.6963,-2.6694,-2.5591,0.0,0.0,0.0,0.0,0.0,0.0,0.0,0.0,0.0,0.0,0.0,0.0,0.0,0.0,0.0,0.0,0.0,0.0,0.0,0.0,0.0,0.0,0.0,0.0,0.0,0.0,0.0,0.0,0.0,0.0,0.0,0.0,0.0,0.0,0.0,0.0,0.0,0.0,0.0,0.0,0.0,0.0,0.0,0.0,0.0,0.0,0.0,0.0,0.0,0.0,0.0,0.0,0.0,0.0,0.0,0.0,0.0,0.0,0.0,0.0,0.0,0.0,0.0,0.0,0.0,0.0,0.0,0.0,0.0,0.0,-2.6365,-2.4954,0.0,0.0,0.0,0.0,0.0,0.0,0.0,0.0,0.0,0.0,0.0,0.0,0.0,0.0,0.0,0.0,0.0,0.0,0.0,0.0,0.0,-2.2214,-2.2228,-2.2214,-2.2152,-2.2056,-2.2027,-2.2027,-2.2041,-2.2027,-2.2329,-2.3014,-2.2526,-2.2813,-2.4104,-2.3652,-2.4374,-2.6284,-2.6201,-2.7391,-2.9705,-3.1046,-3.0764,-2.9051,0.0,0.0,0.0,0.0,0.0,0.0,0.0,0.0,0.0,0.0,0.0,0.0,0.0,0.0,0.0,0.0,0.0,0.0,0.0,0.0,0.0,0.0,0.0,0.0,0.0,0.0,0.0,0.0,0.0,0.0,0.0,0.0,0.0,0.0,0.0,0.0,0.0,0.0,0.0,0.0,0.0,0.0,0.0,0.0,0.0,0.0,0.0,0.0,0.0,0.0,0.0,0.0,0.0,0.0,0.0,0.0,0.0,0.0,0.0,0.0,0.0,0.0,0.0,0.0,-3.2639,-3.3386,-3.3982,-3.3967,-3.404,-3.3945,-2.974,-2.7574,-2.6946,-2.6005,0.0,0.0,0.0,0.0,0.0,0.0,0.0,0.0,0.0,0.0,0.0,0.0,0.0,0.0,0.0,0.0,0.0,0.0,0.0,-2.2228,-2.2299,-2.2242,-2.2228,-2.2251,-2.2194,-2.2194,-2.2251,-2.2194,-2.2247,-2.242,-2.2941,-2.3283,-2.3425,-2.3949,-2.4625,-2.5447,-2.7977,-3.0697,-3.357,-3.4432,-3.5316,-3.6041,-3.1495,0.0,0.0,0.0,0.0,0.0,0.0,0.0,0.0,0.0,0.0,0.0,0.0,0.0,0.0,0.0,0.0,0.0,0.0,0.0,0.0,0.0,0.0,0.0,0.0,0.0,0.0,0.0,0.0,0.0,0.0,0.0,0.0,0.0,0.0,0.0,0.0,0.0,0.0,0.0,0.0,0.0,0.0,0.0,-2.4592,-2.3868,0.0,0.0,0.0,0.0,0.0,0.0,0.0,0.0,0.0,0.0,0.0,0.0,0.0,-3.0618,-3.1401,-3.3756,-3.4673,-3.4251,-3.5854,-3.6331,-3.5835,-3.5762,-3.6178,-3.6793,-3.5293,0.0,-3.0242,-2.8744,0.0,0.0,0.0,0.0,0.0,0.0,0.0,0.0,0.0,0.0,0.0,0.0,0.0,0.0,0.0,0.0,0.0,0.0,0.0,0.0,0.0,-2.3635,-2.4277,-2.4729,-2.6286,-2.6387,-2.4274,-2.4885,-2.4615,-2.3004,-2.2835,-2.3361,-2.4581,-2.4513,-2.605,-2.9252,-3.3081,-3.6083,-3.8173,-3.894,-3.9826,-4.071,-3.76,-3.5059,-3.3004,-3.0816,0.0,0.0,0.0,0.0,0.0,0.0,0.0,0.0,0.0,0.0,0.0,0.0,0.0,0.0,0.0,0.0,0.0,0.0,0.0,0.0,0.0,0.0,0.0,0.0,0.0,0.0,0.0,0.0,0.0,0.0,0.0,0.0,0.0,0.0,0.0,0.0,0.0,0.0,0.0,-2.557,-2.6041,-2.5244,-2.6258,-2.6536,0.0,0.0,0.0,0.0,0.0,0.0,0.0,0.0,0.0,-3.193,-3.3103,-3.4298,-3.5582,-3.7584,-3.8869,-3.9431,-4.1209,-4.1879,-4.1618,-4.204,-4.2187,-4.2094,-4.108,-3.9339,-3.6821,-3.2915,-3.0568,-2.93,0.0,0.0,0.0,0.0,-2.7526,-2.8118,0.0,0.0,0.0,0.0,0.0,0.0,0.0,0.0,0.0,0.0,0.0,0.0,-2.4086,-2.5575,-2.6928,-2.8062,-3.0006,-3.0006,-2.7232,-2.7148,-2.6269,-2.4052,-2.3274,-2.3545,-2.5,-2.5828,-2.8671,-3.3749,-3.8024,-4.117,-4.32,-4.3741,-4.4316,-4.479,-4.3247,-4.023,-3.6055,-3.3729,-3.1759,0.0,0.0,0.0,0.0,0.0,0.0,0.0,0.0,0.0,0.0,0.0,0.0,0.0,0.0,0.0,0.0,0.0,0.0,0.0,0.0,0.0,0.0,0.0,0.0,0.0,0.0,0.0,0.0,0.0,0.0,0.0,0.0,0.0,0.0,0.0,0.0,0.0,0.0,-2.6874,-2.7634,-2.6609,-2.8455,-2.9034,0.0,0.0,0.0,0.0,0.0,0.0,-3.2536,-3.3771,-3.5078,-3.6479,-3.7713,-3.902,-4.0416,-4.1886,-4.3233,-4.4417,-4.5715,-4.6266,-4.6139,-4.6744,-4.6597,-4.5773,-4.5058,-4.4035,-4.2468,-3.6914,-3.3791,-3.2429,-3.1415,-3.0785,-3.041,-3.0229,-3.064,-3.1256,0.0,0.0,0.0,0.0,0.0,0.0,0.0,0.0,0.0,0.0,0.0,-2.3361,-2.6218,-2.7927,-2.9687,-3.1819,-3.1515,-3.1123,-3.092,-2.7638,-2.5626,-2.5507,-2.4763,-2.4101,-2.3511,-2.8349,-3.3085,-3.7618,-4.1347,-4.506,-4.8612,-4.8646,-4.868,-4.8646,-4.7042,-4.4625,-4.1432,-3.7148,-3.5092,-3.4384,0.0,0.0,0.0,0.0,0.0,0.0,0.0,0.0,0.0,0.0,0.0,0.0,0.0,0.0,0.0,0.0,0.0,0.0,0.0,0.0,0.0,0.0,0.0,0.0,0.0,0.0,0.0,0.0,0.0,0.0,0.0,0.0,0.0,0.0,0.0,0.0,0.0,0.0,0.0,-2.7526,-3.0785,0.0,0.0,0.0,0.0,-3.3124,-3.4629,-3.5948,-3.693,-3.9179,-4.0859,-4.1681,-4.3981,-4.5623,-4.6443,-4.7361,-4.7858,-4.7968,-4.8102,-4.7773,-4.7039,-4.7076,-4.6672,-4.5883,-4.5773,-4.5663,-4.5205,-4.0088,-3.7466,-3.6524,-3.4987,-3.479,-3.5333,-3.4573,-3.479,-3.5261,0.0,0.0,0.0,0.0,0.0,-2.1368,-2.1569,-2.2022,-2.2313,-2.2313,-2.353,-2.5559,-2.8552,-3.1495,-3.4336,-3.7066,-3.7946,-3.755,-3.5656,-3.2442,-3.0209,-2.9262,-2.7114,-2.7131,-2.977,-3.4032,-3.843,-4.2929,-4.6143,-4.9154,-5.1894,-5.1386,-5.1116,-5.1082,-5.0038,-4.8689,-4.6895,-4.1377,-3.8143,-3.6481,-3.3043,-3.0523,0.0,0.0,0.0,0.0,0.0,0.0,0.0,0.0,0.0,0.0,0.0,0.0,0.0,0.0,0.0,0.0,0.0,0.0,0.0,0.0,0.0,0.0,0.0,0.0,0.0,0.0,0.0,0.0,0.0,0.0,0.0,0.0,0.0,0.0,0.0,0.0,0.0,-3.3516,-3.6182,0.0,-3.4987,-3.5566,-3.6644,-3.8012,-3.914,-4.061,-4.2611,-4.3999,-4.5331,-4.6645,-4.7521,-4.836,-4.9143,-4.9537,-4.9724,-4.9761,-5.0395,-5.0251,-4.9517,-5.0031,-4.9517,-4.8233,-4.7623,-4.7072,-4.6321,-4.3379,-4.1413,-4.0066,-3.8445,-3.7665,-3.743,-3.7092,-3.7475,-3.8076,0.0,0.0,0.0,0.0,-2.0797,-2.126,-2.1584,-2.2003,-2.2381,-2.2632,-2.4815,-2.7689,-3.119,-3.5115,-3.87,-4.1711,-4.2185,-4.1339,-3.9174,-3.5013,-3.2104,-3.0886,-2.9161,-3.0311,-3.4844,-3.8802,-4.2929,-4.7192,-4.9898,-5.2266,-5.4228,-5.3179,-5.2706,-5.2672,-5.1657,-5.0947,-5.0202,-4.5887,-4.2321,-3.932,-3.6139,-3.3703,-3.17,0.0,0.0,0.0,0.0,0.0,0.0,0.0,0.0,0.0,0.0,0.0,0.0,0.0,0.0,0.0,0.0,0.0,0.0,0.0,0.0,0.0,0.0,0.0,0.0,0.0,0.0,0.0,0.0,0.0,0.0,0.0,0.0,0.0,0.0,-3.4588,-3.6979,-3.8029,-4.0745,-4.1796,-4.0019,-4.0599,-4.156,-4.2722,-4.3834,-4.5185,-4.6924,-4.8021,-4.9082,-5.0106,-5.0435,-5.0817,-5.1328,-5.1428,-5.147,-5.147,-5.2119,-5.1977,-5.1206,-5.1756,-5.1242,-4.9958,-4.9055,-4.8375,-4.7752,-4.6029,-4.4529,-4.3139,-4.1462,-4.0479,-3.9991,-3.994,-4.0233,-4.0598,0.0,0.0,0.0,-2.0862,-2.1182,-2.1524,-2.218,-2.2279,-2.2564,-2.3308,-2.6032,-2.9616,-3.4066,-3.8599,-4.2523,-4.55,-4.3673,-4.2016,-4.1271,-3.4945,-3.092,-3.0224,-3.0987,-3.3558,-3.8058,-4.2422,-4.6481,-5.0236,-5.2503,-5.4329,-5.5681,-5.4262,-5.3585,-5.3484,-5.1995,-5.1286,-5.1219,-5.0473,-4.7635,-4.3225,-3.953,-3.7465,-3.6212,0.0,0.0,0.0,0.0,0.0,0.0,0.0,0.0,0.0,0.0,0.0,0.0,0.0,0.0,0.0,0.0,0.0,0.0,0.0,0.0,0.0,0.0,0.0,0.0,0.0,0.0,0.0,0.0,0.0,0.0,0.0,0.0,0.0,-3.3647,-3.7667,-4.0655,-4.0782,-4.4258,-4.5784,-4.3632,-4.5506,-4.6968,-4.7199,-4.8646,-4.9565,-4.9794,-5.1242,-5.205,-5.205,-5.2821,-5.3203,-5.3203,-5.3203,-5.3203,-5.3203,-5.3203,-5.2784,-5.205,-5.2013,-5.1573,-5.0765,-4.9958,-4.9574,-4.9427,-4.7792,-4.6654,-4.5718,-4.3944,-4.3196,-4.3104,-4.3104,-4.3012,-4.2792,0.0,0.0,-2.0133,-2.0549,-2.0991,-2.1447,-2.1871,-2.2152,-2.2564,-2.3308,-2.7402,-3.1765,-3.5746,-4.0629,-4.4654,-4.706,-4.4722,-4.2794,-4.2049,-3.5712,-3.2138,-3.2476,-3.5284,-3.8971,-4.347,-4.6312,-4.9593,-5.3348,-5.5074,-5.6089,-5.6494,-5.6089,-5.531,-5.4262,-5.3856,-5.3382,-5.2841,-5.2029,-5.0644,-4.8615,-4.3815,-4.0754,-3.8663,0.0,0.0,0.0,0.0,0.0,0.0,0.0,0.0,0.0,0.0,0.0,0.0,0.0,0.0,0.0,0.0,0.0,0.0,0.0,0.0,0.0,0.0,0.0,0.0,0.0,0.0,0.0,0.0,0.0,0.0,0.0,-3.6998,-3.9424,-3.9424,-4.1542,-4.4225,-4.7264,-4.9116,-5.0119,-5.0068,-5.0168,-5.0763,-5.1974,-5.2023,-5.2569,-5.3885,-5.3812,-5.3739,-5.3739,-5.3408,-5.3203,-5.3203,-5.3203,-5.3203,-5.3203,-5.3203,-5.3078,-5.2858,-5.227,-5.1573,-5.0765,-4.9958,-4.9243,-4.8563,-4.7516,-4.6654,-4.581,-4.4711,-4.3923,-4.3375,-4.3341,-4.3214,-4.3087,0.0,-1.9851,-2.0098,-2.0462,-2.0926,-2.1416,-2.1768,-2.2094,-2.2699,-2.3714,-2.8687,-3.3322,-3.6457,-4.1467,-4.5122,-4.6413,-4.4045,-4.1779,-4.0087,-3.5746,-3.3829,0.0,0.0,-4.3132,-4.7022,-4.9593,-5.2266,-5.5074,-5.6224,-5.6968,-5.7239,-5.6934,-5.6325,-5.5513,-5.5209,-5.4837,-5.4363,-5.3585,-5.2841,-5.186,-4.8142,-4.5307,-4.2983,-4.0028,-3.856,-3.7879,-3.6093,-3.5689,-3.5632,-3.3535,0.0,0.0,0.0,0.0,0.0,0.0,0.0,0.0,0.0,0.0,0.0,0.0,0.0,0.0,0.0,0.0,0.0,0.0,0.0,0.0,0.0,0.0,0.0,0.0,-4.0727,-4.3824,-4.549,-4.654,-4.8249,-5.1361,-5.2459,-5.3158,-5.37,-5.3389,-5.361,-5.4605,-5.4305,-5.4517,-5.5537,-5.484,-5.4546,-5.4876,-5.4106,-5.3702,-5.3702,-5.3702,-5.3555,-5.3203,-5.3203,-5.3203,-5.3167,-5.2711,-5.205,-5.1242,-5.0435,-4.9627,-4.8746,-4.759,-4.6819,0.0,0.0,0.0,0.0,0.0,-4.3233,-4.3142,0.0,-1.9851,-2.0098,-2.0462,-2.0926,-2.1416,-2.1768,-2.2094,-2.2801,-2.4203,-2.9499,-3.3964,-3.6051,-4.0959,-4.4141,-4.4209,-4.2151,-3.9648,-3.6863,-3.5622,0.0,-3.8294,-4.2692,-4.6413,-4.9323,-5.2266,-5.4465,-5.5953,-5.6697,-5.7442,-5.8118,-5.7476,-5.707,-5.69,-5.6258,-5.5886,-5.5683,-5.4905,-5.4228,-5.3484,-5.1961,-5.0067,-4.7838,-4.4964,-4.3888,-4.3563,-4.1411,-3.9455,-3.7711,-3.6723,0.0,0.0,0.0,0.0,0.0,0.0,0.0,0.0,0.0,0.0,0.0,0.0,0.0,0.0,0.0,0.0,0.0,0.0,0.0,0.0,0.0,0.0,0.0,0.0,-4.4295,-4.7301,-5.1176,-5.1756,-5.2394,-5.3807,-5.4664,-5.5218,-5.5444,-5.551,-5.5623,-5.5786,-5.5794,-5.5757,-5.589,-5.5097,0.0,0.0,0.0,-5.4399,-5.4399,-5.4326,-5.3922,-5.3203,-5.3203,-5.3203,-5.3203,-5.3115,-5.2637,-5.183,-5.1022,-5.0141,-4.9206,-4.77,-4.7003,-4.6672,-4.5241,-4.4179,-4.3394,-4.3215,-4.316,-4.3141,0.0,-1.9851,-2.0098,-2.0462,-2.0926,-2.1416,-2.1768,-2.2094,-2.2632,-2.3492,-2.8281,-3.2002,-3.3072,-3.7821,-4.1204,-4.1813,-3.9817,-3.7787,-3.596,-3.728,-3.9106,-4.1339,-4.5737,-4.9255,-5.1623,-5.4059,-5.6021,-5.7476,-5.822,-5.8964,-5.9674,-5.9539,-5.8829,-5.7679,-5.7543,-5.6799,-5.5683,-5.4905,-5.4499,-5.4262,-5.2706,-5.1116,-4.9492,-4.7699,-4.7027,-4.6824,-4.5201,-4.5099,-4.5307,-4.274,-4.111,-3.9715,-3.7178,0.0,0.0,0.0,0.0,0.0,0.0,0.0,0.0,0.0,0.0,0.0,0.0,0.0,0.0,0.0,0.0,0.0,0.0,0.0,0.0,-4.415,-4.7699,-5.1104,-5.382,-5.4725,-5.5245,-5.5668,-5.5861,-5.6249,-5.6903,-5.6609,-5.6593,-5.7144,-5.6818,-5.6859,-5.7483,-5.6785,-5.6418,-5.6565,-5.517,-5.4399,-5.4399,-5.3775,-5.3371,-5.3203,-5.3203,0.0,-5.3167,-5.2527,-5.1793,-5.0986,-5.0178,-4.8967,-4.7553,-4.7223,-4.6342,-4.5131,-4.4801,-4.4214,-4.348,-4.3445,-4.3428,-4.341,0.0,-1.9851,-2.0058,-2.0237,-2.0845,-2.1308,-2.1292,-2.1857,-2.2507,-2.3081,-2.6876,-2.9803,-3.0567,-3.3964,-3.6332,-3.6705,-3.5385,-3.4844,-3.5532,-3.8768,-4.2151,-4.55,-4.9593,-5.2672,-5.4499,-5.6021,-5.734,-5.8457,-5.9201,-5.9742,-6.008,-5.9708,-5.9336,-5.8964,-5.822,-5.7712,-5.7273,-5.5784,-5.5141,-5.5006,-5.3518,-5.2469,-5.1691,-5.0541,-5.0101,-5.0033,-4.9289,-4.8781,-4.8173,-4.6283,-4.4181,-4.1847,-3.9276,-3.64,-3.3343,0.0,0.0,0.0,0.0,0.0,0.0,0.0,0.0,0.0,0.0,0.0,0.0,0.0,0.0,-3.6686,-3.843,0.0,-4.4548,-4.7772,-5.0669,-5.3204,-5.516,-5.6151,-5.6708,-5.6708,-5.6831,-5.7049,-5.7449,-5.7397,-5.7418,-5.7703,-5.7468,-5.7441,-5.7774,-5.7042,-5.6786,-5.7188,-5.6054,-5.5235,-5.4899,-5.4496,-5.3931,-5.3203,-5.3203,-5.3203,-5.3167,-5.238,-5.1573,-5.0765,-4.9958,-4.8857,-4.7663,-4.7259,-4.6159,-4.4691,-4.4691,-4.4195,-4.3497,-4.3463,-4.341,-4.334,0.0,-1.9833,-1.997,-2.0005,-2.0647,-2.1071,-2.0811,-2.1587,-2.231,-2.2605,-2.5413,-2.7553,-2.8062,-3.0093,-3.1447,-3.1447,-3.1664,-3.3051,0.0,-4.0392,-4.4891,-4.9255,-5.3145,-5.5784,-5.7002,-5.7881,-5.8693,-5.9471,-6.0047,-6.0419,-6.052,-5.9945,-5.981,-6.0047,-5.8863,-5.849,-5.866,-5.6596,-5.5681,-5.5581,-5.4093,-5.3416,-5.3213,-5.2536,-5.2401,-5.2469,-5.2029,-5.0541,-4.868,-4.7936,-4.5399,-4.2185,-4.0426,-3.8633,-3.6355,-3.1853,-3.1278,0.0,0.0,0.0,0.0,0.0,0.0,0.0,0.0,-3.3939,-3.4852,-3.6166,-3.8101,-4.0238,-4.2465,-4.4838,-4.7627,-5.1176,-5.3096,-5.4653,-5.6029,-5.6889,-5.7313,-5.7213,-5.7412,-5.7534,-5.751,-5.7763,-5.7857,-5.7703,-5.7786,-5.7763,-5.7631,-5.7047,-5.6998,-5.7655,-5.6925,-5.6241,-5.5697,-5.5514,-5.4752,-5.3424,-5.3424,-5.3371,-5.3167,-5.2527,-5.172,-5.0729,-4.9591,-4.871,-4.7974,-4.702,-4.5847,-4.4673,-4.4472,-4.405,-4.348,-4.341,-4.334,-4.3251,0.0,-1.9762,-1.9851,-1.9988,-2.0392,-2.0663,-2.063,-2.1323,-2.1812,-2.1759,-2.4141,-2.5642,-2.5083,-2.6996,-2.8297,-2.8297,-3.1867,-3.5115,-3.7483,-4.2455,-4.7022,-5.0811,-5.5175,-5.7611,-5.7746,-5.9133,-6.025,-6.1028,-6.1129,-6.1501,-6.2144,-6.2042,-6.1332,-6.008,-5.9945,-5.9167,-5.7915,-5.6359,-5.5681,-5.5581,-5.4093,-5.3078,-5.2435,-5.2334,-5.2739,-5.3112,-5.1048,-4.9357,-4.7906,-4.7158,-4.5297,-4.3206,-4.2997,-4.1001,-3.8362,-3.6491,0.0,-3.1055,-2.9905,-2.9747,-3.0124,-3.0866,-3.1849,-3.3868,0.0,-3.8887,-3.9175,-4.2355,-4.3824,-4.5019,-4.6721,-4.9003,-5.1249,-5.3132,-5.4725,-5.6029,-5.6935,-5.7177,-5.7213,-5.7188,-5.7313,-5.7363,-5.7239,-5.7363,-5.7461,-5.7437,-5.7691,-5.781,-5.7786,-5.7831,-5.784,-5.795,-5.718,-5.6703,-5.6653,-5.5919,-5.5133,-5.4289,-5.4289,-5.3885,-5.3203,-5.3115,-5.2234,-5.0655,-4.836,-4.7295,-4.7016,-4.5516,-4.4748,-4.4528,-4.367,-4.3377,-4.3429,-4.3463,-4.348,-4.348,0.0,0.0,-1.9762,-1.9851,-2.0275,-2.0563,-2.046,-2.1039,-2.1493,-2.1414,-2.2559,-2.335,-2.3226,-2.4425,-2.5067,-2.4646,-2.9093,0.0,-3.6343,-4.2692,-4.8376,-5.2976,-5.663,-5.8964,-5.9844,-6.0486,-6.1163,-6.1941,-6.1941,-6.1873,-6.1738,-6.1264,-6.0723,-6.0047,-5.9201,-5.8727,-5.8457,-5.6968,-5.6089,-5.5615,-5.4566,-5.3416,-5.2164,-5.0879,-5.0338,-5.0067,-4.868,-4.6921,0.0,0.0,-4.3538,-4.2692,-4.2252,-4.0696,-3.8599,-3.6671,-3.5176,0.0,-3.3779,-3.3706,-3.3856,-3.4478,-3.6334,-3.8706,-4.1288,-4.2281,-4.3182,-4.5108,-4.6504,-4.788,-4.951,-5.1393,-5.3204,-5.4762,-5.5957,-5.6826,-5.7152,-5.6865,-5.6418,-5.5921,-5.597,-5.6346,-5.7241,-5.7437,-5.7461,-5.7388,-5.7486,-5.751,-5.7437,-5.7486,-5.7534,-5.7534,-5.7219,-5.6842,-5.6439,-5.6134,-5.54,-5.429,-5.429,-5.3894,-5.3167,-5.2711,-5.161,-4.9994,-4.8431,-4.7752,-4.7679,-4.6487,-4.5992,-4.5863,-4.4436,-4.3926,-4.3944,-4.3576,-4.3686,-4.398,0.0,0.0,0.0,-1.978,-2.0102,-2.0309,-2.0168,-2.0697,-2.1119,-2.1071,-2.1478,-2.1901,-2.2251,-2.297,-2.3173,-2.2665,-2.6623,0.0,0.0,-4.1238,-4.7361,-5.2807,-5.6292,-5.893,-6.0622,-6.1095,-6.167,-6.2381,-6.2381,-6.211,-6.1603,-6.0791,-6.0317,-6.0047,-5.8761,-5.8389,-5.8626,-5.734,-5.6393,-5.5649,-5.4668,-5.3112,-5.115,-4.8951,-4.6989,-4.5399,-4.506,-4.3639,0.0,0.0,-4.0155,-4.0087,-3.9783,-3.8937,-3.7811,-3.6469,-3.6092,-3.6052,-3.5537,-3.6185,-3.7184,-3.7715,-4.0293,-4.2936,-4.4005,-4.5309,-4.6576,-4.7627,-4.8749,-5.0053,-5.1647,-5.2915,-5.4218,-5.574,-5.6464,-5.6935,-5.7152,-5.6418,-5.5607,-5.4979,-5.4544,-5.4869,-5.6249,-5.6855,-5.711,-5.7011,-5.7254,-5.7338,-5.7264,-5.7289,-5.7313,-5.7313,-5.7313,-5.7084,-5.66,-5.6382,-5.5676,-5.445,-5.4253,-5.3763,-5.3045,-5.204,-5.0941,-4.9768,-4.8646,-4.8226,-4.8136,-4.7328,-4.7016,-4.6851,-4.5293,-4.4563,-4.4345,-4.3816,-4.3853,-4.3999,0.0,0.0,0.0,0.0,-1.9815,-1.9815,-1.9815,-2.0258,-2.0614,-2.0515,-2.1166,-2.1779,-2.2237,-2.297,-2.3376,-2.3376,-2.5473,-2.8687,-3.3186,-3.7777,-4.2956,-4.8917,-5.345,-5.6833,-5.9032,-6.0554,-6.167,-6.2381,-6.2381,-6.2381,-6.2347,-6.1603,-6.0858,-6.008,-5.9302,-5.8592,-5.7881,-5.7137,-5.6393,-5.5581,-5.4126,-5.1758,-4.8849,-4.665,-4.3098,-3.9343,-4.0045,0.0,0.0,0.0,-3.4742,-3.4844,-3.5532,-3.5735,0.0,-3.7028,-3.6588,-3.5346,-3.3565,-3.5819,-3.8827,-3.9782,-4.2619,-4.5599,-4.7192,-4.8185,-4.9257,-5.0814,-5.1176,-5.1719,-5.3313,-5.3675,-5.4218,-5.574,-5.6029,-5.6319,-5.708,-5.5884,-5.4943,-5.4907,-5.353,-5.2878,-5.3711,-5.5184,-5.6054,-5.6054,-5.6878,-5.7388,-5.7388,-5.751,-5.7583,-5.7583,-5.7583,-5.7583,-5.7546,-5.6781,-5.5978,-5.5176,-5.4396,-5.3571,-5.2769,-5.1164,-5.0435,-5.0289,-4.8842,-4.8148,-4.7939,-4.729,-4.6999,-4.6924,-4.5892,-4.5035,-4.4381,-4.4288,-4.3833,-4.3251,0.0,0.0,0.0,0.0,0.0,-1.978,-1.9744,-2.001,-2.0306,-2.0547,-2.1166,0.0,0.0,0.0,0.0,0.0,-2.5135,-2.7774,-3.0311,-3.6502,-4.1441,-4.4418,-5.0304,-5.3822,-5.4532,-5.7036,-5.8457,-5.8693,-5.9167,-5.9167,-5.866,-5.8423,-5.7915,-5.7171,-5.6934,-5.6697,-5.6393,-5.5649,-5.4905,-5.4059,-5.2063,-5.0067,-4.7838,-4.4147,-4.0561,-3.7202,0.0,0.0,0.0,-3.2002,-3.1901,-3.2442,-3.3186,-3.2747,-3.2184,-3.3343,-3.465,-3.6044,-3.7257,-3.9508,-4.1952,-4.3868,-4.6442,-4.8749,-4.9836,-5.0705,-5.1285,-5.1285,-5.0873,-5.0669,-5.1212,-5.1285,-5.2009,-5.411,-5.4907,-5.5703,-5.7007,-5.6283,-5.5051,-5.3494,-5.3313,-5.277,-5.143,-5.3241,-5.4907,-5.5921,-5.6296,-5.672,-5.7227,-5.7313,-5.7338,-5.7338,-5.7338,-5.7338,-5.7338,-5.6539,-5.5765,-5.5036,-5.3818,-5.3061,-5.2747,-5.1078,-5.035,-5.0305,-4.8717,-4.7988,-4.7992,-4.7696,-4.7603,-4.751,-4.6533,-4.6005,-4.5735,-4.5151,-4.4481,-4.3721,0.0,0.0,0.0,0.0,0.0,0.0,0.0,0.0,0.0,0.0,0.0,0.0,0.0,0.0,0.0,0.0,0.0,-2.6116,0.0,0.0,-3.6817,-3.9377,-4.4451,-4.7428,-4.7936,-5.0371,-5.1894,-5.2435,-5.3179,-5.3585,-5.3653,-5.416,-5.4025,-5.3315,-5.3585,-5.3721,-5.3653,-5.2909,-5.186,-5.0541,-4.8511,-4.6177,-4.3538,-3.9817,-3.6569,0.0,0.0,0.0,0.0,-2.8552,-2.9161,-3.0108,-3.0871,-3.1389,-3.1829,-3.2131,-3.4704,-3.7964,-4.0185,-4.2649,-4.5128,-4.7265,-4.9365,-5.1067,-5.1611,-5.19,-5.1828,-5.1031,-4.9981,-4.922,-4.922,-4.8554,-4.8931,-5.1937,-5.2371,-5.3277,-5.5993,-5.5196,-5.4074,-5.3422,-5.3059,-5.2444,-5.1466,-5.2516,-5.3929,-5.5486,-5.5848,-5.6355,-5.7152,-5.7188,-5.7188,-5.7188,-5.7188,-5.7188,-5.7188,-5.6138,-5.5124,-5.4153,-5.3158,-5.2694,-5.2666,-5.0991,-5.0243,-5.0198,-4.8592,-4.7943,-4.7968,-4.7927,-4.7963,-4.787,-4.7259,-4.6819,-4.6472,-4.5945,-4.5236,-4.4423,0.0,0.0,0.0,0.0,0.0,0.0,0.0,0.0,0.0,0.0,0.0,0.0,0.0,0.0,0.0,0.0,0.0,0.0,0.0,0.0,0.0,-3.3863,-3.6366,-3.8304,-3.9656,-4.1204,-4.2726,-4.4181,-4.4925,-4.6012,-4.7398,-4.8815,-4.9086,-4.8477,-4.9154,-4.9458,-4.9424,-4.8714,-4.7196,-4.5133,-4.3612,-4.0434,-3.6434,-3.4167,0.0,0.0,0.0,0.0,0.0,-2.5372,-2.6691,-2.8147,-2.8929,-3.1753,-3.4584,-3.3603,-3.677,-4.089,-4.2331,-4.5209,-4.8206,-4.98,-5.1321,-5.2408,-5.2371,-5.1719,-5.0886,-5.0039,-4.8568,-4.7446,-4.7373,-4.5526,-4.5309,-4.9278,-4.8786,-4.9546,-5.4291,-5.3023,-5.2408,-5.4653,-5.2915,-5.2118,-5.3566,-5.3059,-5.3277,-5.4834,-5.5558,-5.6319,-5.7152,-5.7188,-5.7188,-5.7188,-5.7188,-5.7188,-5.7188,-5.5667,-5.4121,-5.2663,-5.2549,-5.2549,-5.2554,-5.0917,-5.0148,-5.0039,-4.8566,-4.7918,-4.7881,-4.7968,-4.7972,-4.7972,-4.7922,-4.7409,-4.6755,-4.6617,-4.6069,-4.5236,0.0,0.0,0.0,0.0,0.0,0.0,0.0,0.0,0.0,0.0,0.0,0.0,0.0,0.0,0.0,0.0,0.0,0.0,0.0,0.0,0.0,0.0,0.0,0.0,0.0,0.0,0.0,0.0,0.0,-3.9986,-4.0357,-4.0788,-4.0856,-4.0661,-4.077,-4.0778,-4.0778,-4.0583,-4.0153,-3.9514,0.0,-3.6441,-3.4767,0.0,0.0,0.0,0.0,0.0,0.0,0.0,-2.8408,-3.0921,-3.1394,-3.3389,-3.5892,-3.7349,-3.974,-4.2638,-4.591,-4.8091,-4.9872,-5.1466,-5.1756,-5.143,-5.0873,-4.9619,-4.8206,-4.6794,-4.5236,-4.3751,-4.2556,-4.281,-4.4114,-4.6975,-4.9075,-5.1611,-5.5196,-5.5703,-5.5486,-5.4979,-5.4834,-5.4508,-5.3784,-5.4074,-5.4689,-5.5631,-5.5377,-5.5776,-5.7116,-5.7188,-5.7188,-5.7188,-5.7188,-5.7188,-5.7188,-5.5667,-5.4399,-5.3396,-5.2793,-5.2503,-5.249,-5.1452,-5.0669,-5.0075,-4.9061,-4.83,-4.7741,-4.7762,-4.7783,-4.7783,-4.7741,-4.7632,-4.743,-4.7409,-4.6902,-4.6069,0.0,0.0,0.0,0.0,0.0,0.0,0.0,0.0,0.0,0.0,0.0,0.0,0.0,0.0,0.0,0.0,0.0,0.0,0.0,0.0,0.0,0.0,0.0,0.0,0.0,0.0,0.0,0.0,0.0,0.0,0.0,-3.5138,-3.5553,-3.5273,-3.5866,-3.6169,-3.6135,0.0,0.0,0.0,0.0,0.0,0.0,0.0,0.0,0.0,0.0,0.0,0.0,0.0,0.0,-3.3218,-3.4937,-3.6979,-3.9135,-4.1182,-4.3662,-4.6341,-4.8933,-5.0642,-5.19,-5.2806,-5.2154,-5.0886,-4.9401,-4.7702,-4.5833,-4.364,-4.1793,-4.0329,-3.9641,-3.9948,-4.1343,-4.4403,-4.7011,-5.0017,-5.3929,-5.516,-5.574,-5.5884,-5.5957,-5.5776,-5.5305,-5.5341,-5.5703,-5.6464,-5.5812,-5.5921,-5.7116,-5.7188,-5.7188,-5.7188,-5.7188,-5.7043,-5.6681,-5.5486,-5.4496,-5.371,-5.2902,-5.2503,-5.2536,-5.167,-5.1031,-5.056,-4.9401,-4.8619,-4.8185,-4.7844,-4.7699,-4.7699,-4.7699,-4.7699,-4.7699,-4.7699,-4.7409,-4.6902,0.0,0.0,0.0,0.0,0.0,0.0,0.0,0.0,0.0,0.0,-2.1231,0.0,0.0,0.0,0.0,0.0,0.0,0.0,0.0,0.0,0.0,0.0,0.0,0.0,0.0,0.0,0.0,0.0,0.0,0.0,0.0,0.0,0.0,0.0,0.0,0.0,0.0,0.0,0.0,0.0,0.0,0.0,0.0,0.0,0.0,0.0,0.0,0.0,0.0,0.0,-3.3194,-3.5614,-3.8863,-4.1355,-4.3443,-4.515,-4.7868,-5.0474,-5.1502,-5.2733,-5.3711,-5.3711,-5.2335,-5.0343,-4.7953,-4.5755,-4.3416,-4.0619,-3.8599,-3.7451,-3.767,-3.743,-3.8372,-4.2122,-4.4258,-4.7156,-5.1973,-5.3349,-5.4689,-5.6935,-5.6573,-5.6428,-5.7116,-5.6573,-5.6428,-5.7152,-5.6536,-5.6464,-5.7152,-5.7188,-5.7188,-5.7188,-5.7188,-5.6862,-5.6174,-5.5414,-5.4665,-5.3948,-5.307,-5.2622,-5.2568,-5.1801,-5.1371,-5.1122,-4.9792,-4.9104,-4.8894,-4.8272,-4.8025,-4.8025,-4.8025,-4.7953,-4.7859,-4.7859,-4.7787,-4.7591,0.0,0.0,0.0,0.0,0.0,0.0,0.0,0.0,0.0,0.0,-2.1642,-2.1432,0.0,0.0,0.0,0.0,0.0,0.0,0.0,0.0,0.0,0.0,0.0,0.0,0.0,0.0,0.0,0.0,0.0,0.0,0.0,0.0,0.0,0.0,0.0,0.0,0.0,0.0,0.0,0.0,0.0,0.0,0.0,0.0,0.0,0.0,0.0,0.0,0.0,0.0,-3.6217,-3.9832,-4.1688,-4.4357,-4.7217,-4.9517,-5.061,-5.1538,-5.3711,-5.4001,-5.3711,-5.3711,-5.1502,-4.8656,-4.6287,-4.3423,0.0,-3.8101,-3.6785,-3.5937,-3.5333,-3.6725,-3.8862,-4.1488,-4.4367,-4.7989,-5.2806,-5.4182,-5.5341,-5.7007,-5.708,-5.7043,-5.7188,-5.708,-5.7043,-5.7188,-5.708,-5.7043,-5.7188,-5.7188,-5.7188,-5.7188,-5.7188,-5.7116,-5.6971,-5.621,-5.5438,-5.4713,-5.3856,-5.3155,-5.2526,-5.2358,-5.1669,-5.0569,-5.0777,0.0,-4.9173,-4.9536,-4.9677,-4.9677,-4.9677,-4.9293,-4.8692,-4.8692,-4.8257,-4.7591,0.0,0.0,0.0,0.0,0.0,0.0,0.0,-2.1574,-2.2345,-2.387,-2.3996,-2.3504,-2.2338,-2.1841,-2.16,0.0,0.0,0.0,0.0,0.0,0.0,0.0,0.0,0.0,0.0,0.0,0.0,0.0,0.0,0.0,0.0,0.0,0.0,0.0,0.0,0.0,0.0,0.0,0.0,0.0,0.0,0.0,0.0,0.0,0.0,0.0,0.0,0.0,0.0,0.0,-3.5502,-3.9929,-4.333,-4.623,-4.8713,-5.0705,-5.19,-5.2878,-5.4472,-5.4907,-5.4798,-5.4436,-5.1611,-4.804,-4.4802,0.0,0.0,-3.5612,-3.4503,-3.3979,-3.3985,-3.5602,-3.7594,-3.955,-4.2194,-4.5687,-5.0524,-5.2263,-5.3892,-5.6283,-5.6935,-5.7188,-5.7188,-5.7188,-5.7188,-5.7188,-5.6933,-5.6881,-5.7163,-5.7188,-5.7188,-5.7188,-5.7188,-5.7188,-5.7188,-5.6391,-5.5812,-5.545,-5.4689,-5.3892,-5.3132,-5.2774,-5.2064,-5.1005,-5.0552,-4.9977,-4.9361,-4.9567,-4.9634,-4.9634,-4.9634,-4.9325,-4.8851,-4.8551,-4.8113,-4.7642,0.0,0.0,0.0,0.0,0.0,0.0,0.0,-2.2823,-2.3683,-2.5905,-2.6313,-2.5567,-2.3542,-2.242,-2.1779,0.0,0.0,0.0,0.0,0.0,0.0,0.0,0.0,0.0,0.0,0.0,0.0,-2.3322,-2.3862,0.0,0.0,0.0,0.0,0.0,-2.6221,0.0,0.0,0.0,0.0,0.0,0.0,0.0,0.0,0.0,0.0,0.0,0.0,0.0,0.0,0.0,-3.3415,-3.7651,-4.2129,-4.5774,-4.8677,-5.0126,-5.19,-5.3675,-5.4653,-5.545,-5.5776,-5.487,-5.1611,-4.7569,-4.357,-3.9673,-3.6256,-3.3888,-3.2862,-3.262,-3.3289,-3.4573,-3.6146,-3.7901,-4.0021,-4.3189,-4.8185,-5.0307,-5.2444,-5.5631,-5.6717,-5.7188,-5.7188,-5.7188,-5.7188,-5.7188,-5.674,-5.6635,-5.6984,-5.6871,-5.6871,-5.701,-5.6871,-5.6793,-5.6793,-5.6207,-5.5862,-5.5783,-5.5205,-5.4447,-5.3508,-5.3017,-5.2222,-5.1183,-5.0172,-4.9713,-4.9598,-4.9538,-4.9624,-4.9697,-4.9564,-4.94,-4.9122,-4.8389,-4.7934,-4.7746,0.0,0.0,0.0,0.0,0.0,0.0,0.0,-2.3182,-2.447,-2.71,-2.6945,-2.6062,-2.4783,-2.3996,-2.3233,0.0,0.0,0.0,0.0,0.0,0.0,0.0,0.0,0.0,0.0,0.0,0.0,-2.411,-2.4176,0.0,0.0,0.0,0.0,0.0,0.0,-2.5893,-2.5143,0.0,0.0,0.0,0.0,0.0,0.0,0.0,0.0,0.0,0.0,0.0,0.0,0.0,0.0,-3.3013,-3.5466,-4.1075,-4.6902,-4.7772,0.0,0.0,-5.4472,-5.545,-5.5631,-5.4182,-5.0814,-4.6757,-4.2718,0.0,-3.5879,-3.3825,-3.3034,-3.2894,-3.3334,-3.4117,-3.5494,-3.7828,0.0,-4.2537,-4.8113,-5.0307,-5.2444,-5.5631,0.0,0.0,-5.7188,-5.7188,-5.7188,-5.7188,-5.7138,-5.6907,-5.6393,-5.5858,-5.5837,-5.6366,-5.5865,-5.5578,-5.5578,-5.5472,-5.5341,-5.5187,-5.5116,-5.4294,-5.2891,-5.284,-5.1803,-5.0074,-5.0437,-5.0327,0.0,-5.036,-5.0892,-5.1337,-5.0779,-5.0449,-5.0113,-4.8837,-4.8194,-4.7877,0.0,0.0,0.0,0.0,0.0,0.0,-2.2862,-2.343,-2.4837,-2.8364,-2.8573,-2.8214,-2.7755,-2.6,-2.3968,-2.171,0.0,0.0,0.0,0.0,0.0,0.0,0.0,0.0,0.0,0.0,-2.3019,-2.4081,-2.4081,0.0,0.0,0.0,0.0,0.0,0.0,-2.541,-2.5044,0.0,0.0,0.0,0.0,0.0,0.0,0.0,0.0,0.0,0.0,0.0,-2.6775,0.0,0.0,0.0,-3.1011,-3.4956,0.0,0.0,-4.6958,-5.0162,-5.277,-5.4363,-5.5088,-5.3965,-5.0307,-4.6008,-4.2236,0.0,-3.4942,-3.3367,-3.2766,-3.2666,-3.3304,-3.3647,-3.4516,-3.6435,0.0,0.0,-4.3841,-4.5526,-4.7974,-5.2625,-5.4291,-5.5631,-5.7043,-5.6881,-5.6501,-5.6138,-5.6111,-5.5999,-5.578,-5.5894,-5.5894,-5.578,-5.5549,-5.5402,-5.5402,-5.5402,-5.5344,-5.5256,-5.5221,-5.4409,-5.2925,-5.2593,-5.1505,-4.9873,-4.9756,-4.9585,0.0,-4.9988,-5.0349,-5.0542,-5.0293,-4.98,-4.9094,-4.8242,-4.7464,-4.6861,0.0,0.0,0.0,0.0,0.0,-2.0557,-2.3191,-2.361,-2.4896,-2.8543,-2.9022,-2.8933,-2.8753,-2.6662,-2.4373,-2.2084,-2.1436,0.0,0.0,0.0,0.0,0.0,0.0,0.0,0.0,0.0,-2.3171,-2.4348,-2.4133,-2.4746,0.0,0.0,-2.559,-2.5854,0.0,0.0,0.0,0.0,0.0,0.0,0.0,0.0,0.0,0.0,0.0,0.0,0.0,0.0,0.0,0.0,0.0,0.0,0.0,0.0,0.0,0.0,-4.3216,-4.7081,-4.9848,-5.2157,-5.3566,-5.2552,-4.9184,-4.5156,0.0,0.0,-3.4341,-3.3051,-3.2435,-3.2368,-3.3259,-3.3319,-3.3692,0.0,0.0,-3.6716,-4.0775,-4.264,-4.5269,-4.9825,-5.1571,-5.3339,-5.566,-5.5964,-5.595,-5.5694,-5.5694,-5.5607,-5.5432,-5.5808,-5.5744,-5.5099,-5.4953,-5.483,-5.483,-5.483,-5.4953,-5.5099,-5.4855,-5.4051,-5.2729,-5.2176,-5.1055,-4.9615,-4.9199,-4.9018,0.0,-4.9466,-4.9762,-4.9873,-4.9463,-4.8985,-4.8416,-4.7403,-4.6677,-4.625,0.0,0.0,0.0,0.0,0.0,0.0,-2.3191,-2.361,-2.4567,-2.7255,-2.7615,-2.7375,-2.6692,-2.5412,-2.4491,-2.4193,-2.2105,0.0,0.0,0.0,0.0,0.0,0.0,0.0,0.0,0.0,-2.2937,-2.5196,-2.4381,-2.4746,-2.6185,-2.6185,-2.5788,-2.5093,0.0,0.0,0.0,0.0,0.0,0.0,0.0,0.0,0.0,0.0,0.0,0.0,0.0,0.0,0.0,0.0,0.0,0.0,0.0,-2.7536,0.0,0.0,-3.9032,-4.399,-4.5645,-4.8654,-5.0959,-4.9365,-4.712,-4.418,0.0,-3.6699,-3.4341,-3.3051,-3.2231,-3.2039,-3.3178,-3.3065,-3.3061,-3.3882,0.0,0.0,-4.017,-4.3258,-4.5998,-4.8015,-4.8971,-5.0318,-5.2539,-5.4373,-5.5629,-5.6257,-5.6284,-5.6035,-5.5432,-5.5402,-5.5099,-5.4422,-5.3849,-5.3551,-5.3551,-5.3551,-5.3816,-5.4422,-5.3663,-5.2904,-5.2175,-5.145,-5.0335,-4.9018,-4.8984,-4.9018,0.0,-4.9018,-4.9346,-4.9746,-4.8413,-4.8255,-4.854,-4.6504,-4.6039,-4.6362,0.0,0.0,0.0,0.0,0.0,0.0,0.0,-2.2024,-2.3071,-2.5262,-2.5944,-2.6482,-2.7225,-2.5674,-2.4805,-2.5248,-2.3381,0.0,0.0,0.0,0.0,0.0,0.0,0.0,0.0,0.0,-2.4663,-2.589,-2.564,-2.6005,-2.695,-2.6435,-2.6086,-2.5788,-2.4812,-2.4083,0.0,0.0,0.0,0.0,0.0,0.0,0.0,0.0,0.0,0.0,0.0,0.0,0.0,0.0,0.0,0.0,0.0,0.0,0.0,-2.9608,-3.418,-3.9277,-4.1665,-4.3706,-4.5027,-4.4257,-4.2282,-3.9791,-3.7064,-3.4866,-3.3294,-3.2596,-3.2039,-3.195,-3.2846,-3.2682,-3.3035,-3.4887,-3.5989,0.0,0.0,-4.2374,-4.542,-4.7885,-5.1687,-5.4252,-5.4522,-5.465,-5.4978,-5.5665,-5.5278,-5.5129,-5.5402,-5.4948,-5.4457,-5.3816,-5.3584,-5.3518,-5.3518,-5.3518,-5.3584,-5.3783,-5.2966,-5.2217,-5.1469,-5.0751,-4.9912,-4.9018,-4.9018,-4.9018,-4.9018,-4.9018,-4.9107,-4.9192,-4.8267,-4.7717,-4.7282,-4.6128,-4.5479,-4.5192,0.0,0.0,0.0,0.0,0.0,0.0,0.0,-2.1066,-2.1844,-2.3289,-2.3879,-2.4785,-2.6536,-2.5145,-2.467,-2.6083,-2.4759,0.0,0.0,0.0,0.0,0.0,0.0,0.0,0.0,-2.4183,-2.5044,-2.6634,-2.6634,-2.7131,-2.8111,-2.7926,-2.7245,-2.6152,-2.5243,-2.4514,0.0,0.0,0.0,0.0,0.0,0.0,-2.4,0.0,0.0,0.0,0.0,0.0,0.0,0.0,0.0,0.0,0.0,0.0,0.0,0.0,-3.0474,-3.4146,-3.733,-3.9489,-4.0755,-4.0515,-3.9105,-3.7259,-3.494,-3.3621,-3.2671,-3.183,-3.1579,-3.1786,-3.2634,-3.2401,-3.2598,-3.416,-3.5527,-3.6771,-3.7874,-4.1542,-4.5014,-4.7512,-5.1828,-5.4296,-5.348,-5.3782,-5.433,-5.4978,-5.4641,-5.4579,-5.4978,-5.4641,-5.4106,-5.3551,-5.3518,-5.3348,-5.3044,-5.3348,-5.3348,-5.3044,-5.2266,-5.1657,-5.1183,-5.0168,-4.9424,-4.9018,-4.9018,-4.9018,0.0,-4.9018,-4.9018,-4.8951,-4.8176,-4.7462,-4.6718,-4.5974,-4.5229,-4.4637,0.0,0.0,0.0,0.0,0.0,0.0,0.0,-2.0658,-2.0927,-2.1545,-2.1695,-2.2606,-2.4857,-2.4071,-2.4306,-2.6555,0.0,0.0,0.0,0.0,0.0,0.0,0.0,0.0,-2.4083,-2.3454,-2.4531,-2.7381,-2.7415,-2.8177,-2.9562,-3.0257,-2.9065,-2.6351,-2.6285,-2.5424,-2.4017,0.0,0.0,0.0,-2.3686,-2.3918,0.0,0.0,0.0,0.0,0.0,0.0,0.0,0.0,0.0,0.0,0.0,0.0,0.0,0.0,0.0,0.0,0.0,-3.5603,-3.758,-3.756,-3.7083,-3.5913,-3.337,-3.2734,0.0,-3.0956,-3.0885,-3.142,-3.2677,-3.2179,-3.1804,-3.2529,-3.4783,-3.6466,-3.6541,-4.1116,-4.5264,-4.7442,-5.0258,-5.1599,-5.0425,-5.2265,-5.375,-5.4359,-5.4359,-5.4359,-5.4391,-5.4359,-5.4074,-5.3416,-5.3416,-5.3078,-5.23,-5.3044,-5.301,-5.2198,-5.1488,-5.115,-5.1082,-4.9661,-4.9018,-4.9018,-4.9018,-4.9018,-4.9018,-4.9018,-4.9018,-4.8917,-4.8139,-4.7394,-4.6684,-4.5906,-4.5196,-4.4615,0.0,0.0,0.0,0.0,0.0,0.0,0.0,0.0,0.0,0.0,-2.1814,-2.2684,-2.3239,-2.3763,-2.4441,0.0,0.0,0.0,0.0,0.0,0.0,0.0,0.0,0.0,-2.4845,-2.5225,-2.6303,-2.8144,-2.8655,-2.9628,-3.1085,-3.125,-3.0112,-2.7879,-2.7282,-2.5923,-2.4017,-2.4017,0.0,0.0,-2.3321,-2.3156,0.0,0.0,0.0,0.0,-2.4119,-2.4653,0.0,0.0,0.0,0.0,0.0,0.0,0.0,0.0,-2.7436,-2.8151,-2.907,0.0,-3.1479,-3.1223,-3.1473,-3.1587,0.0,-3.0787,-3.0897,0.0,-3.0441,-3.0364,-3.3209,-3.1945,-3.1638,-3.5181,-3.6411,-3.7415,-3.8706,-4.4243,-4.9209,-5.207,-5.3682,-5.4027,-5.2681,-5.3137,-5.375,-5.4359,-5.3979,-5.3913,-5.4391,-5.3979,-5.3346,-5.2604,-5.257,-5.2503,-5.23,-5.2503,-5.2198,-5.1454,-5.071,-5.0338,-5.0338,-4.9424,-4.9018,-4.9018,-4.9018,-4.9018,-4.9018,-4.9018,-4.9018,-4.8883,-4.7564,-4.6955,-4.6616,-4.5331,-4.475,-4.4615,0.0,0.0,0.0,0.0,0.0,0.0,0.0,0.0,0.0,0.0,0.0,-2.2094,-2.2869,-2.3488,0.0,0.0,0.0,0.0,0.0,0.0,0.0,0.0,0.0,-2.5689,-2.4613,-2.5342,-2.6733,-2.8853,-2.9622,-3.0883,-3.263,-3.2719,-3.1233,-2.8367,-2.6972,-2.5642,-2.4547,-2.4878,-2.4613,-2.3984,-2.3553,0.0,0.0,0.0,0.0,0.0,-2.3383,-2.4099,0.0,-2.6556,-2.7199,-2.7266,0.0,0.0,0.0,0.0,-2.6996,-2.73,-2.73,-2.8746,-3.0252,-3.0029,-3.0548,-3.1021,-3.0683,0.0,0.0,0.0,-3.0462,-3.0715,-3.3048,-3.2178,-3.2184,-3.5479,-3.6922,-3.8722,-4.2026,-4.5894,-4.9493,-5.231,-5.3375,-5.3801,-5.346,-5.348,-5.3651,-5.3979,-5.3651,-5.3651,-5.3979,-5.3311,-5.2739,-5.23,-5.1961,-5.1623,-5.1285,-5.1623,-5.1454,-5.071,-5.027,-5.0101,-5.0067,-4.9323,-4.9018,-4.9018,-4.9018,-4.9018,-4.9018,-4.9018,-4.9018,-4.8883,-4.7767,-4.709,-4.665,-4.55,-4.4886,-4.4615,0.0,0.0,0.0,0.0,0.0,0.0,0.0,0.0,0.0,0.0,0.0,0.0,0.0,0.0,0.0,0.0,0.0,0.0,0.0,0.0,0.0,0.0,0.0,-2.5607,-2.4365,-2.5061,-2.6718,-2.9291,-3.0488,-3.2019,-3.3858,-3.4307,-3.2515,-2.8724,-2.6643,-2.5526,-2.5292,-2.5788,-2.5309,-2.4149,-2.3918,0.0,0.0,0.0,0.0,0.0,0.0,0.0,0.0,-2.659,-2.7452,-2.7722,-2.8163,0.0,0.0,0.0,0.0,0.0,-2.6962,-2.9059,-3.1123,-3.0784,-3.1413,-3.1955,-3.119,0.0,0.0,0.0,-3.0683,-3.1477,-3.2887,-3.2753,-3.3175,-3.5351,-3.7534,-4.0722,-4.5895,-4.7296,-4.8723,-5.1187,-5.2101,-5.276,-5.328,-5.345,-5.3518,-5.3518,-5.3382,-5.3315,-5.3315,-5.257,-5.2097,-5.1961,-5.1352,-5.0676,-4.9932,-5.0676,-5.0676,-4.9932,-4.9932,-4.9932,-4.9898,-4.9289,-4.9018,-4.9018,-4.9018,0.0,-4.8984,-4.8883,-4.8849,-4.8748,-4.7872,-4.7192,-4.6549,-4.5805,-4.5128,-4.4615,0.0,0.0,0.0,0.0,0.0,0.0,0.0,0.0,0.0,0.0,0.0,0.0,0.0,0.0,0.0,0.0,0.0,0.0,0.0,0.0,0.0,-2.6283,-2.6226,-2.6139,-2.5961,-2.666,-2.7629,-2.8791,-3.1441,-3.3193,-3.4186,-3.5459,-3.4008,-3.0275,-2.8633,-2.7216,-2.5987,-2.549,-2.5143,-2.4812,-2.3586,0.0,0.0,0.0,0.0,0.0,0.0,0.0,0.0,-2.463,-2.5845,-2.6657,-2.5557,0.0,0.0,0.0,0.0,0.0,-2.813,-2.989,-3.0751,-2.8804,-2.9871,-3.119,-3.0446,0.0,0.0,0.0,0.0,-3.1108,-3.3744,-3.3702,-3.4358,-3.7848,-4.0563,-4.4241,-4.9909,-5.0381,-5.1037,-5.3427,-5.3901,-5.3656,-5.2569,-5.3112,-5.3518,-5.3518,-5.2875,-5.2469,-5.2469,-5.1792,-5.1082,-5.0439,-5.0338,-4.9898,-4.9187,-4.9898,-4.9898,-4.9187,-4.9187,-4.9187,-4.9187,-4.9052,-4.9018,-4.9018,0.0,-4.9018,-4.8951,-4.8342,-4.8041,-4.7906,-4.6583,-4.5974,-4.5771,-4.5026,-4.4716,-4.4615,0.0,0.0,0.0,0.0,0.0,0.0,0.0,0.0,0.0,0.0,0.0,0.0,0.0,0.0,0.0,0.0,0.0,0.0,0.0,0.0,-2.6785,-2.7642,-2.7217,-2.7165,-2.7569,-2.8323,-2.968,-3.1662,-3.3906,-3.535,-3.5961,-3.4644,-3.2603,-3.0029,-2.8144,-2.6891,-2.6185,-2.5892,-2.5726,-2.559,0.0,0.0,0.0,0.0,0.0,0.0,0.0,0.0,0.0,0.0,-2.5489,-2.659,-2.5895,0.0,0.0,0.0,0.0,0.0,-2.7469,-2.9161,-3.0345,-2.9311,-3.0751,-3.2205,-3.1461,-3.1292,0.0,0.0,-3.2442,-3.3152,-3.534,-3.5791,-3.7136,-4.1109,-4.3636,-4.6206,-4.9509,-4.9853,-5.0474,-5.2364,-5.2635,-5.276,-5.2942,-5.3281,-5.3315,-5.2875,-5.2503,-5.2131,-5.1725,-5.1014,-5.0439,-5.0101,-4.9695,-4.9357,-4.9018,-4.9323,-4.9323,-4.9018,-4.9018,-4.9018,-4.9018,-4.9018,-4.9018,-4.9018,0.0,-4.9018,-4.8951,-4.8176,-4.7906,-4.7736,-4.6278,-4.5703,-4.5602,-4.4886,-4.4615,-4.4615,0.0,0.0,0.0,0.0,0.0,0.0,0.0,0.0,0.0,0.0,0.0,0.0,0.0,0.0,0.0,0.0,0.0,0.0,0.0,0.0,-2.7107,-2.8434,-2.8117,-2.852,-2.9743,-3.0146,-3.1724,-3.451,-3.6427,-3.758,-3.7986,-3.4633,-3.1964,-2.9841,-2.7988,-2.6832,-2.6274,-2.6312,-2.6312,-2.619,0.0,0.0,0.0,0.0,0.0,0.0,0.0,0.0,0.0,0.0,0.0,0.0,0.0,0.0,0.0,-2.6928,-2.6691,-2.6826,-2.7334,-2.8789,-3.0142,-3.0311,-3.1765,-3.3119,-3.3085,-3.2936,-3.3139,-3.4235,-3.4912,-3.5656,-3.6863,-3.8091,-4.0145,-4.387,-4.6062,-4.7874,-4.9492,-4.9759,-5.0333,-5.1781,-5.1822,-5.2198,-5.3382,-5.3518,-5.3179,-5.2367,-5.2131,-5.1725,-5.098,-5.0236,-4.983,-4.983,-4.9289,-4.9018,-4.9018,-4.9018,-4.9018,-4.9018,-4.9018,-4.9018,-4.9018,-4.9018,-4.9018,-4.8984,-4.8815,-4.8748,-4.868,-4.7736,-4.7365,-4.7229,-4.594,-4.5432,-4.5365,-4.4818,-4.4615,-4.4615,0.0,0.0,0.0,0.0,0.0,0.0,0.0,0.0,0.0,0.0,0.0,0.0,0.0,0.0,0.0,0.0,0.0,0.0,0.0,0.0,-2.6977,-2.7822,-2.8534,-3.0171,-3.2925,-3.2332,-3.3182,-3.5509,-3.8235,-3.9572,-3.9572,-3.7336,-3.433,-3.0864,-2.9906,-2.8342,-2.6468,-2.6485,-2.6485,-2.6401,-2.5547,0.0,0.0,0.0,0.0,0.0,0.0,0.0,0.0,0.0,0.0,0.0,0.0,0.0,-2.7655,-2.6928,-2.6691,-2.7165,-2.9296,-2.9973,-3.0277,-3.0954,-3.1752,-3.2903,-3.4912,-3.4844,-3.4945,-3.7144,-3.7618,-3.7686,-3.7821,-4.0087,-4.2787,-4.5185,-4.7424,-4.9807,-5.2574,-5.2448,-5.2595,-5.4023,-5.3679,-5.3382,-5.3484,-5.3518,-5.3179,-5.2367,-5.1691,-5.098,-5.0202,-4.9492,-4.9086,-4.9086,-4.9052,-4.9018,-4.9018,-4.9018,-4.9018,-4.9018,-4.9018,-4.9018,-4.9018,-4.9018,-4.9018,-4.8951,-4.8277,-4.7973,-4.7872,-4.6447,-4.5872,-4.5771,-4.4987,-4.4682,-4.4682,-4.4615,-4.4615,-4.4615,0.0,0.0,0.0,0.0,0.0,0.0,0.0,0.0,0.0,0.0,0.0,0.0,0.0,0.0,0.0,0.0,0.0,0.0,0.0,-2.6606,-2.6995,-2.7719,-2.8568,-3.0142,-3.2604,-3.4226,-3.5938,-3.7719,-3.8762,-3.9286,-3.9143,-3.6474,-3.3725,-3.0871,-2.9225,-2.798,-2.7123,-2.6252,-2.6386,-2.7106,-2.6334,-2.6033,0.0,0.0,0.0,0.0,0.0,0.0,0.0,0.0,-2.3699,-2.4812,-2.4068,-2.5338,-2.7063,-2.6759,-2.6691,-2.6996,-2.8297,-2.9683,-3.0852,-3.1123,-3.278,-3.4438,-3.4844,-3.5791,-3.711,-3.8879,-4.0366,-4.1313,-4.1313,-4.2252,-4.3741,-4.6007,-4.824,-5.0399,-5.2386,-5.2905,-5.3042,-5.3067,-5.2905,-5.257,-5.2131,-5.2097,-5.1758,-5.098,-5.0676,-5.0202,-4.9458,-4.8714,-4.8342,-4.8342,-4.7868,-4.7631,-4.7631,-4.7631,-4.7631,-4.7631,-4.8545,-4.9018,-4.9018,-4.9018,-4.8748,-4.8308,-4.8007,-4.7665,-4.7158,-4.6109,-4.5703,-4.5635,-4.4886,-4.4615,-4.4615,-4.4615,-4.4615,-4.4615,0.0,0.0,0.0,0.0,0.0,0.0,0.0,0.0,0.0,0.0,0.0,0.0,0.0,0.0,0.0,0.0,0.0,0.0,-2.6589,-2.6657,-2.7012,-2.7719,-2.8568,-3.0025,-3.2259,-3.5272,-3.754,-3.9005,-3.9478,-3.937,-3.8706,-3.6285,-3.4037,-3.1954,-2.9791,-2.8762,-2.8624,-2.6691,-2.6573,-2.7597,-2.6588,-2.6353,0.0,0.0,0.0,0.0,0.0,0.0,0.0,0.0,-2.3294,-2.4135,-2.412,-2.5304,-2.6759,-2.6996,-2.7063,-2.7165,-2.7655,-2.9127,-3.0548,-3.0784,-3.3085,-3.5453,-3.6096,-3.7821,-3.9851,-4.1813,-4.3064,-4.3775,-4.3775,-4.3775,-4.4451,-4.6447,-4.8849,-5.0811,-5.1826,-5.2638,-5.2841,-5.2063,-5.1961,-5.1758,-5.1219,-5.1185,-5.0811,-4.983,-4.9729,-4.9424,-4.8714,-4.797,-4.7665,-4.7872,-4.7192,-4.6786,-4.6786,-4.6786,-4.6786,-4.6819,-4.78,-4.8308,-4.8308,-4.8308,-4.8037,-4.7564,-4.7327,-4.6921,-4.638,-4.5669,-4.5365,-4.5297,-4.4818,-4.4615,-4.4615,-4.4615,-4.4615,-4.4615,0.0,0.0,0.0,0.0,0.0,0.0,0.0,0.0,-2.5221,-2.5221,-2.5221,0.0,0.0,0.0,0.0,0.0,0.0,0.0,-2.6691,-2.6691,-2.7029,-2.7756,-2.8552,-3.0025,-3.2226,-3.5238,-3.7506,-3.9005,-4.046,-4.0315,-3.8622,-3.7378,-3.5949,-3.437,-3.2171,-3.119,-3.0987,-2.7977,-2.7131,-2.7689,-2.6118,-2.5982,-2.6623,0.0,0.0,0.0,0.0,0.0,0.0,0.0,-2.3351,-2.3646,-2.5135,-2.6082,-2.6826,-2.7587,-2.779,-2.779,-2.7824,-2.8416,-2.9179,-2.9939,-3.2341,-3.5487,-3.9266,-4.1264,-4.3166,-4.6177,-4.5664,-4.4615,-4.4649,-4.4615,-4.5089,-4.6549,-4.9255,-5.1151,-5.1217,-5.1826,-5.2029,-5.1285,-5.1217,-5.1217,-5.1151,-5.1183,-5.0574,-4.912,-4.8984,-4.868,-4.7906,-4.7192,-4.7124,-4.7838,-4.7158,-4.6786,-4.6786,-4.6786,-4.6786,-4.6786,-4.6786,-4.6786,-4.6786,-4.6786,-4.6786,-4.6752,-4.6007,-4.5703,-4.5635,-4.4919,-4.4615,-4.4615,-4.4615,-4.4615,-4.4615,-4.4615,-4.4615,-4.4615,0.0,0.0,0.0,0.0,0.0,0.0,0.0,0.0,-2.6101,-2.6101,-2.6155,0.0,0.0,0.0,0.0,0.0,0.0,0.0,-2.6623,-2.6657,-2.6539,-2.6202,-2.7468,-2.8484,-2.9127,-3.2611,-3.5926,-3.9005,-3.842,-3.756,-3.6477,-3.56,-3.4392,-3.2936,-3.2259,-3.1393,-3.0277,-2.7774,-2.7435,-2.845,-2.6387,-2.6015,-2.6623,0.0,0.0,0.0,0.0,0.0,0.0,0.0,0.0,0.0,-2.3917,-2.527,-2.6725,-2.6962,-2.7384,-2.7925,-2.8484,-2.9194,-3.0209,-3.2002,-3.4675,-3.7719,-4.0899,-4.2008,-4.3436,-4.7496,-4.7158,-4.6312,-4.6819,-4.6075,-4.5669,-4.6616,-4.8409,-4.983,-5.0338,-5.1048,-5.1251,-5.0507,-5.0439,-5.0236,-4.9695,-4.9156,-4.8683,-4.8244,-4.7767,-4.7361,-4.7124,-4.6447,-4.6143,-4.6346,-4.5635,-4.5258,-4.5258,-4.5258,-4.5258,-4.5258,-4.5258,-4.5771,-4.6786,-4.6786,-4.6515,-4.6007,-4.5805,-4.5399,-4.4891,-4.4716,-4.4615,-4.4615,-4.4615,-4.4615,-4.4615,-4.4615,-4.4615,-4.4615,0.0,0.0,0.0,0.0,0.0,0.0,0.0,0.0,-2.6572,-2.6572,-2.6606,-2.664,0.0,0.0,0.0,0.0,0.0,0.0,0.0,-2.6691,-2.6607,-2.6404,-2.7299,-2.8365,-2.9567,-3.2104,-3.437,-3.6355,-3.6332,-3.5926,-3.5182,-3.5318,-3.5081,-3.4506,-3.4223,-3.3275,-3.1698,-2.9431,-2.8705,-2.884,-2.7165,-2.6742,-2.7097,0.0,0.0,0.0,0.0,0.0,0.0,0.0,0.0,0.0,-2.3308,-2.4526,-2.5895,-2.6184,-2.6793,-2.7519,-2.8315,-2.9499,-3.1055,-3.3288,-3.6332,-3.9614,-4.2895,-4.4553,-4.6244,-4.9255,-4.8714,-4.78,-4.8274,-4.7124,-4.638,-4.7124,-4.8477,-4.9492,-4.9627,-5.0304,-5.0507,-4.9729,-4.9661,-4.9357,-4.8646,-4.8173,-4.7635,-4.709,-4.6616,-4.6346,-4.6346,-4.5669,-4.5263,-4.5263,-4.4852,-4.431,-4.3701,-4.431,-4.4445,-4.4113,-4.4445,-4.5089,-4.5935,-4.5935,-4.5669,-4.5263,-4.5263,-4.4993,-4.4581,-4.4248,-4.4316,-4.4581,-4.4248,-4.4316,-4.4615,-4.4615,-4.4615,-4.4615,0.0,0.0,-2.5813,-2.6505,0.0,0.0,0.0,0.0,-2.6691,-2.6691,-2.6691,-2.6691,0.0,0.0,0.0,0.0,0.0,0.0,0.0,0.0,-2.6996,-2.7689,-2.7959,-2.9431,-3.2226,-3.2882,-3.2882,-3.2192,-3.4269,-3.4979,-3.4336,-3.5949,-3.7043,-3.7652,-3.7066,-3.5881,-3.4134,-3.1935,-3.0194,-2.8807,-2.7875,-2.7587,-2.7689,-2.7553,0.0,0.0,0.0,0.0,0.0,0.0,0.0,0.0,-2.3241,-2.4,-2.4745,-2.5473,-2.6218,-2.6962,-2.779,-2.9533,-3.1698,-3.4167,-3.7743,-4.1534,-4.5026,-4.8037,-5.027,-5.0879,-4.9999,-4.9086,-4.9086,-4.7936,-4.7225,-4.7872,-4.9086,-4.9695,-4.9086,-4.9526,-4.9661,-4.8984,-4.8917,-4.8612,-4.7872,-4.7736,-4.7158,-4.5805,-4.5568,-4.5534,-4.5602,-4.4823,-4.4412,-4.4513,-4.4445,-4.3735,-4.2286,-4.3701,-4.4045,-4.3409,-4.4079,-4.4445,-4.4513,-4.4581,-4.4615,-4.4615,-4.4513,-4.4513,-4.4445,-4.3639,-4.3741,-4.4344,-4.3673,-4.3842,-4.4513,-4.4581,-4.4615,-4.4615,0.0,0.0,-2.5829,-2.6556,0.0,0.0,0.0,0.0,0.0,-2.6691,0.0,0.0,0.0,0.0,0.0,0.0,0.0,0.0,0.0,0.0,-2.6759,-2.6928,-2.9194,-3.1021,-3.2259,-3.1867,-3.1596,-3.1427,-3.2496,-3.2936,-3.2835,-3.4878,-3.5938,-3.6107,-3.6569,-3.5306,-3.2632,-3.0398,-2.8924,-2.7891,-2.5981,-2.5879,-2.6826,-2.5659,-2.4914,0.0,0.0,0.0,0.0,0.0,0.0,0.0,-2.3864,-2.4778,-2.5507,-2.6251,-2.6996,-2.7858,-2.921,-2.9954,-3.1427,-3.6028,-4.0865,-4.4857,-4.6244,-4.8376,-4.9965,-4.956,-4.9695,-4.9864,-4.9864,-4.912,-4.8578,-4.8748,-4.8545,-4.8545,-4.8951,-4.8646,-4.8311,-4.8173,-4.8142,-4.7868,-4.709,-4.6515,-4.6041,-4.5737,-4.4587,-4.4181,-4.4818,-4.3538,-4.3064,-4.3639,-4.3098,-4.2625,-4.2286,-4.2625,-4.2997,-4.3375,-4.2997,-4.3098,-4.3673,-4.4316,-4.4615,-4.4581,-4.3944,-4.3673,-4.3606,-4.2861,-4.2625,-4.2828,-4.3267,-4.3538,-4.3741,-4.4378,-4.4615,-4.4615,0.0,0.0,0.0,0.0,0.0,0.0,0.0,0.0,0.0,0.0,0.0,0.0,0.0,-2.6691,0.0,0.0,-2.6691,-2.6522,-2.615,-2.6488,-2.7029,-2.7757,-2.9973,-3.1075,-3.0736,-3.0683,-3.0311,-2.9567,-2.9973,-3.0886,-3.2327,-3.4201,-3.5487,-3.6197,-3.6626,-3.5137,-3.2226,-3.1075,-2.9499,-2.7689,-2.6556,-2.6556,-2.7097,-2.5997,-2.532,-2.4932,-2.4203,0.0,0.0,0.0,0.0,0.0,0.0,0.0,-2.4695,-2.5422,-2.642,-2.7604,-2.9161,-3.0852,-3.3558,-3.914,-4.2861,-4.5534,-4.6989,-4.824,-4.9052,-4.9018,-4.9593,-4.9965,-4.9627,-4.9255,-4.8883,-4.8545,-4.8142,-4.7936,-4.7936,-4.7631,-4.7361,-4.7361,-4.7361,-4.709,-4.6346,-4.594,-4.5568,-4.5196,-4.4079,-4.3606,-4.4012,-4.2929,-4.232,-4.2354,-4.232,-4.1948,-4.1264,-4.1948,-4.232,-4.2354,-4.232,-4.2489,-4.2895,-4.3301,-4.3498,-4.3498,-4.3064,-4.2861,-4.2828,-4.2083,-4.1982,-4.2286,-4.2354,-4.2794,-4.3443,-4.3876,-4.4248,-4.4615,0.0,0.0,0.0,0.0,0.0,0.0,0.0,0.0,0.0,0.0,0.0,0.0,0.0,-2.6691,-2.6691,0.0,0.0,0.0,-2.6522,-2.6623,-2.7334,-2.8739,-3.0209,-3.048,-2.9416,-2.9736,-2.9345,-2.8196,-2.806,-2.9567,-3.253,-3.3728,-3.5182,-3.6795,-3.6524,-3.4967,-3.2462,-3.1955,-3.0209,-2.779,-2.7519,-2.7486,-2.7519,-2.6793,-2.6116,-2.5541,-2.4914,-2.4237,-2.3477,-2.2733,0.0,0.0,0.0,0.0,-2.3545,-2.4271,-2.5455,-2.6826,-2.84,-3.1785,-3.6129,-4.1339,-4.3639,-4.5089,-4.6921,-4.753,-4.7902,-4.8511,-4.9221,-4.9526,-4.8917,-4.8714,-4.8409,-4.7834,-4.7601,-4.7361,-4.6853,-4.6684,-4.6616,-4.6616,-4.6616,-4.6312,-4.5568,-4.5399,-4.506,-4.4418,-4.3538,-4.3071,-4.3172,-4.2388,-4.1677,-4.1238,-4.1677,-4.1331,-4.0113,-4.1331,-4.1677,-4.1204,-4.1813,-4.2016,-4.1914,-4.1914,-4.2049,-4.2286,-4.2151,-4.2117,-4.2049,-4.1305,-4.1373,-4.1847,-4.1407,-4.1948,-4.3064,-4.3139,-4.3707,-4.4384,0.0,0.0,0.0,0.0,0.0,0.0,0.0,0.0,0.0,0.0,-2.6691,-2.6691,-2.6691,-2.6691,-2.6691,-2.6691,-2.6691,-2.642,-2.5778,0.0,0.0,-2.7925,-2.9413,-3.0446,-3.0886,-2.9754,-2.9364,-2.9785,-2.9161,-3.0345,-3.3254,-3.3457,-3.4709,-3.6761,-3.5407,-3.4235,-3.3085,-3.0533,-2.8789,-2.7689,-2.6404,-2.6285,-2.6759,-2.6048,-2.571,-2.5609,-2.5507,-2.4966,-2.4237,-2.3511,-2.3241,0.0,0.0,0.0,-2.3545,-2.4271,-2.5067,-2.6082,-2.7553,-3.2138,-3.6998,-3.9073,-4.2117,-4.4682,-4.4987,-4.6007,-4.6955,-4.7056,-4.7699,-4.8173,-4.8041,-4.753,-4.7056,-4.6955,-4.6413,-4.6177,-4.6718,-4.6244,-4.5838,-4.5838,-4.5838,-4.5568,-4.4818,-4.4113,-4.3646,-4.3572,-4.2286,-4.1779,-4.2388,-4.1162,-4.0629,-4.117,-4.0663,-4.0316,-4.0113,-4.0316,-4.0688,-4.1204,-4.1305,-4.1001,-4.0383,-4.0383,-4.1094,-4.2252,-4.161,-4.1339,-4.1305,-4.0553,-4.0316,-4.0451,-4.1001,-4.1339,-4.1576,-4.2219,-4.2929,-4.3572,0.0,0.0,0.0,0.0,0.0,0.0,0.0,0.0,0.0,0.0,0.0,-2.6691,-2.6691,-2.6691,-2.6691,-2.6691,-2.6691,-2.6556,-2.6251,-2.6522,-2.7029,-2.7756,-2.8466,-2.8789,-2.8687,-2.845,-2.8281,-2.818,-2.8281,-3.0074,-3.3423,-3.3829,-3.5216,-3.7313,-3.4945,-3.3694,-3.322,-3.0262,-2.8552,-2.7722,-2.664,-2.642,-2.6623,-2.5879,-2.5879,-2.615,-2.5744,-2.5406,-2.4932,-2.3782,-2.341,-2.3342,-2.2902,0.0,0.0,0.0,-2.4406,-2.5676,-2.8856,-3.1935,-3.5035,-3.8193,-4.0223,-4.2008,-4.4141,-4.5122,-4.5771,-4.6616,-4.6718,-4.6786,-4.7225,-4.7022,-4.665,-4.6244,-4.5906,-4.55,-4.4993,-4.4621,-4.4282,-4.3842,-4.3775,-4.3673,-4.3362,-4.2997,-4.2794,-4.2794,-4.1813,-4.1339,-4.1677,-4.0688,-4.0248,-4.0561,-4.0282,-4.0113,-4.0113,-4.0113,-4.0282,-4.0561,-4.0561,-4.0417,-4.0113,-4.0113,-4.0451,-4.106,-4.0722,-4.0561,-4.0561,-4.0248,-4.0113,-4.0146,-4.0485,-4.0832,-4.1238,-4.1576,-4.2151,-4.2794,0.0,0.0,0.0,0.0,0.0,0.0,0.0,0.0,0.0,0.0,0.0,-2.6691,-2.6691,0.0,0.0,0.0,-2.6691,-2.6623,-2.642,-2.659,-2.686,-2.7215,-2.7418,-2.7249,-2.6691,-2.7232,-2.735,-2.6996,-2.774,-3.004,-3.3694,-3.4438,-3.6197,-3.8633,-3.5825,-3.4235,-3.3525,-3.0939,-2.9499,-2.8838,-2.7503,-2.6996,-2.6894,-2.615,-2.6218,-2.6623,-2.6082,-2.5879,-2.5676,-2.4391,-2.3951,-2.3816,-2.2868,-2.2598,0.0,0.0,0.0,-2.532,-2.9025,-3.1041,-3.2869,-3.64,-3.8159,-3.9715,-4.255,-4.3633,-4.4344,-4.5432,-4.5229,-4.4993,-4.5534,-4.5974,-4.6041,-4.55,-4.5263,-4.4722,-4.3544,-4.324,-4.2929,-4.2354,-4.2286,-4.2286,-4.2286,-4.2117,-4.2016,-4.2016,-4.1339,-4.0933,-4.0933,-4.0417,-4.0113,-4.0113,-4.0113,-4.0113,-4.0113,-4.0113,-4.0113,-4.0113,-4.0113,-4.0113,-4.0113,-4.0113,-4.0113,-4.0113,-4.0113,-4.0113,-4.0113,-4.0113,-4.0113,-4.0113,-4.0113,-4.0451,-4.0933,-4.0933,-4.1373,-4.2016,0.0,0.0,0.0,0.0,0.0,0.0,0.0,0.0,0.0,0.0,0.0,-2.6691,-2.6691,-2.6691,-2.6691,-2.6691,-2.6691,-2.6387,-2.5694,-2.6319,-2.642,-2.5728,-2.6387,0.0,-2.6691,-2.6725,-2.7097,-2.7756,-2.8552,-3.0838,-3.4438,-3.5194,-3.7493,-4.0933,-3.8667,-3.6468,-3.4336,-3.2801,-3.209,-3.1819,-2.8924,-2.7756,-2.7655,-2.6928,-2.6657,-2.6691,-2.6657,-2.6623,-2.6522,-2.5744,-2.5507,-2.5236,-2.3816,-2.3342,-2.3207,0.0,0.0,0.0,-2.6505,-2.9059,-3.1461,-3.2429,-3.5847,-3.9039,-3.9242,-4.0899,-4.2422,-4.2523,-4.2489,-4.2489,-4.2523,-4.3735,-4.4716,-4.4682,-4.4012,-4.3477,-4.3409,-4.2794,-4.232,-4.2286,-4.2286,-4.2286,-4.2286,-4.1677,-4.1271,-4.1271,-4.0561,-4.018,-4.018,-4.0113,-4.0113,-4.0113,-4.0113,-4.0113,-4.0113,-4.0113,-4.0113,-4.0113,-4.0113,-4.0113,-4.0113,-4.0113,-4.0113,-4.0113,-4.0113,-4.0113,-4.0113,-4.0113,-4.0113,-4.0113,-4.0113,-4.0113,-4.018,-4.018,-4.0595,-4.1271,0.0,0.0,0.0,0.0,0.0,0.0,0.0,0.0,0.0,0.0,0.0,0.0,0.0,-2.8197,-2.8197,-2.8197,-2.7706,-2.7283,-2.7012,-2.6826,-2.6793,-2.7012,-2.7249,-2.7418,-2.7418,-2.7418,-2.73,-2.7097,-2.7875,-2.9668,-3.2408,-3.41,-3.5622,-3.6874,-3.6062,-3.6096,-3.6434,-3.2544,-3.1157,-3.1481,-2.9905,-2.8991,-2.8552,-2.8299,-2.8197,-2.813,-2.7604,-2.7418,-2.7215,-2.5998,-2.5592,-2.5439,-2.444,-2.3797,-2.3241,-2.2516,-2.3342,-2.4711,-2.571,-2.7452,-2.9431,-3.1157,-3.3173,-3.5069,-3.6502,-3.8565,-4.0324,-4.0798,-4.1644,-4.2286,-4.2286,-4.2726,-4.3098,-4.3098,-4.2861,-4.2523,-4.2049,-4.1779,-4.1407,-4.0959,-4.0891,-4.0891,-4.0891,-4.0629,-4.0493,-4.0493,-4.0248,-4.0113,-4.0113,-4.0113,-4.0113,-4.0113,-4.0113,-4.0113,-4.0113,-4.0113,-4.0113,-4.0113,-4.0113,-4.0113,-4.0113,-4.0113,-4.0113,-4.0113,-4.0113,-4.0113,-4.0113,-4.0113,-4.0113,-4.0113,-4.0113,-4.0113,-4.0113,-4.0113,-4.0282,-4.0493,0.0,0.0,0.0,-2.6691,0.0,-2.6759,-2.7029,-2.7063,-2.7334,-2.8112,0.0,0.0,0.0,0.0,-2.901,-2.901,-2.8518,-2.8213,-2.8213,-2.774,-2.7672,-2.818,-2.8213,-2.8213,-2.8213,-2.8213,-2.7841,-2.7063,-2.7841,-2.9228,-3.1224,-3.297,-3.4303,-3.5238,-3.4472,-3.525,-3.6941,-3.3728,-3.2476,-3.2544,-3.1055,-3.0311,-3.0093,-3.0093,-3.0093,-3.0025,-2.9499,-2.9161,-2.8669,-2.6911,-2.6336,-2.6167,-2.5169,-2.4372,-2.3646,-2.3173,-2.3917,-2.4982,-2.5473,-2.6674,-2.8365,-3.0615,-3.1582,-3.253,-3.4742,-3.64,-3.7686,-3.8439,-3.9783,-4.0899,-4.1136,-4.1373,-4.1711,-4.2219,-4.2083,-4.1745,-4.1271,-4.1001,-4.0629,-4.018,-4.0113,-4.0113,-4.0113,-4.0113,-4.0113,-4.0113,-4.0113,-4.0113,-4.0113,-4.0113,-4.0113,-4.0113,-3.9876,-3.974,-3.974,-3.974,-3.974,-3.974,-3.9977,-4.0113,-4.0113,-4.0113,-4.0113,-4.0113,-4.0113,-4.0113,-4.0113,-4.0113,-4.0113,-4.0113,-4.0113,-4.0113,-4.0113,-4.0113,-4.0113,-4.0113,-2.6691,-2.6691,-2.6708,-2.6725,-2.6725,-2.6996,-2.7722,-2.7858,-2.8128,-2.8942,0.0,0.0,0.0,0.0,0.0,-2.9111,-2.9077,-2.9044,-2.9044,-2.901,-2.901,-2.9044,-2.9044,-2.9044,-2.9044,-2.9044,-2.8619,-2.7858,-2.8619,-2.9754,-3.119,-3.1921,-3.385,-3.6558,-3.4404,-3.4235,-3.5566,-3.6299,-3.6231,-3.5295,-3.2408,-3.1684,-3.2361,-3.2327,-3.2361,-3.2361,-3.2327,-3.1887,-3.092,-2.8669,-2.7891,-2.7655,-2.6133,-2.5135,-2.4541,-2.4508,-2.5,-2.5592,0.0,0.0,0.0,-3.0514,-3.1089,-3.1664,-3.3795,-3.4336,-3.4607,-3.5329,-3.6738,-3.8024,-3.8768,-3.9537,-4.0485,-4.1914,-4.161,-4.117,-4.117,-4.0527,-4.0113,-4.0113,-4.0113,-4.0113,-4.0113,-4.0113,-4.0113,-4.0113,-4.0079,-4.0079,-4.0079,-4.0045,-4.0045,-4.0045,-3.9343,-3.8971,-3.8971,-3.8971,-3.9005,-3.9005,-3.9774,-4.0113,-4.0113,-4.0113,-4.0113,-4.0113,-4.0113,-4.0113,-4.0113,-4.0113,-4.0113,-4.0113,-4.0113,-4.0113,-4.0113,-4.0113,-4.0113,-4.0113,-2.6691,-2.6691,-2.686,-2.7384,-2.7486,-2.7756,-2.8552,-2.8671,-2.8924,0.0,0.0,0.0,-3.1345,-3.1867,-3.1968,-3.1413,-3.0905,-3.0345,-2.9837,-2.9314,-2.9247,-2.977,-2.9803,-2.9803,-2.9803,-2.9803,-2.9431,-2.8671,-2.8908,-2.9465,0.0,0.0,-3.2226,-3.3546,-3.3998,-3.4134,-3.3943,-3.3119,-3.3525,-3.4641,-3.2767,-3.2767,-3.3829,-3.3288,-3.3423,-3.3816,-3.3288,-3.2949,-3.2544,-3.0818,-3.0243,-2.9905,-2.7824,-2.6302,-2.5203,-2.4643,-2.5,-2.5592,-2.5592,0.0,0.0,0.0,0.0,0.0,-2.9514,-3.092,-3.2307,-3.3051,-3.4404,-3.5825,-3.7168,-3.7574,-3.8014,-3.8971,-3.9851,-4.0417,-4.0417,-4.0248,-4.0113,-4.0113,-4.0113,-4.0113,-4.0113,-4.0113,-4.0113,0.0,-3.9605,-3.9276,-3.9276,-3.8802,-3.8497,-3.8497,-3.8294,-3.8193,-3.8193,-3.8734,-3.9005,-3.9005,-3.9774,-4.0113,-4.0113,-4.0113,-4.0113,-4.0113,-4.0113,-4.0113,-4.0113,-4.0113,-4.0113,-4.0113,-4.0113,-4.0113,-4.0113,-4.0113,-4.0113,-4.0113,-2.6691,-2.6962,-2.7402,-2.818,-2.8822,-2.9499,-3.0262,-3.0635,-3.0987,0.0,0.0,0.0,-3.2713,0.0,-3.3897,-3.2848,-3.207,-3.1481,-3.1055,-3.0311,-3.0127,-3.0548,-3.0548,-3.0548,-3.0548,-3.0548,-3.0209,-2.9465,0.0,0.0,0.0,0.0,0.0,-3.1887,-3.2747,-3.2882,-3.2442,-3.1562,-3.2476,-3.4438,-3.3897,-3.437,-3.5453,-3.5656,-3.5994,-3.6299,-3.5893,-3.5757,-3.5385,-3.2949,-3.1495,-3.0412,-2.8432,-2.7655,-2.7199,-2.5812,-2.6387,0.0,0.0,0.0,0.0,-2.8349,0.0,0.0,-2.8534,-2.9277,-3.0006,-3.077,-3.209,-3.3512,-3.4697,-3.5441,-3.596,-3.64,-3.7743,-3.8826,-3.914,-3.9174,-3.9174,-3.9174,-3.9174,-3.9174,-3.9174,-3.9174,-3.9174,-3.9174,-3.8768,-3.8531,-3.8531,-3.8125,-3.7922,-3.7922,-3.7584,-3.7449,-3.7449,-3.7855,-3.8227,-3.8531,-3.9276,-3.9808,-4.0113,-4.0113,-4.0113,-4.0113,-4.0113,-4.0113,-4.0113,-4.0113,-4.0113,-4.0113,-4.0113,-4.0113,-4.0113,-4.0113,-4.0113,-4.0113,0.0,-2.7368,-2.8094,-2.9077,-3.0311,-3.1495,-3.2429,-3.3085,-3.3592,0.0,-3.3931,0.0,0.0,0.0,0.0,0.0,-3.3051,-3.2496,-3.2429,-3.1819,-3.1393,-3.1326,-3.1393,-3.136,-3.119,-3.1258,-3.0954,0.0,0.0,0.0,0.0,0.0,0.0,0.0,-3.119,-3.119,-3.119,-3.136,-3.2577,-3.4438,-3.516,-3.6062,-3.7066,-3.8362,-3.8937,-3.9005,-3.9005,-3.9005,-3.8464,-3.4979,-3.2239,-3.0142,-2.8838,-2.9142,-2.96,-2.7638,-2.8518,0.0,0.0,0.0,0.0,-3.048,-2.9127,0.0,-2.9364,-2.8838,-2.8196,-2.8755,-2.9905,-3.1089,-3.1887,-3.3186,-3.4134,-3.4134,-3.5441,-3.6761,-3.7652,-3.7855,-3.7922,-3.7922,-3.7922,-3.7922,-3.7922,-3.7922,-3.7922,-3.7922,-3.7821,-3.7753,-3.7652,-3.7628,-3.7628,-3.7628,-3.7009,-3.666,-3.666,-3.6761,-3.7178,-3.7922,-3.8633,-3.9402,-4.0113,-4.0113,-4.0113,-4.0113,-4.0113,-4.0113,-4.0113,-4.0113,-4.0113,-4.0113,-4.0113,-4.0113,-4.0113,-4.0113,-4.0113,-4.0113,-2.7452,-2.7689,-2.8432,-3.0412,-3.0987,-3.1833,-3.3761,-3.4167,-3.4709,-3.5983,-3.7178,0.0,0.0,0.0,0.0,0.0,-3.5216,-3.3829,-3.322,-3.3051,-3.2713,-3.2124,-3.2645,-3.2408,-3.1224,-3.1785,-3.1718,-3.0987,0.0,0.0,0.0,0.0,0.0,0.0,-3.119,-3.119,-3.1292,-3.2476,-3.322,-3.3694,-3.4404,-3.5893,-3.7719,-3.8024,-3.8497,-3.9005,-3.9005,-3.9005,-3.87,-3.6772,-3.4257,-3.1921,-3.2239,-3.0886,-2.9247,-2.9397,-2.9751,-3.0021,-2.9717,-3.0074,-3.0345,-2.9619,-3.033,0.0,-2.7943,-2.8552,-2.9345,-2.8263,-2.8263,-2.8872,-3.0277,-3.1258,-3.1833,-3.1833,-3.3085,-3.4742,-3.6761,-3.7516,-3.7922,-3.7922,-3.7922,-3.7922,-3.7922,-3.7922,-3.7922,-3.7922,-3.7347,-3.6738,-3.6073,-3.6039,-3.6039,-3.6039,-3.5904,-3.5836,-3.5836,-3.6468,-3.7178,-3.7922,-3.8633,-3.9402,-4.0113,-4.0113,-4.0113,-4.0113,-4.0113,-4.0113,-4.0113,-4.0113,-4.0113,-4.0113,-4.0113,-4.0113,-4.0113,-4.0113,-4.0113,-4.0113,-2.7722,-2.8432,-2.9649,-3.1901,-3.2916,-3.4032,-3.5893,-3.6502,-3.7144,-3.8285,-4.0417,0.0,-4.073,-4.0324,0.0,0.0,0.0,0.0,0.0,-3.3592,-3.3254,-3.2848,-3.3186,-3.3051,-3.2307,-3.2293,-3.2124,-3.1752,0.0,0.0,0.0,0.0,0.0,0.0,-3.119,-3.119,-3.1258,-3.2374,-3.3051,-3.3558,-3.5453,-3.6874,-3.8024,-3.914,-3.9546,-3.9605,-3.9952,-3.9614,-3.8768,-3.7303,-3.5814,-3.429,-3.278,-3.2307,-3.2002,-3.0548,-3.0886,-3.1475,-3.0412,-3.0649,-3.1089,-3.0736,-3.0635,0.0,0.0,-2.8416,-2.8416,-2.8416,-2.7807,-2.774,-2.9262,-2.9837,-3.0093,-3.0093,-3.1326,-3.2713,-3.385,-3.4945,-3.5656,-3.5656,-3.5656,-3.5656,-3.5656,-3.5656,-3.5656,-3.5656,-3.5318,-3.5081,-3.5047,-3.5047,-3.5194,-3.56,-3.56,-3.56,-3.56,-3.5994,-3.6772,-3.7922,-3.8261,-3.9039,-4.0113,-4.0113,-4.0113,-4.0113,-4.0113,-4.0113,-4.0113,-4.0113,-4.0113,-4.0113,-4.0113,-4.0113,-4.0113,-4.0113,-4.0113,-4.0113,-2.806,-2.9161,-3.0818,-3.3017,-3.4484,-3.5904,-3.7449,-3.843,-3.9368,-4.0383,-4.2787,-4.3504,-4.1238,-4.1644,-4.1068,-3.8522,0.0,0.0,-3.5588,-3.4607,-3.3931,-3.3626,-3.3761,-3.3694,-3.3423,-3.297,-3.2666,-3.2496,0.0,0.0,0.0,0.0,0.0,0.0,0.0,-3.163,-3.1664,-3.2429,-3.3152,-3.4044,-3.6806,-3.7821,-3.7922,-3.9986,-4.0392,-3.9977,-4.073,-4.0223,-3.9005,-3.7675,-3.7134,-3.6491,-3.3457,-3.3829,-3.4856,-3.2171,-3.2544,-3.3491,-3.1833,-3.1935,-3.2476,-3.253,-3.1515,-3.0398,0.0,0.0,0.0,-2.8619,-2.7774,-2.7232,-2.8367,-2.8671,-2.8671,-2.84,-2.9721,-3.0649,-3.0378,-3.1596,-3.2713,-3.3152,-3.3051,-3.3051,-3.3186,-3.3186,-3.3254,-3.3389,-3.3423,-3.366,-3.4269,-3.4269,-3.4573,-3.516,-3.5295,-3.5397,-3.5397,-3.5532,-3.6377,-3.7922,-3.7753,-3.8531,-4.0113,-3.9943,-3.9977,-4.0113,-4.0113,-4.0113,-4.0113,-4.0113,-4.0113,-4.0113,-4.0113,-4.0113,-4.0113,-4.0113,-4.0113,-4.0113,-2.901,-2.9533,-3.0818,-3.3017,-3.4066,-3.5148,-3.6694,-3.8115,-3.9715,-4.1779,-4.2929,-4.3673,-4.4073,-4.2422,-4.1982,-4.3565,-3.9986,-3.8135,-3.9386,-3.755,-3.5814,-3.4438,-3.5013,-3.4721,-3.3423,-3.3964,-3.3931,-3.3288,-3.2564,0.0,0.0,0.0,0.0,-3.2192,-3.2848,-3.3152,-3.322,-3.3931,-3.4675,-3.5498,-3.7212,-3.7516,-3.71,-3.8667,-3.9174,-3.9208,-3.9977,-4.0113,-3.9842,-3.9005,-3.8328,-3.7719,-3.728,-3.5994,-3.481,-3.578,-3.5723,-3.543,-3.5893,-3.6569,-3.6535,-3.3931,-3.4607,-3.473,-3.0161,0.0,-3.0973,-2.8432,0.0,-2.7519,-2.7063,0.0,0.0,-2.6218,-2.7807,-2.8773,-2.7402,-2.8536,-3.0228,-3.2192,-3.1853,-3.1698,-3.2361,-3.2429,-3.2699,-3.3355,-3.3423,-3.3457,-3.3525,-3.3525,-3.3558,-3.366,-3.4269,-3.4607,-3.4607,-3.5261,-3.6377,-3.7889,-3.7246,-3.8048,-4.0079,-3.9436,-3.9503,-4.0113,-4.0113,-4.0113,-4.0113,-4.0113,-4.0113,-4.0113,-4.0113,-4.0113,-4.0113,-4.0113,-4.0113,-4.0113,-2.9702,-3.0243,-3.1427,-3.366,-3.4303,-3.5306,-3.7709,-4.0451,-4.2448,-4.2895,-4.4728,-4.5974,-4.5872,-4.4654,-4.3842,-4.391,-4.1407,-3.9715,-3.9478,-3.8193,0.0,-3.6502,-3.6366,-3.5994,-3.5385,-3.4776,-3.4336,-3.4032,-3.3288,0.0,0.0,0.0,0.0,-3.2949,-3.3254,-3.3423,-3.3491,-3.4641,-3.5081,-3.5148,-3.711,-3.7449,-3.7066,-3.9377,-4.029,-4.0257,-4.0146,-4.0113,-3.991,-3.8734,-3.8734,-3.8937,-3.7652,-3.7178,-3.7077,-3.6863,-3.6558,-3.6265,-3.6129,-3.6671,-3.684,-3.5092,-3.4742,-3.4134,-3.1515,-3.0635,-3.0262,-2.9871,0.0,0.0,0.0,0.0,0.0,0.0,-2.7977,-2.8078,-2.7418,-2.7537,-2.8333,-3.0161,-3.0127,0.0,-3.0364,-3.0398,-3.0499,-3.0818,-3.1258,-3.1664,-3.2104,-3.251,-3.2949,-3.3389,-3.41,-3.4506,-3.4506,-3.5228,-3.6163,-3.7246,-3.6965,-3.7743,-3.9445,-3.914,-3.9377,-4.0079,-3.9673,-3.9706,-4.0079,-3.9639,-3.9706,-4.0113,-4.0113,-4.0113,-4.0113,-4.0113,-4.0113,-4.0113,-3.0717,-3.1123,-3.207,-3.3863,-3.4539,-3.5757,-3.8565,-4.1136,-4.2828,-4.3064,-4.5026,-4.6481,-4.6752,-4.6515,-4.6177,-4.5872,-4.4316,-4.2726,-4.1238,-3.9851,-3.8768,-3.7956,-3.7381,-3.71,-3.71,-3.5791,-3.5115,-3.5115,-3.4167,-3.3694,0.0,0.0,0.0,0.0,-3.4134,-3.4336,-3.4404,-3.569,-3.6062,-3.5859,-3.755,-3.799,-3.7912,-3.9851,-4.073,-4.0832,-4.0282,-4.0113,-3.9943,-3.887,-3.9208,-3.9808,-3.8217,-3.8319,-3.8836,-3.798,-3.7574,-3.7313,-3.6941,-3.7246,-3.7438,-3.6231,-3.4957,-3.3694,-3.2564,-3.121,-3.0398,-3.1055,-3.0649,0.0,0.0,0.0,0.0,0.0,0.0,-2.7655,-2.7249,-2.6928,-2.7199,-2.8518,-2.8653,-2.8653,0.0,-2.8653,-2.8773,-2.8976,-2.9499,-3.0108,-3.0852,-3.1413,-3.2036,-3.278,-3.3694,-3.4201,-3.4201,-3.5126,-3.5994,-3.6795,-3.6592,-3.7246,-3.87,-3.8464,-3.8826,-3.9503,-3.914,-3.9276,-3.9774,-3.9436,-3.9639,-4.0113,-4.0113,-4.0113,-4.0113,-4.0113,-4.0113,-4.0113,-3.2226,-3.2259,-3.253,-3.3288,-3.4619,-3.6343,-3.8633,-3.8497,-3.914,-4.1948,-4.2422,-4.3572,-4.6481,-4.7428,-4.8984,-5.1758,-4.9999,-4.8139,-4.665,-4.3775,-4.0865,-3.8024,-3.7889,-3.7855,-3.7855,-3.711,-3.6728,-3.6728,-3.5204,-3.4438,0.0,0.0,0.0,0.0,-3.6017,-3.6694,-3.6761,-3.7516,-3.8227,-3.887,-3.8937,-3.9402,-3.9943,-3.9309,-3.9537,-4.0146,-4.0113,-4.0113,-4.0079,-4.0045,-4.0079,-4.0079,-4.0011,-3.9537,-3.9106,-3.9808,-3.9503,-3.9073,-3.9774,-3.9977,-3.9469,-3.7303,-3.6129,-3.4957,-3.2801,-3.278,-3.2882,-3.1461,-3.2307,-3.2611,-3.0514,0.0,0.0,0.0,0.0,0.0,0.0,-2.6251,-2.6996,-2.7756,-2.7858,-2.7858,-2.7858,-2.7858,-2.8162,-2.8942,-2.901,-2.9364,-3.0108,-3.0176,-3.0514,-3.1258,-3.2679,-3.3457,-3.3457,-3.4856,-3.5994,-3.6795,-3.6028,-3.6445,-3.7922,-3.7202,-3.7246,-3.8024,-3.87,-3.9005,-3.9073,-3.9774,-4.0079,-4.0113,-4.0113,-4.0113,-4.0113,-4.0113,-4.0113,-4.0113,-3.3017,-3.3423,-3.3829,-3.4066,-3.4539,-3.5791,-3.8565,-4.002,-4.2049,-4.5568,-4.6853,-4.8984,-5.2976,-5.3213,-5.3687,-5.5141,-5.2773,-5.0338,-4.8376,-4.594,-4.3639,-4.1617,-4.0603,-3.9851,-3.9352,-3.8633,-3.8024,-3.7516,-3.6502,-3.6017,0.0,0.0,0.0,0.0,-3.6332,-3.6795,-3.6931,-3.8633,-3.9242,-3.9039,-3.9537,-4.0485,-4.1433,-4.0214,-3.9876,-4.0113,-4.0113,-4.0113,-4.0113,-4.0113,-4.0113,-4.0113,-4.0113,-3.9943,-3.9774,-4.0045,-3.991,-3.9774,-4.0045,-4.0113,-3.9706,-3.7956,-3.6941,-3.5926,-3.4134,-3.3931,-3.3863,-3.2848,-3.3051,-3.3017,-3.1765,0.0,0.0,0.0,0.0,0.0,0.0,-2.6522,-2.6793,-2.7029,-2.7063,-2.7063,-2.7063,-2.7063,-2.7165,-2.7453,-2.7943,-2.8552,-2.9348,-2.9837,-3.0649,-3.1887,-3.2882,-3.3626,-3.41,-3.5092,-3.5735,-3.5994,-3.5735,-3.6163,-3.7144,-3.6931,-3.7472,-3.8599,-3.8396,-3.8836,-3.9706,-3.9445,-3.9673,-4.0113,-4.0113,-4.0113,-4.0113,-4.0113,-4.0113,-4.0087,-3.3829,-3.4404,-3.481,-3.4539,-3.5148,-3.6535,-3.9005,-4.1711,-4.4654,-4.7868,-4.9796,-5.2604,-5.7103,-5.6934,-5.7002,-5.8287,-5.6359,-5.3585,-5.0033,-4.8714,-4.6684,-4.3544,-4.276,-4.1914,-4.0899,-4.0426,-3.9546,-3.8294,-3.8091,-3.7686,0.0,0.0,0.0,0.0,-3.684,-3.7178,-3.7313,-3.9276,-3.9817,-3.9411,-3.991,-4.0688,-4.1407,-4.0451,-4.0417,-4.0823,-4.0282,-4.0113,-4.0113,-4.0113,-4.0113,-4.0113,-4.0113,-4.0113,-4.0113,-4.0113,-4.0113,-4.0113,-4.0113,-4.0113,-3.9808,-3.8599,-3.7719,-3.6772,-3.525,-3.5115,-3.5013,-3.3998,-3.4235,-3.4303,-3.3275,0.0,0.0,0.0,0.0,0.0,0.0,-2.6691,-2.6691,-2.6691,-2.6691,-2.6691,-2.6691,-2.6691,-2.6691,-2.6691,-2.7131,-2.7875,-2.8942,-2.9431,-3.0514,-3.2259,-3.3017,-3.3761,-3.4472,-3.5228,-3.56,-3.56,-3.56,-3.6028,-3.6795,-3.6795,-3.7472,-3.8599,-3.8396,-3.8836,-3.9706,-3.9503,-3.9673,-4.0113,-4.0113,-4.0113,-4.0113,-4.0113,-4.0113,-4.0087,-3.4742,-3.5216,-3.5498,-3.4844,-3.6502,-3.8464,-3.9943,-4.3301,-4.6549,-4.8917,-5.1183,-5.4262,-5.8761,-5.8592,-5.9032,-6.1231,-6.0655,-5.7712,-5.1895,-5.2131,-4.9864,-4.4018,-4.4451,-4.4107,-4.2489,-4.2388,-4.1271,-3.9106,-3.9749,-3.9318,0.0,0.0,0.0,0.0,-3.7618,-3.7956,-3.8058,-3.9537,-4.0146,-4.018,-4.018,-4.0214,-4.0214,-4.0146,-4.1027,-4.2117,-4.062,-4.0113,-4.0113,-4.0113,-4.0113,-4.0113,-4.0113,-4.0113,-4.0113,-4.0113,-4.0113,-4.0113,-4.0113,-4.0113,-3.9943,-3.9208,-3.8497,-3.7584,-3.6107,-3.6366,-3.6491,-3.5001,-3.5814,-3.6355,-3.481,0.0,0.0,0.0,0.0,0.0,0.0,-2.6759,-2.6759,-2.6759,-2.6725,-2.6691,-2.6691,-2.6691,-2.6691,-2.6691,-2.6691,-2.7385,-2.8908,-2.901,-3.0025,-3.2293,-3.3017,-3.3761,-3.4539,-3.5228,-3.5633,-3.5667,-3.5667,-3.6096,-3.6863,-3.6863,-3.7246,-3.799,-3.87,-3.9005,-3.9106,-3.9808,-4.0113,-4.0113,-4.0113,-4.0113,-4.0113,-4.0113,-4.0113,-4.0087,-3.6254,-3.6806,-3.7415,-3.7787,-3.8328,-3.9208,-4.0696,-4.3639,-4.7293,-5.1758,-5.4735,-5.7949,-6.1941,-6.2178,-6.2313,-6.2888,-6.1738,-5.9607,-5.6393,-5.5344,-5.3112,-4.9359,-4.8342,-4.6921,-4.4857,-4.3707,-4.232,-4.0629,-3.9715,-3.9106,-3.87,0.0,0.0,0.0,0.0,-3.8734,-3.8802,-4.029,-4.0933,-4.0967,-4.1508,-4.1711,-4.161,-4.0519,-4.1027,-4.2117,-4.062,-4.0113,-4.0113,-4.0113,-4.0113,-4.0113,-4.0113,-4.0113,-4.0113,-4.0113,-4.0113,-4.0113,-4.0113,-4.0113,-4.0045,-3.9876,-3.9242,-3.8599,-3.8227,-3.8294,-3.8159,-3.7212,-3.6907,-3.6524,-3.552,0.0,0.0,0.0,0.0,0.0,0.0,-2.7519,-2.7519,-2.7519,-2.7029,-2.6691,-2.6691,-2.6691,-2.6691,-2.6691,-2.6691,-2.7385,-2.8908,0.0,-3.0262,-3.3017,-3.3322,-3.4032,-3.5318,-3.5498,-3.5926,-3.6468,-3.6468,-3.6874,-3.7618,-3.7618,-3.8024,-3.8734,-3.8903,-3.9309,-3.9842,-4.0011,-4.0113,-4.0113,-4.0113,-4.0113,-4.0113,-4.0113,-4.0037,-3.9935,-3.7371,-3.8125,-3.8971,-3.9436,-4.0832,-4.232,-4.347,-4.5365,-4.8443,-5.3348,-5.6258,-5.893,-6.1704,-6.2618,-6.3159,-6.3497,-6.2448,-6.0689,-5.8051,-5.7442,-5.5513,-5.186,-5.0574,-4.8781,-4.6244,-4.5026,-4.3369,-4.1204,-4.0696,-4.0087,-3.9469,0.0,0.0,0.0,0.0,-3.9005,-3.9073,-4.0223,-4.1068,-4.1644,-4.1407,-4.1508,0.0,-4.0553,-4.062,-4.123,-4.0417,-4.0113,-4.0113,-4.0113,-4.0113,-4.0113,-4.0113,-4.0113,-4.0113,-4.0113,-4.0113,-4.0113,-4.0113,-4.0113,-4.0113,-4.0113,-3.9808,-3.9377,-3.9073,-3.9005,-3.8802,-3.8058,-3.7584,-3.7043,-3.6265,0.0,0.0,0.0,0.0,0.0,0.0,-2.8315,-2.8315,-2.8315,-2.7943,-2.7571,-2.7232,-2.6894,-2.6691,-2.6691,-2.6996,-2.7706,-2.8942,0.0,-3.0683,-3.3322,-3.3728,-3.4438,-3.56,-3.6276,-3.6671,-3.6795,-3.7134,-3.7652,-3.8396,-3.8396,-3.8768,-3.9503,-3.9503,-3.974,-4.0113,-4.0113,-4.0113,-4.0113,-4.0113,-4.0113,-4.0113,-4.0113,-4.0062,-3.9961,-3.8217,-3.9309,-4.035,-4.0282,-4.3335,-4.621,-4.7327,-4.8342,-5.0405,-5.4499,-5.7137,-5.9066,-6.0283,-6.1772,-6.2854,-6.3328,-6.2854,-6.1332,-5.8524,-5.8761,-5.7171,-5.3078,-5.1995,-5.0135,-4.7158,-4.6177,-4.4282,-4.1339,-4.1779,-4.1365,-4.0079,0.0,0.0,0.0,0.0,-3.914,-3.9174,-3.9943,-4.0993,-4.2049,-4.0756,-4.0629,-4.1136,-4.0383,-4.0113,-4.0113,-4.0214,-4.018,-4.0113,-4.0113,-4.0113,-4.0113,-4.0214,-4.018,-4.0113,-4.0214,-4.018,-4.0113,-4.0113,-4.0113,-4.0113,-4.0113,-4.0113,-3.9943,-3.9276,-3.914,-3.8937,-3.8328,-3.8125,-3.7821,-3.71,0.0,0.0,0.0,0.0,-3.0142,-2.9382,-2.9213,-2.9145,-2.9145,-2.9077,0.0,-2.8162,-2.7334,-2.6826,-2.6826,-2.7418,-2.8196,0.0,0.0,-3.1123,-3.3322,-3.4032,-3.4844,-3.587,-3.7144,-3.7584,-3.7235,-3.7787,-3.843,-3.914,-3.914,-3.9503,-4.0113,-4.0113,-4.0113,-4.0113,-4.0113,-4.0113,-4.0113,-4.0113,-4.0113,-4.0113,-4.0087,-4.0087,-4.0037,-3.886,-4.046,-4.1711,-4.1102,-4.4113,-4.7665,-5.0845,-5.3044,-5.5074,-5.7036,-6.0351,-6.2381,-6.2042,-6.3328,-6.3768,-6.2685,-6.3024,-6.2584,-6.0825,-5.9641,-5.8118,-5.6089,-5.416,-5.1691,-4.868,-4.6718,-4.4519,-4.2117,-4.1027,-4.035,-4.0113,0.0,0.0,0.0,0.0,0.0,-3.9977,-4.0696,-4.117,-4.1373,-4.1102,-4.1068,-4.1136,-4.0383,-4.0113,-4.018,-4.0798,-4.0595,-4.0113,-4.0113,-4.0113,-4.0214,-4.0832,-4.0595,-4.0214,-4.0832,-4.0561,-4.0113,-4.0113,-4.0113,-4.0113,-4.0113,-4.0113,-4.0079,-3.9943,-3.991,-3.9876,-3.974,-3.9208,-3.8565,-3.7855,0.0,0.0,0.0,-3.2408,-3.1684,-3.092,-3.0277,-2.9905,-2.9905,-2.9364,-2.9179,-2.9668,-2.8432,-2.7621,-2.7621,-2.7722,-2.8432,0.0,0.0,-3.1123,0.0,-3.3525,-3.4844,0.0,0.0,-3.7821,-3.9521,-3.9039,-3.9174,-3.991,-3.991,-3.9977,-4.0113,-4.0113,-4.0113,-4.0113,-4.0113,-4.0113,-4.0113,-4.0113,-4.0113,-4.0087,-3.9961,-3.9935,-3.991,-4.1367,-4.1978,-4.2874,-4.4418,-4.6786,-4.9763,-5.3518,-5.6292,-5.7949,-5.7915,-5.9133,-6.0047,-6.0047,-6.2076,-6.3159,-6.2448,-6.2719,-6.2618,-6.1907,-6.008,-5.8524,-5.7408,-5.4871,-5.2266,-4.9627,-4.7022,-4.479,-4.2861,-4.1001,-4.0113,-4.0113,0.0,0.0,-4.0113,0.0,-4.0316,0.0,-4.1035,-4.1644,-4.232,-4.1914,-4.2016,-4.2252,-4.1508,-4.1264,-4.1297,-4.1644,-4.1542,-4.1196,-4.0798,-4.0663,-4.0663,-4.0629,-4.0629,-4.0663,-4.0629,-4.0629,-4.0595,-4.0214,-4.0113,-4.0113,-4.0113,-4.0113,-4.0113,-4.0113,-4.0113,-4.0113,-4.0113,-3.9842,-3.9233,-3.8125,-3.6366,0.0,-3.41,-3.3355,-3.2611,-3.1887,-3.1481,-3.1089,-3.0717,-3.0345,-3.0108,-3.0108,-2.9413,-2.8838,-2.845,-2.877,-2.9311,0.0,0.0,-3.1529,0.0,0.0,0.0,-3.7313,0.0,-3.8464,-3.9546,-3.9546,-3.9774,-4.0113,-4.0113,-4.0113,-4.0113,-4.0113,-4.0113,-4.0113,-4.0113,-4.0113,-4.0113,-4.0113,-4.0062,-3.9986,-3.991,-3.9807,-3.9685,-4.3994,-4.3865,-4.4659,-4.78,-5.0135,-5.2503,-5.548,-5.8457,-5.9945,-5.8761,-5.8389,-5.8389,-5.8795,-6.1264,-6.2719,-6.2415,-6.2516,-6.2482,-6.2178,-6.0047,-5.8457,-5.7679,-5.5006,-5.2435,-5.0135,-4.753,-4.5263,-4.3375,-4.1339,-4.0248,-4.0113,0.0,0.0,0.0,0.0,-4.0493,-4.1204,-4.1204,-4.2049,-4.3341,-4.2591,-4.2726,-4.3308,-4.2591,-4.2286,-4.232,-4.2489,-4.2523,-4.2455,-4.188,-4.1576,-4.1373,-4.0933,-4.1068,-4.1339,-4.0959,-4.1102,-4.1305,-4.0756,-4.0587,-4.0553,-4.0383,-4.035,-4.0282,-4.0146,-4.0113,-4.0113,-4.0113,-3.9977,-3.9537,-3.8362,-3.6907,0.0,-3.5081,-3.4235,-3.3423,-3.2869,-3.2496,-3.209,-3.1495,-3.1292,-3.0954,-3.0412,-3.0345,-3.0074,-2.9517,-2.9871,-3.0176,-3.0345,0.0,0.0,0.0,0.0,-3.5216,-3.7269,0.0,-3.9005,-3.9478,-3.991,-4.0113,-4.0113,-4.0113,-4.0113,-4.0113,-4.0113,-4.0113,-4.0113,-4.0113,-4.0113,-4.0113,-4.0087,-3.9986,-3.9884,-3.9866,-3.9685,-3.9501,-4.545,-4.6632,-4.7902,-4.9593,-5.3382,-5.6292,-5.663,-5.9268,-6.1129,-6.0994,-6.211,-6.2651,-6.2042,-6.3429,-6.3869,-6.2516,-6.3024,-6.2854,-6.1501,-5.9268,-5.7679,-5.6934,-5.4735,-5.2435,-5.0135,-4.8511,-4.6283,-4.3375,-4.1847,-4.073,-4.0113,-4.0113,0.0,0.0,-4.0113,-4.0493,-4.1204,-4.1204,-4.2049,-4.3341,-4.2591,-4.2726,-4.3308,-4.2591,-4.2286,-4.2388,-4.3064,-4.3301,-4.3274,-4.3206,-4.276,-4.2286,-4.2895,-4.2692,-4.232,-4.2929,-4.2658,-4.2185,-4.2117,-4.2083,-4.1914,-4.1271,-4.1102,-4.0933,-4.0248,-4.0113,-4.0113,-4.0113,-3.9571,-3.9039,-3.8903,-3.7709,-3.666,0.0,-3.5374,-3.437,-3.4303,-3.3139,-3.2259,-3.2226,-3.1616,-3.1157,-3.1089,-3.1089,-3.1055,-3.0987,-3.0446,-3.0412,0.0,0.0,0.0,-3.3355,-3.3491,-3.5216,-3.8768,-3.8261,-3.9005,-4.1001,-4.0392,-4.0113,-4.0113,-4.0113,-4.0113,-4.0113,-4.0113,-4.0113,-4.0113,-4.0113,-4.0113,-4.0087,-3.9961,-3.9884,-3.9858,-3.9633,-3.9528,-3.9475,-4.863,-4.9059,-5.0331,-5.3585,-5.4871,-5.6393,-5.9099,-6.052,-6.1298,-6.1298,-6.1806,-6.2245,-6.2381,-6.2922,-6.3024,-6.2448,-6.2651,-6.2584,-6.2009,-5.9844,-5.822,-5.7476,-5.5344,-5.3078,-5.0811,-4.9323,-4.7124,-4.4113,-4.3064,-4.1914,-4.0764,-4.0764,-4.0493,-4.0113,-4.0561,-4.0933,-4.1271,-4.2151,-4.2834,-4.3436,-4.3606,-4.387,-4.4079,-4.3802,-4.3701,-4.3735,-4.4012,-4.4113,-4.4113,-4.4113,-4.3606,-4.2929,-4.2794,-4.2828,-4.2929,-4.2794,-4.2861,-4.2861,-4.2422,-4.2286,-4.2219,-4.1914,-4.1542,-4.1136,-4.0832,-4.0417,-4.0113,-4.0113,-3.9876,-3.9512,-3.9073,-3.8159,-3.7313,-3.6863,0.0,-3.5013,-3.4539,-3.3964,-3.3309,-3.2395,-3.2056,-3.1684,-3.1224,-3.119,-3.136,-3.1819,-3.119,-3.0886,0.0,0.0,0.0,-3.3389,0.0,-3.5893,-3.8328,-3.8497,-3.9242,-4.0527,-4.0248,-4.0113,-4.0113,-4.0113,-4.0113,-4.0113,-4.0113,-4.0113,-4.0113,-4.0113,-4.0113,-4.0113,-4.0037,-3.991,-3.9755,-3.9651,-3.9528,-3.9395,-5.1856,-5.2038,-5.324,-5.6872,-5.7075,-5.7616,-6.0486,-6.1163,-6.1298,-6.1298,-6.1298,-6.1569,-6.2313,-6.2381,-6.2381,-6.2381,-6.2381,-6.2212,-6.1738,-6.0013,-5.849,-5.7306,-5.5547,-5.3619,-5.1589,-5.0067,-4.797,-4.5258,-4.4248,-4.2895,-4.1204,-4.1204,-4.1035,-4.079,-4.1271,-4.1644,-4.1914,-4.2936,-4.3511,-4.3809,-4.435,-4.4615,-4.4615,-4.4615,-4.4615,-4.4615,-4.4615,-4.4615,-4.4615,-4.4615,-4.4215,-4.3673,-4.3132,-4.3335,-4.3639,-4.3132,-4.3335,-4.3639,-4.3098,-4.299,-4.2895,-4.2692,-4.2219,-4.1745,-4.1305,-4.0798,-4.0383,-4.0146,-4.0113,-3.9943,-3.9436,-3.8734,-3.799,-3.7246,0.0,0.0,-3.4945,-3.4641,-3.41,-3.3072,-3.2767,-3.2429,-3.1901,-3.1833,-3.207,-3.2598,-3.2138,0.0,0.0,0.0,0.0,0.0,0.0,0.0,-3.7889,-3.8633,-3.9368,-4.0113,-4.0113,-4.0113,-4.0113,-4.0113,-4.0113,-4.0113,-4.0113,-4.0113,-4.0113,-4.0113,-4.0113,-4.0113,-4.0062,-3.991,-3.9703,-3.9651,-3.9494,-3.9315,-5.4754,-5.5823,-5.6884,-5.8885,-6.0517,-6.1227,-6.0254,-6.0791,-6.1298,-6.1298,-6.1298,-6.1569,-6.2313,-6.2381,-6.2381,-6.2381,-6.2381,-6.1738,-6.0216,-5.9438,-5.8051,-5.5817,-5.5006,-5.3856,-5.2334,-5.0845,-4.8984,-4.6752,-4.5326,-4.3403,-4.1204,-4.1204,-4.1576,-4.2252,-4.2286,-4.2692,-4.3375,-4.3375,-4.3876,-4.4581,-4.4615,-4.4615,-4.4615,-4.4615,-4.4615,-4.4615,-4.4615,-4.4615,-4.4615,-4.4615,-4.4615,-4.4581,-4.4581,-4.4581,-4.4581,-4.4581,-4.4581,-4.4581,-4.4581,-4.4581,-4.4378,-4.3606,-4.3375,-4.297,-4.1542,-4.1204,-4.0967,-4.0248,-4.0113,-4.0113,-4.0079,-3.9503,-3.8734,-3.8024,0.0,0.0,0.0,-3.4979,-3.4472,-3.4472,-3.3829,-3.3389,-3.3389,-3.3389,-3.3389,-3.3389,-3.3389,0.0,0.0,0.0,0.0,-3.4438,-3.5216,0.0,-3.7889,-3.8633,-3.9368,-4.0113,-4.0113,-4.0113,-4.0113,-4.0113,-4.0113,-4.0113,-4.0113,-4.0113,-4.0113,-4.0113,-4.0113,-4.0087,-3.9935,-3.9807,-3.9677,-3.9554,-3.9422,-3.9315,-5.6711,-5.767,-5.8549,-5.9191,-6.0031,-6.0461,-6.0148,-6.0791,-6.1095,-6.0554,-6.096,-6.14,-6.1637,-6.1637,-6.1434,-6.0892,-6.0825,-6.0622,-6.0148,-5.893,-5.7712,-5.6494,-5.5243,-5.3856,-5.2334,-5.1352,-4.9763,-4.7564,-4.709,-4.5703,-4.3504,-4.2963,-4.2557,-4.232,-4.2828,-4.32,-4.3443,-4.3978,-4.4378,-4.4615,-4.4615,-4.4615,-4.4615,-4.4615,-4.4615,-4.4615,-4.4615,-4.4615,-4.4615,-4.4615,-4.4615,-4.4615,-4.4615,-4.4615,-4.4615,-4.4615,-4.4615,-4.4615,-4.4615,-4.4615,-4.4547,-4.4282,-4.3809,-4.3274,-4.2801,-4.1948,-4.1001,-4.0248,-4.0113,-4.0113,-4.0113,-3.9503,-3.8768,-3.8024,-3.728,0.0,-3.5701,-3.5397,-3.5081,-3.4539,-3.4303,-3.3964,-3.3457,-3.3423,-3.3626,-3.41,-3.3694,0.0,0.0,0.0,0.0,0.0,-3.6479,0.0,-3.8633,-3.9377,-3.9876,-4.0113,-4.0113,-4.0113,-4.0113,-4.0113,-4.0113,-4.0113,-4.0113,-4.0113,-4.0113,-4.0113,-4.0113,-4.0113,-4.0062,-3.991,-3.977,-4.0194,-4.0234,-4.0111,-5.8016,-5.8834,-5.9473,-5.9327,-6.0065,-6.0427,-5.9776,-6.0351,-6.0588,-5.981,-6.0114,-6.0554,-6.0825,-6.0858,-6.0892,-6.096,-6.096,-6.0723,-6.0148,-5.9235,-5.8017,-5.6461,-5.5513,-5.4296,-5.2773,-5.1995,-5.0811,-4.9123,-4.8037,-4.6786,-4.5427,-4.4621,-4.4181,-4.4012,-4.4485,-4.4519,-4.4316,-4.479,-4.4852,-4.4615,-4.4615,-4.4615,-4.4615,-4.4615,-4.4615,-4.4615,-4.4615,-4.4615,-4.4615,-4.4615,-4.4615,-4.4615,-4.4615,-4.4615,-4.4615,-4.4615,-4.4615,-4.4615,-4.4615,-4.4615,-4.4615,-4.4615,-4.4215,-4.3775,-4.3443,-4.2489,-4.1407,-4.0688,-4.0493,-4.0451,-4.0146,-3.974,-3.9174,-3.843,-3.7686,-3.6941,-3.6163,-3.5769,-3.543,-3.4979,-3.5182,-3.5047,-3.4281,-3.4506,-3.4742,0.0,0.0,0.0,0.0,0.0,-3.525,-3.6028,-3.7516,-3.8531,-3.9005,-3.974,-4.0113,-4.0113,-4.0383,-4.0493,-4.0493,-4.0823,-4.0925,-4.0925,-4.0925,-4.079,-4.0493,-4.0493,-4.035,-4.0146,-4.0341,-4.0288,-4.018,-4.0896,-4.0972,-4.0779,-5.8668,-5.9389,-5.9727,-5.9295,-6.0449,-6.0849,-5.9204,-5.9573,-5.9776,-5.9032,-5.8998,-5.9268,-5.9945,-6.0013,-6.0622,-6.211,-6.2245,-6.1603,-6.0114,-5.9945,-5.8626,-5.5817,-5.5615,-5.4905,-5.3551,-5.2706,-5.1928,-5.115,-4.8308,-4.6921,-4.6853,-4.6109,-4.6143,-4.6786,-4.6786,-4.6413,-4.5771,-4.5771,-4.5365,-4.475,-4.4716,-4.4682,-4.4682,-4.4615,-4.4615,-4.4615,-4.4615,-4.4615,-4.4615,-4.4615,-4.4615,-4.4615,-4.4682,-4.4682,-4.4682,-4.4615,-4.4615,-4.4615,-4.4615,-4.4615,-4.4615,-4.4615,-4.4615,-4.4412,-4.3606,-4.2861,-4.2151,-4.1441,-4.1238,-4.1001,-4.0316,-4.0146,-3.9876,-3.9106,-3.8396,-3.7652,-3.6965,-3.6197,-3.5701,-3.5735,0.0,0.0,-3.5836,-3.64,-3.6502,0.0,0.0,0.0,0.0,0.0,-3.6197,-3.6931,-3.8261,-3.9005,-3.9073,-3.9774,-4.0146,-4.018,-4.0933,-4.1271,-4.1305,-4.1982,-4.2286,-4.2286,-4.2286,-4.1914,-4.1271,-4.1245,-4.0865,-4.029,-4.0853,-4.099,-4.0956,-4.1527,-4.1654,-4.1409,-5.8771,-5.9283,-5.9411,-5.8581,-5.9115,-5.9272,-5.8287,-5.8795,-5.8998,-5.8254,-5.866,-5.9099,-5.9268,-5.9268,-5.9641,-6.0554,-6.0655,-6.025,-5.9336,-5.822,-5.7036,-5.5784,-5.4634,-5.3856,-5.3518,-5.2706,-5.1657,-5.0371,-4.9086,-4.8206,-4.7631,-4.6887,-4.6616,-4.6786,-4.6786,-4.6684,-4.6549,-4.6549,-4.6413,-4.621,-4.5669,-4.5432,-4.5365,-4.479,-4.4615,-4.4615,-4.4615,-4.4615,-4.4615,-4.4615,-4.4615,-4.4716,-4.5263,-4.5432,-4.5331,-4.4784,-4.4615,-4.4615,-4.4615,-4.4615,-4.4615,-4.4615,-4.4615,-4.4412,-4.3606,-4.324,-4.2929,-4.2185,-4.1576,-4.117,-4.0967,-4.0485,-3.9876,-3.9106,-3.8396,-3.7855,-3.7652,-3.6975,-3.6705,0.0,-3.7516,-3.755,-3.7381,-3.7009,-3.6941,0.0,0.0,-3.7066,-3.7618,-3.799,-3.8261,-3.8464,-3.8802,-3.9276,-3.9842,-4.0011,-4.0383,-4.0933,-4.1677,-4.2049,-4.2049,-4.2219,-4.2286,-4.2286,-4.2286,-4.2185,-4.2016,-4.1943,-4.1789,-4.1627,-4.1695,-4.1598,-4.1561,-4.2232,-4.2385,-4.2274,-5.8701,-5.8903,-5.8861,-5.8167,-5.8598,-5.8761,-5.8017,-5.8524,-5.8761,-5.7983,-5.8254,-5.8626,-5.8964,-5.9032,-5.9302,-6.0047,-6.0114,-5.9641,-5.8558,-5.7746,-5.6664,-5.5277,-5.4431,-5.3856,-5.3518,-5.3078,-5.2097,-5.0608,-5.0202,-4.9458,-4.8409,-4.8003,-4.78,-4.78,-4.78,-4.7631,-4.7293,-4.7293,-4.7124,-4.6752,-4.6346,-4.621,-4.6143,-4.5737,-4.563,-4.563,-4.563,-4.563,-4.563,-4.563,-4.563,-4.5698,-4.6075,-4.621,-4.6109,-4.5703,-4.563,-4.563,-4.563,-4.5331,-4.5026,-4.4682,-4.4615,-4.4513,-4.4045,-4.3944,-4.3741,-4.2963,-4.2219,-4.161,-4.1271,-4.0595,-3.9977,-3.9571,-3.887,-3.8396,-3.8396,-3.7753,-3.7449,-3.7855,-3.8193,-3.8261,-3.7922,-3.7821,-3.7821,-3.7889,-3.7821,0.0,-3.8396,-3.9411,-3.9681,-3.9005,-3.9309,-3.9876,-4.0595,-4.0959,-4.1331,-4.1711,-4.2455,-4.2794,-4.2828,-4.3166,-4.3362,-4.3362,-4.3362,-4.3132,-4.2767,-4.2665,-4.2408,-4.2112,-4.2228,-4.2222,-4.2237,-4.2879,-4.3057,-4.3002,-5.8561,-5.849,-5.8384,-5.7954,-5.8423,-5.8626,-5.7983,-5.8423,-5.8626,-5.7983,-5.7881,-5.8118,-5.8795,-5.8829,-5.9099,-5.9708,-5.9776,-5.9268,-5.8118,-5.7949,-5.6934,-5.4871,-5.4668,-5.4262,-5.3518,-5.3518,-5.2807,-5.1386,-5.1219,-5.0507,-4.9154,-4.9052,-4.9018,-4.9018,-4.912,-4.8815,-4.821,-4.8345,-4.797,-4.7293,-4.7158,-4.7056,-4.6955,-4.6819,-4.6786,-4.6786,-4.6786,-4.6786,-4.6786,-4.6786,-4.6786,-4.6819,-4.6921,-4.6955,-4.6989,-4.709,-4.7124,-4.709,-4.6853,-4.6346,-4.5703,-4.506,-4.4953,-4.4953,-4.4953,-4.4953,-4.4716,-4.391,-4.3166,-4.2388,-4.1508,-4.0764,-4.0248,-4.0113,-3.9503,-3.9039,-3.914,0.0,-3.8125,-3.8227,-3.8768,-3.8903,-3.8294,-3.8802,-3.8903,-3.8294,-3.8903,-3.9343,-3.9343,-4.0629,-4.0798,-3.9546,-4.0113,-4.073,-4.1373,-4.2083,-4.2455,-4.2489,-4.3234,-4.3606,-4.3606,-4.4282,-4.4615,-4.4615,-4.4615,-4.4215,-4.3578,-4.344,-4.2986,-4.2454,-4.2751,-4.287,-4.2907,-4.3426,-4.3598,-4.3499,-5.8561,-5.849,-5.8384,-5.7954,-5.7983,-5.8017,-5.7915,-5.7983,-5.8017,-5.7915,-5.7881,-5.7915,-5.8051,-5.8051,-5.8118,-5.822,-5.822,-5.8389,-5.8795,-5.8254,-5.7171,-5.5615,-5.4938,-5.4262,-5.3518,-5.3518,-5.3044,-5.2131,-5.1522,-5.0777,-4.9898,-4.9289,-4.9018,-4.9018,-4.9661,-4.9864,-4.9796,-5.0439,-5.027,-4.9526,-4.8917,-4.8308,-4.7665,-4.7022,-4.6786,-4.6786,-4.6786,-4.6786,-4.6786,-4.6786,-4.6786,-4.6921,-4.753,-4.7733,-4.7868,-4.8477,-4.8646,-4.8376,-4.7124,-4.6718,-4.6583,-4.6481,-4.6447,-4.6447,-4.6447,-4.6447,-4.6244,-4.55,-4.4756,-4.3802,-4.2388,-4.1542,-4.0832,-4.0214,-3.9503,-3.9208,-3.9842,0.0,-3.9039,-3.9673,-3.9876,-3.9876,-3.9774,-3.9851,-3.9884,-3.9774,-4.0426,-4.0865,-4.0865,-4.1677,-4.2016,-4.1779,-4.188,-4.2016,-4.2117,-4.2861,-4.3234,-4.324,-4.4012,-4.4384,-4.4445,-4.4547,-4.4615,-4.4615,-4.4615,-4.4547,-4.4384,-4.4215,-4.4006,-4.3791,-4.3723,-4.361,-4.3462,-4.3565,-4.3598,-4.3565,-5.8561,-5.849,-5.8384,-5.7954,-5.7881,-5.7881,-5.7881,-5.7881,-5.7881,-5.7881,-5.7881,-5.7881,-5.7881,-5.7881,-5.7881,-5.7881,-5.7881,-5.8017,-5.8389,-5.7712,-5.6664,-5.5175,-5.4769,-5.4262,-5.3518,-5.3518,-5.3112,-5.23,-5.1961,-5.142,-5.0676,-5.0338,-5.0202,-5.0202,-5.0135,-5.0101,-5.0101,-5.0473,-5.0405,-5.0067,-4.9729,-4.939,-4.9018,-4.8274,-4.797,-4.797,-4.797,-4.8003,-4.8003,-4.8003,-4.8003,-4.8037,-4.8409,-4.8511,-4.8578,-4.8917,-4.9018,-4.8748,-4.7699,-4.7394,-4.7293,-4.6887,-4.6786,-4.6786,-4.6786,-4.6786,-4.6684,-4.6346,-4.5365,-4.4378,-4.3667,-4.2252,-4.1204,-4.1297,-4.035,-3.9851,-4.0595,-4.0392,-4.0324,-4.0629,-4.1035,-4.1297,-4.1297,-4.1271,-4.1271,-4.1297,-4.1576,-4.1779,-4.1779,-4.2489,-4.2895,-4.2895,-4.2895,-4.2895,-4.2895,-4.3673,-4.4045,-4.4045,-4.4445,-4.4615,-4.4615,-4.4615,-4.4615,-4.4615,-4.4615,-4.4615,-4.4587,-4.4384,-4.4241,-4.4068,-4.3956,-4.378,-4.3568,-4.3204,-4.3082,-4.2988,-5.8631,-5.8561,-5.8455,-5.8027,-5.7954,-5.7954,-5.7918,-5.7881,-5.7881,-5.7881,-5.7881,-5.7881,-5.7881,-5.7881,-5.7881,-5.7881,-5.7881,-5.7881,-5.7881,-5.7374,-5.6393,-5.4905,-5.4532,-5.4093,-5.3518,-5.3518,-5.3213,-5.257,-5.2401,-5.2029,-5.1454,-5.1285,-5.1185,-5.1151,-5.0777,-5.0608,-5.0608,-5.0811,-5.0777,-5.0608,-5.0608,-5.0507,-5.027,-4.9526,-4.9255,-4.9221,-4.9052,-4.9018,-4.9018,-4.9018,-4.912,-4.9255,-4.9255,-4.9255,-4.9289,-4.9458,-4.9526,-4.9323,-4.8379,-4.8173,-4.8037,-4.7462,-4.7293,-4.7293,-4.7293,-4.7293,-4.7259,-4.709,-4.6143,-4.5263,-4.4919,-4.3267,-4.2049,-4.2252,0.0,-4.073,-4.1136,-4.1339,-4.1474,-4.1474,-4.1948,-4.2286,-4.2286,-4.2455,-4.2557,-4.2557,-4.2726,-4.2828,-4.2828,-4.3369,-4.3775,-4.3916,-4.3775,-4.3673,-4.3673,-4.4451,-4.4886,-4.4886,-4.5055,-4.5122,-4.5122,-4.4925,-4.4886,-4.4852,-4.4682,-4.4615,-4.4587,-4.444,-4.427,-4.4097,-4.3985,-4.3776,-4.3539,-4.2834,-4.2617,-4.2491,-5.8806,-5.8805,-5.8631,-5.8277,-5.8205,-5.8099,-5.7918,-5.7881,-5.7881,-5.7881,-5.7881,-5.7881,-5.7881,-5.7881,-5.7881,-5.7881,-5.7881,-5.7881,-5.7881,-5.7848,-5.7171,-5.5683,-5.4329,-5.3551,-5.3518,-5.3518,-5.3484,-5.3416,-5.2672,-5.2266,-5.2198,-5.1522,-5.1185,-5.1251,-5.186,-5.2131,-5.2198,-5.2942,-5.2807,-5.2131,-5.2131,-5.1725,-5.1048,-5.0304,-4.9999,-4.9932,-4.9255,-4.9018,-4.9018,-4.9018,-4.9458,-4.9999,-4.9999,-4.9999,-5.0135,-5.0845,-5.1048,-5.0744,-4.9323,-4.8917,-4.8917,-4.8849,-4.8849,-4.8849,-4.8849,-4.8849,-4.8646,-4.7939,-4.7703,-4.7229,-4.5872,-4.4925,-4.3904,-4.2523,0.0,0.0,-4.1305,-4.1779,-4.2219,-4.2219,-4.2252,-4.2286,-4.2286,-4.2929,-4.3308,-4.3308,-4.4012,-4.4445,-4.4445,-4.4479,-4.4823,-4.55,-4.4857,-4.4513,-4.4513,-4.5263,-4.5635,-4.5635,-4.6312,-4.6616,-4.6616,-4.594,-4.5635,-4.5568,-4.4919,-4.4615,-4.4615,-4.4587,-4.4384,-4.4097,-4.4097,-4.3894,-4.3539,-4.2834,-4.2617,-4.2491,-5.8806,-5.8805,-5.8701,-5.8455,-5.8312,-5.8171,-5.8099,-5.7954,-5.7881,-5.7881,-5.7881,-5.7881,-5.7881,-5.8321,-5.8592,-5.8592,-5.8998,-5.9066,-5.8626,-5.8998,-5.8389,-5.6461,-5.4972,-5.416,-5.416,-5.3721,-5.3518,-5.3518,-5.3179,-5.3044,-5.3044,-5.2773,-5.2638,-5.2638,-5.2401,-5.23,-5.2334,-5.2638,-5.257,-5.23,-5.23,-5.2131,-5.1826,-5.1082,-5.0777,-5.0744,-5.0473,-5.0371,-5.0371,-5.0371,-5.0574,-5.0777,-5.0777,-5.0777,-5.0845,-5.115,-5.1185,-5.105,-5.0541,-5.0371,-5.0371,-5.0371,-5.0033,-4.9661,-4.9661,-4.9323,-4.8917,-4.8646,-4.824,-4.7703,-4.7162,-4.6109,-4.5229,-4.5094,0.0,-4.3802,-4.3978,-4.4248,-4.4418,-4.4418,-4.479,-4.5094,-4.5094,-4.5331,-4.55,-4.55,-4.5771,-4.594,-4.594,-4.594,-4.6075,-4.638,-4.6109,-4.594,-4.594,-4.6244,-4.638,-4.638,-4.665,-4.6786,-4.6786,-4.6515,-4.6143,-4.5703,-4.5785,-4.5583,-4.5297,-4.5538,-4.532,-4.4767,-4.4649,-4.4205,-4.3446,-4.2332,-4.1917,-4.1754,-5.8875,-5.8875,-5.8806,-5.8631,-5.8419,-5.8277,-5.8207,-5.8027,-5.7881,-5.7881,-5.7881,-5.7881,-5.7881,-5.8558,-5.9032,-5.9032,-5.9674,-5.981,-5.9066,-5.9471,-5.8964,-5.7205,-5.5716,-5.4938,-5.4938,-5.4228,-5.3856,-5.3856,-5.3619,-5.3619,-5.3856,-5.3619,-5.3619,-5.3822,-5.3044,-5.2672,-5.2672,-5.2672,-5.2672,-5.2672,-5.2672,-5.2672,-5.2604,-5.1826,-5.1555,-5.1522,-5.1252,-5.1185,-5.1185,-5.1185,-5.1352,-5.1555,-5.1555,-5.1725,-5.1894,-5.1623,-5.1725,-5.1928,-5.1928,-5.1928,-5.1826,-5.132,-5.0845,-5.0439,-5.0439,-5.0067,-4.9695,-4.9695,-4.9289,-4.892,-4.892,-4.7733,-4.6819,-4.709,-4.6075,-4.5365,-4.5669,-4.5906,-4.6041,-4.6041,-4.6481,-4.6786,-4.6786,-4.6786,-4.6887,-4.7124,-4.6921,-4.6786,-4.6786,-4.6786,-4.6921,-4.7158,-4.7158,-4.7259,-4.7496,-4.7259,-4.7158,-4.7158,-4.7394,-4.7496,-4.7462,-4.7259,-4.6887,-4.6384,-4.6473,-4.6304,-4.5959,-4.6197,-4.5811,-4.508,-4.496,-4.4257,-4.3143,-4.1949,-4.136,-4.0992,-5.9012,-5.9012,-5.8944,-5.8806,-5.8631,-5.8455,-5.8207,-5.8027,-5.7881,-5.7881,-5.7881,-5.7881,-5.7881,-5.8558,-5.9032,-5.9032,-5.9674,-5.981,-5.9099,-5.9032,-5.8693,-5.7949,-5.6528,-5.5681,-5.5716,-5.5006,-5.46,-5.46,-5.3856,-5.389,-5.4566,-5.3856,-5.389,-5.4566,-5.3822,-5.3518,-5.3518,-5.3518,-5.3518,-5.3518,-5.3518,-5.3518,-5.3416,-5.2604,-5.23,-5.2198,-5.1488,-5.1219,-5.1219,-5.1219,-5.1725,-5.23,-5.23,-5.2875,-5.3348,-5.2536,-5.2875,-5.3518,-5.3518,-5.3518,-5.3145,-5.1591,-5.1185,-5.1217,-5.1217,-5.1185,-5.1185,-5.1185,-5.1185,-5.1185,-5.1185,-4.9999,-4.8781,-4.8071,-4.7293,-4.6549,-4.5838,-4.6346,-4.6819,-4.6819,-4.6819,-4.6819,-4.6819,-4.6819,-4.7124,-4.7838,-4.7225,-4.6819,-4.6819,-4.6819,-4.7158,-4.7872,-4.7906,-4.8244,-4.8984,-4.8274,-4.7906,-4.7906,-4.8646,-4.9018,-4.8984,-4.821,-4.7906,-4.7838,-4.6911,-4.6514,-4.6484,-4.6371,-4.5784,-4.4903,-4.4933,-4.3951,-4.2522,-4.1754,-4.106,-4.0374,-5.9012,-5.9012,-5.8978,-5.8944,-5.8806,-5.8631,-5.8455,-5.8241,-5.8063,-5.7918,-5.7881,-5.7881,-5.7881,-5.8558,-5.9235,-5.9742,-6.0486,-6.1061,-6.1366,-6.0385,-5.9945,-6.0283,-5.8321,-5.7002,-5.6494,-5.575,-5.5108,-5.46,-5.4905,-5.4905,-5.46,-5.4363,-5.4397,-5.4566,-5.3822,-5.3518,-5.3518,-5.3518,-5.3518,-5.3518,-5.3518,-5.3518,-5.3484,-5.3247,-5.3145,-5.3112,-5.2909,-5.2807,-5.2807,-5.2807,-5.2976,-5.3145,-5.3145,-5.3315,-5.345,-5.3213,-5.3315,-5.3518,-5.3518,-5.3518,-5.3382,-5.2942,-5.2401,-5.1961,-5.1961,-5.1589,-5.1185,-5.1185,-5.1185,-5.1185,-5.1185,-5.0813,-5.0304,-4.956,-4.9255,-4.8849,-4.8139,-4.8206,-4.8342,-4.8342,-4.8342,-4.8342,-4.8342,-4.8342,-4.8443,-4.868,-4.8477,-4.8342,-4.8342,-4.8342,-4.8443,-4.868,-4.868,-4.8781,-4.9018,-4.8781,-4.868,-4.868,-4.8883,-4.9018,-4.8984,-4.8781,-4.8409,-4.7906,-4.79,-4.7637,-4.7261,-4.7426,-4.6481,-4.5043,-4.595,-4.4493,-4.1883,-4.2162,-4.15,-4.0374,-5.9012,-5.9012,-5.9012,-5.9012,-5.8909,-5.8736,-5.8525,-5.8348,-5.8099,-5.7918,-5.7881,-5.7881,-5.7881,-5.8558,-5.9302,-6.0047,-6.0858,-6.1603,-6.2347,-6.1264,-6.0791,-6.1298,-5.9979,-5.8761,-5.7712,-5.6664,-5.5919,-5.548,-5.5649,-5.5649,-5.5446,-5.5175,-5.5175,-5.5412,-5.4397,-5.4093,-5.4329,-5.3754,-5.3687,-5.3923,-5.3619,-5.3518,-5.3518,-5.3518,-5.3518,-5.3518,-5.3518,-5.3518,-5.3518,-5.3518,-5.3518,-5.3518,-5.3518,-5.3518,-5.3518,-5.3518,-5.3518,-5.3518,-5.3518,-5.3518,-5.3518,-5.3518,-5.3145,-5.2773,-5.2773,-5.2435,-5.2131,-5.2131,-5.2131,-5.2131,-5.2131,-5.186,-5.1488,-5.1048,-5.071,-5.027,-4.9526,-4.9424,-4.9323,-4.9052,-4.9018,-4.912,-4.939,-4.9187,-4.912,-4.9424,-4.9424,-4.9424,-4.9424,-4.9154,-4.912,-4.9424,-4.9154,-4.9154,-4.9424,-4.9154,-4.9018,-4.9018,-4.9018,-4.9018,-4.9018,-4.9018,-4.8781,-4.8345,-4.844,-4.8279,-4.7941,-4.7996,-4.6782,-4.4984,-4.5799,-4.4041,-4.1156,-4.1596,-4.1059,-4.0021,-5.9012,-5.9012,-5.9012,-5.9012,-5.8909,-5.8736,-5.8525,-5.8382,-5.8271,-5.8019,-5.8051,-5.8051,-5.8017,-5.8592,-5.9302,-6.0047,-6.0892,-6.167,-6.2347,-6.1772,-6.14,-6.14,-6.1332,-6.0622,-5.9133,-5.7712,-5.6934,-5.6799,-5.619,-5.6224,-5.6799,-5.6122,-5.6156,-5.6731,-5.531,-5.5074,-5.558,-5.4262,-5.4059,-5.4532,-5.3856,-5.3551,-5.3518,-5.3518,-5.3518,-5.3518,-5.3518,-5.3518,-5.3518,-5.3518,-5.3551,-5.3585,-5.3518,-5.3551,-5.3585,-5.3518,-5.3551,-5.3585,-5.3518,-5.3551,-5.3585,-5.3518,-5.3518,-5.3518,-5.3518,-5.3518,-5.3518,-5.3518,-5.3518,-5.3518,-5.3518,-5.2909,-5.2367,-5.23,-5.1758,-5.1048,-5.0304,-5.0202,-4.9932,-4.9289,-4.9221,-4.9458,-5.0135,-4.9593,-4.9492,-5.0135,-5.0202,-5.0202,-5.0202,-4.956,-4.9492,-5.0168,-4.956,-4.9526,-5.0168,-4.9458,-4.9086,-4.9018,-4.9018,-4.9018,-4.9018,-4.9018,-4.8984,-4.8954,-4.8642,-4.8483,-4.8452,-4.8131,-4.6717,-4.4819,-4.4853,-4.3121,-4.0501,-4.057,-4.0086,-3.9373,-5.9012,-5.9012,-5.9012,-5.9012,-5.8978,-5.884,-5.8561,-5.8967,-5.9162,-5.8798,-5.9268,-5.9404,-5.8829,-5.893,-5.9302,-6.0047,-6.1366,-6.2212,-6.2381,-6.2245,-6.2144,-6.2144,-6.1603,-6.0858,-5.9877,-5.8998,-5.7983,-5.6799,-5.7205,-5.7205,-5.6799,-5.663,-5.6664,-5.6765,-5.5852,-5.5547,-5.5647,-5.5378,-5.4972,-5.4566,-5.4431,-5.4025,-5.3518,-5.3518,-5.3518,-5.3518,-5.3518,-5.3518,-5.3518,-5.3518,-5.389,-5.4262,-5.3687,-5.389,-5.4262,-5.3687,-5.3923,-5.4228,-5.3653,-5.3923,-5.4228,-5.3653,-5.3518,-5.3518,-5.3518,-5.3518,-5.3518,-5.3518,-5.3518,-5.3518,-5.3518,-5.3382,-5.3044,-5.2401,-5.2164,-5.1792,-5.1082,-5.098,-5.0913,-5.0744,-5.0744,-5.0811,-5.0947,-5.0845,-5.0811,-5.0947,-5.098,-5.098,-5.098,-5.0811,-5.0811,-5.098,-5.0811,-5.0811,-5.098,-5.0236,-4.956,-4.9018,-4.9018,-4.9018,-4.9018,-4.9018,-4.8956,-4.8832,-4.8578,-4.842,-4.826,-4.8066,-4.668,-4.4782,-4.5364,-4.3476,-4.0486,-4.1137,-4.0548,-3.9373,-5.9012,-5.9012,-5.9012,-5.9012,-5.9012,-5.8875,-5.8561,-5.8832,-5.8927,-5.8527,-5.8795,-5.8896,-5.8524,-5.8795,-5.9302,-6.0047,-6.0825,-6.1298,-6.1298,-6.1298,-6.1298,-6.1298,-6.0926,-6.0385,-5.9607,-5.9201,-5.8457,-5.7306,-5.7712,-5.7679,-5.7306,-5.7306,-5.7306,-5.7273,-5.6562,-5.6427,-5.6697,-5.6021,-5.5683,-5.5581,-5.4871,-5.4363,-5.3991,-5.3619,-5.3721,-5.3991,-5.3619,-5.3518,-5.3518,-5.3518,-5.3754,-5.4025,-5.3619,-5.3754,-5.3991,-5.3619,-5.4025,-5.4499,-5.4126,-5.4566,-5.4938,-5.4194,-5.4025,-5.3923,-5.3585,-5.3518,-5.3518,-5.3518,-5.3518,-5.3518,-5.3518,-5.3518,-5.3382,-5.2942,-5.2875,-5.2604,-5.1826,-5.1725,-5.1589,-5.1251,-5.1185,-5.1185,-5.1185,-5.1894,-5.2164,-5.1758,-5.1725,-5.1725,-5.1725,-5.1386,-5.1386,-5.1725,-5.1386,-5.1386,-5.1725,-5.0642,-4.9898,-4.9526,-4.9187,-4.9018,-4.9018,-4.9018,-4.8956,-4.8894,-4.861,-4.8452,-4.8324,-4.8099,-4.6677,-4.4725,-4.5109,-4.3274,-4.0434,-4.0879,-4.0341,-3.9373,-5.9012,-5.9012,-5.9012,-5.9012,-5.9116,-5.9116,-5.8767,-5.8936,-5.8963,-5.8567,-5.8629,-5.8626,-5.849,-5.8896,-5.9438,-6.0047,-6.0114,-6.0148,-6.0283,-6.0182,-6.0114,-6.0114,-6.0114,-5.9742,-5.9032,-5.9133,-5.8761,-5.7881,-5.7881,-5.7881,-5.7881,-5.7881,-5.7881,-5.7848,-5.7273,-5.734,-5.7814,-5.6596,-5.6292,-5.6528,-5.5277,-5.4634,-5.4329,-5.3721,-5.3957,-5.4499,-5.3923,-5.3788,-5.389,-5.389,-5.3957,-5.4059,-5.3923,-5.3957,-5.4059,-5.3923,-5.4397,-5.4938,-5.4803,-5.5243,-5.5547,-5.4769,-5.4499,-5.4262,-5.3653,-5.3518,-5.3518,-5.3518,-5.3518,-5.3518,-5.3518,-5.3518,-5.3518,-5.3518,-5.3518,-5.3281,-5.2604,-5.2503,-5.23,-5.1691,-5.1589,-5.1589,-5.1589,-5.2773,-5.3213,-5.257,-5.2503,-5.2503,-5.2503,-5.1928,-5.1894,-5.2503,-5.1928,-5.1894,-5.2503,-5.1117,-5.0441,-5.0441,-4.9531,-4.9058,-4.8987,-4.8987,-4.8956,-4.8829,-4.861,-4.8452,-4.8388,-4.7968,-4.664,-4.4843,-4.461,-4.2963,-4.0726,-4.0606,-4.0068,-3.9439,-5.9012,-5.9012,-5.9012,-5.9012,-5.9599,-5.9943,-5.9732,-6.0649,-6.132,-6.1095,-6.1481,-6.1535,-6.0926,-6.0317,-5.9979,-6.008,-6.0114,-6.0385,-6.1095,-6.0486,-6.0114,-6.0114,-6.0114,-5.9742,-5.9032,-5.9641,-5.9268,-5.7881,-5.7881,-5.7881,-5.7881,-5.7881,-5.7881,-5.7881,-5.778,-5.7814,-5.7881,-5.7679,-5.6934,-5.5852,-5.5649,-5.4803,-5.3653,-5.3551,-5.3957,-5.4566,-5.4465,-5.4871,-5.5412,-5.5412,-5.5852,-5.6258,-5.5615,-5.5852,-5.6224,-5.5615,-5.5919,-5.6359,-5.5716,-5.5649,-5.5547,-5.4769,-5.4126,-5.3619,-5.3518,-5.3518,-5.3518,-5.3518,-5.3518,-5.3518,-5.3518,-5.3518,-5.3518,-5.3518,-5.3518,-5.345,-5.3348,-5.3348,-5.3315,-5.3213,-5.3179,-5.3179,-5.3179,-5.3382,-5.345,-5.3348,-5.3348,-5.3348,-5.3348,-5.3247,-5.3247,-5.3348,-5.3247,-5.3247,-5.3348,-5.2303,-5.1832,-5.1798,-5.0255,-4.928,-4.8832,-4.8832,-4.8644,-4.8324,-4.8452,-4.8324,-4.8033,-4.727,-4.6416,-4.5435,-4.4184,-4.303,-4.2081,-4.1482,-4.0457,-3.9463,-5.9012,-5.9012,-5.915,-5.9599,-5.9944,-6.0115,-5.9939,-6.0724,-6.1163,-6.0569,-6.0993,-6.1219,-6.0913,-6.0054,-5.9505,-5.9505,-5.9099,-5.8998,-5.937,-5.9066,-5.8863,-5.8863,-5.8863,-5.8727,-5.8389,-5.8693,-5.8558,-5.7881,-5.8321,-5.8287,-5.7881,-5.7881,-5.7881,-5.7881,-5.7881,-5.7881,-5.7881,-5.7881,-5.7509,-5.69,-5.6494,-5.5919,-5.531,-5.4905,-5.5209,-5.5818,-5.5818,-5.5784,-5.5681,-5.5681,-5.5919,-5.6156,-5.5783,-5.5919,-5.6122,-5.5818,-5.6224,-5.6731,-5.6393,-5.663,-5.6664,-5.5513,-5.4972,-5.4532,-5.3687,-5.3822,-5.4126,-5.4126,-5.4126,-5.4228,-5.4668,-5.4397,-5.4126,-5.4126,-5.3788,-5.3518,-5.3518,-5.3518,-5.3518,-5.3518,-5.3518,-5.3518,-5.3518,-5.3518,-5.3518,-5.3518,-5.3518,-5.3518,-5.3518,-5.3518,-5.3518,-5.3518,-5.3518,-5.3518,-5.3518,-5.2573,-5.2102,-5.2102,-5.0291,-4.9389,-4.9248,-4.8811,-4.8515,-4.8356,-4.7902,-4.7638,-4.7404,-4.655,-4.5733,-4.4968,-4.4284,-4.3373,-4.2321,-4.1662,-4.1025,-4.0546]},{"header":{"parameterUnit":"m.s-1","parameterCategory":1,"la1":30.6,"la2":28.766,"lo1":-90.7593,"lo2":-88.6598,"dy":0.0162,"dx":0.0183,"nx":116,"ny":114,"refTime":"2024-04-05T00:00:00:Z","depth":0,"parameterNumber":3,"parameterNumberName":"V-component_of_WINDS"},"data":[0.0,0.0,0.0,0.0,0.0,0.0,0.0,0.0,0.0,0.0,0.0,0.0,0.0,0.0,0.0,0.0,0.0,0.0,0.0,0.0,0.0,0.0,0.0,0.0,0.0,0.0,0.0,0.0,0.0,0.0,0.0,0.0,0.0,0.0,0.0,0.0,0.0,0.0,0.0,0.0,0.0,0.0,0.0,0.0,0.0,0.0,0.0,0.0,0.0,0.0,0.0,0.0,0.0,0.0,0.0,0.0,0.0,0.0,0.0,0.0,0.0,0.0,0.0,0.0,0.0,0.0,0.0,0.0,0.0,0.0,0.0,0.0,0.0,0.0,0.0,0.0,0.0,0.0,0.0,0.0,0.0,0.0,0.0,0.0,0.0,0.0,0.0,0.0,0.0,0.0,0.0,0.0,0.0,0.0,0.0,0.0,0.0,0.0,0.0,0.0,0.0,0.0,0.0,0.0,0.0,0.0,0.0,0.0,0.0,0.0,0.0,0.0,0.0,0.0,0.0,0.0,0.0,0.0,0.0,0.0,0.0,0.0,0.0,0.0,0.0,0.0,0.0,0.0,0.0,0.0,0.0,0.0,0.0,0.0,0.0,0.0,0.0,0.0,0.0,0.0,0.0,0.0,0.0,0.0,0.0,0.0,0.0,0.0,0.0,0.0,0.0,0.0,0.0,0.0,0.0,0.0,0.0,0.0,0.0,0.0,0.0,0.0,0.0,0.0,0.0,0.0,0.0,0.0,0.0,0.0,0.0,0.0,0.0,0.0,0.0,0.0,0.0,0.0,0.0,0.0,0.0,0.0,0.0,0.0,0.0,0.0,0.0,0.0,0.0,0.0,0.0,0.0,0.0,0.0,0.0,0.0,0.0,0.0,0.0,0.0,0.0,0.0,0.0,0.0,0.0,0.0,0.0,0.0,0.0,0.0,0.0,0.0,0.0,0.0,0.0,0.0,0.0,0.0,0.0,0.0,0.0,0.0,0.0,0.0,0.0,0.0,0.0,0.0,0.0,0.0,0.0,0.0,0.0,0.0,0.0,0.0,0.0,0.0,0.0,0.0,0.0,0.0,0.0,0.0,0.0,0.0,0.0,0.0,0.0,0.0,0.0,0.0,0.0,0.0,0.0,0.0,0.0,0.0,0.0,0.0,0.0,0.0,0.0,0.0,0.0,0.0,0.0,0.0,0.0,0.0,0.0,0.0,0.0,0.0,0.0,0.0,0.0,0.0,0.0,0.0,0.0,0.0,0.0,0.0,0.0,0.0,0.0,0.0,0.0,0.0,0.0,0.0,0.0,0.0,0.0,0.0,0.0,0.0,0.0,0.0,0.0,0.0,0.0,0.0,0.0,0.0,0.0,0.0,0.0,0.0,0.0,0.0,0.0,0.0,0.0,0.0,0.0,0.0,0.0,0.0,0.0,0.0,0.0,0.0,0.0,0.0,0.0,0.0,0.0,0.0,0.0,0.0,0.0,0.0,0.0,0.0,0.0,0.0,0.0,0.0,0.0,0.0,0.0,0.0,0.0,0.0,0.0,0.0,0.0,0.0,0.0,0.0,0.0,0.0,0.0,0.0,0.0,0.0,0.0,0.0,0.0,0.0,0.0,0.0,0.0,0.0,0.0,0.0,0.0,0.0,0.0,0.0,0.0,0.0,0.0,0.0,0.0,0.0,0.0,0.0,0.0,0.0,0.0,0.0,0.0,0.0,0.0,0.0,0.0,0.0,0.0,0.0,0.0,0.0,0.0,0.0,0.0,0.0,0.0,0.0,0.0,0.0,0.0,0.0,0.0,0.0,0.0,0.0,0.0,0.0,0.0,0.0,0.0,0.0,0.0,0.0,0.0,0.0,0.0,0.0,0.0,0.0,0.0,0.0,0.0,0.0,0.0,0.0,0.0,0.0,0.0,0.0,0.0,0.0,0.0,0.0,0.0,0.0,0.0,0.0,0.0,0.0,0.0,0.0,0.0,0.0,0.0,0.0,0.0,0.0,0.0,0.0,0.0,0.0,0.0,0.0,0.0,0.0,0.0,0.0,0.0,0.0,0.0,0.0,0.0,0.0,0.0,0.0,0.0,0.0,0.0,0.0,0.0,0.0,0.0,0.0,0.0,0.0,0.0,0.0,0.0,0.0,0.0,0.0,0.0,0.0,0.0,0.0,0.0,0.0,0.0,0.0,0.0,0.0,0.0,0.0,0.0,0.0,0.0,0.0,0.0,0.0,0.0,0.0,0.0,0.0,0.0,0.0,0.0,0.0,0.0,0.0,0.0,0.0,0.0,0.0,0.0,0.0,0.0,0.0,0.0,0.0,0.0,0.0,0.0,0.0,0.0,0.0,0.0,0.0,0.0,0.0,0.0,0.0,0.0,0.0,0.0,0.0,0.0,0.0,0.0,0.0,0.0,0.0,0.0,0.0,0.0,0.0,0.0,0.0,0.0,0.0,0.0,0.0,0.0,0.0,0.0,0.0,0.0,0.0,0.0,0.0,0.0,0.0,0.0,0.0,0.0,0.0,0.0,0.0,0.0,0.0,0.0,0.0,0.0,0.0,0.0,0.0,0.0,0.0,0.0,0.0,0.0,0.0,0.0,0.0,0.0,0.0,0.0,0.0,0.0,0.0,0.0,0.0,0.0,0.0,0.0,0.0,0.0,0.0,0.0,0.0,0.0,0.0,0.0,0.0,0.0,0.0,0.0,0.0,0.0,0.0,0.0,0.0,0.0,0.0,0.0,0.0,0.0,0.0,0.0,0.0,0.0,0.0,0.0,0.0,0.0,0.0,0.0,0.0,0.0,0.0,0.0,0.0,0.0,0.0,0.0,0.0,0.0,0.0,0.0,0.0,0.0,0.0,0.0,0.0,0.0,0.0,0.0,0.0,0.0,0.0,0.0,0.0,0.0,0.0,0.0,0.0,0.0,0.0,0.0,0.0,0.0,0.0,0.0,0.0,0.0,0.0,0.0,0.0,0.0,0.0,0.0,0.0,0.0,0.0,0.0,0.0,0.0,0.0,0.0,0.0,0.0,0.0,0.0,0.0,0.0,0.0,0.0,0.0,0.0,0.0,0.0,0.0,0.0,0.0,0.0,0.0,0.0,0.0,0.0,0.0,0.0,0.0,0.0,0.0,0.0,0.0,0.0,0.0,0.0,0.0,0.0,0.0,0.0,0.0,0.0,0.0,0.0,0.0,0.0,0.0,0.0,0.0,0.0,0.0,0.0,0.0,0.0,0.0,0.0,0.0,0.0,0.0,0.0,0.0,0.0,0.0,0.0,0.0,0.0,0.0,0.0,0.0,0.0,0.0,0.0,0.0,0.0,0.0,0.0,0.0,0.0,0.0,0.0,0.0,0.0,0.0,0.0,0.0,0.0,0.0,0.0,0.0,0.0,0.0,0.0,0.0,0.0,0.0,0.0,0.0,0.0,0.0,0.0,0.0,0.0,0.0,0.0,0.0,0.0,0.0,0.0,0.0,0.0,0.0,0.0,0.0,0.0,0.0,0.0,0.0,0.0,0.0,0.0,0.0,0.0,0.0,0.0,0.0,0.0,0.0,0.0,0.0,0.0,0.0,0.0,0.0,0.0,0.0,0.0,0.0,0.0,0.0,0.0,0.0,0.0,0.0,0.0,0.0,0.0,0.0,0.0,0.0,0.0,0.0,0.0,0.0,0.0,0.0,0.0,0.0,0.0,0.0,0.0,0.0,0.0,0.0,0.0,0.0,0.0,0.0,0.0,0.0,0.0,0.0,0.0,0.0,0.0,0.0,0.0,0.0,0.0,0.0,0.0,0.0,0.0,0.0,0.0,0.0,0.0,0.0,0.0,0.0,0.0,0.0,0.0,0.0,0.0,0.0,0.0,0.0,0.0,0.0,0.0,0.0,0.0,0.0,0.0,0.0,0.0,0.0,0.0,0.0,0.0,0.0,0.0,0.0,0.0,0.0,0.0,0.0,0.0,0.0,0.0,0.0,0.0,0.0,0.0,0.0,0.0,0.0,0.0,0.0,0.0,0.0,0.0,0.0,0.0,0.0,0.0,0.0,0.0,0.0,0.0,0.0,0.0,0.0,0.0,0.0,0.0,0.0,0.0,0.0,0.0,0.0,0.0,0.0,0.0,0.0,0.0,0.0,0.0,0.0,0.0,0.0,0.0,0.0,0.0,0.0,0.0,0.0,0.0,0.0,0.0,0.0,0.0,0.0,0.0,0.0,0.0,0.0,0.0,0.0,0.0,0.0,0.0,0.0,0.0,0.0,0.0,0.0,0.0,0.0,0.0,0.0,0.0,0.0,0.0,0.0,0.0,0.0,0.0,0.0,0.0,0.0,0.0,0.0,0.0,0.0,0.0,0.0,0.0,0.0,0.0,0.0,0.0,0.0,0.0,0.0,0.0,0.0,0.0,0.0,0.0,0.0,0.0,0.0,0.0,0.0,0.0,0.0,0.0,0.0,0.0,0.0,0.0,0.0,0.0,0.0,0.0,0.0,0.0,0.0,0.0,0.0,0.0,0.0,0.0,0.0,0.0,0.0,0.0,0.0,0.0,0.0,0.0,0.0,0.0,0.0,0.0,0.0,0.0,0.0,0.0,0.0,0.0,0.0,0.0,0.0,0.0,0.0,0.0,0.0,0.0,0.0,0.0,0.0,0.0,0.0,0.0,0.0,0.0,0.0,0.0,0.0,0.0,0.0,0.0,0.0,0.0,0.0,0.0,0.0,0.0,0.0,0.0,0.0,0.0,0.0,0.0,0.0,0.0,0.0,0.0,0.0,0.0,0.0,0.0,0.0,0.0,0.0,0.0,0.0,0.0,0.0,0.0,0.0,0.0,0.0,0.0,0.0,0.0,0.0,0.0,0.0,0.0,0.0,0.0,0.0,0.0,0.0,0.0,0.0,0.0,0.0,0.0,0.0,0.0,0.0,0.0,0.0,0.0,0.0,0.0,0.0,0.0,0.0,0.0,0.0,0.0,0.0,0.0,0.0,0.0,0.0,0.0,0.0,0.0,0.0,0.0,0.0,0.0,0.0,0.0,0.0,0.0,0.0,0.0,0.0,0.0,0.0,0.0,0.0,0.0,0.0,0.0,0.0,0.0,0.0,0.0,0.0,0.0,0.0,0.0,0.0,0.0,0.0,0.0,0.0,0.0,0.0,0.0,0.0,0.0,0.0,0.0,0.0,0.0,0.0,0.0,0.0,0.0,0.0,0.0,0.0,0.0,0.0,0.0,0.0,0.0,0.0,0.0,0.0,0.0,0.0,0.0,0.0,0.0,0.0,0.0,0.0,0.0,0.0,0.0,0.0,0.0,0.0,0.0,0.0,0.0,0.0,0.0,0.0,0.0,0.0,0.0,0.0,0.0,0.0,0.0,0.0,0.0,0.0,0.0,0.0,0.0,0.0,0.0,0.0,0.0,0.0,0.0,0.0,0.0,0.0,0.0,0.0,0.0,0.0,0.0,0.0,0.0,0.0,0.0,0.0,0.0,0.0,0.0,0.0,0.0,0.0,0.0,0.0,0.0,0.0,0.0,0.0,0.0,0.0,0.0,0.0,0.0,0.0,0.0,0.0,0.0,0.0,0.0,0.0,0.0,0.0,0.0,0.0,0.0,0.0,0.0,0.0,0.0,0.0,0.0,0.0,0.0,0.0,0.0,0.0,0.0,0.0,0.0,0.0,0.0,0.0,0.0,0.0,0.0,0.0,0.0,0.0,0.0,0.0,0.0,0.0,0.0,0.0,0.0,0.0,0.0,0.0,0.0,0.0,0.0,0.0,0.0,0.0,0.0,0.0,0.0,0.0,0.0,0.0,0.0,0.0,0.0,0.0,0.0,0.0,0.0,0.0,0.0,0.0,0.0,0.0,0.0,0.0,0.0,0.0,0.0,0.0,0.0,0.0,0.0,0.0,0.0,0.0,0.0,0.0,0.0,0.0,0.0,0.0,0.0,0.0,0.0,0.0,0.0,0.0,0.0,0.0,0.0,0.0,0.0,0.0,0.0,0.0,0.0,0.0,0.0,0.0,0.0,0.0,0.0,0.0,0.0,0.0,0.0,0.0,0.0,0.0,0.0,0.0,0.0,0.0,0.0,0.0,0.0,0.0,0.0,0.0,0.0,0.0,0.9725,0.9588,0.0,0.0,0.0,0.0,0.0,0.0,0.0,0.0,0.0,0.0,0.0,0.0,0.0,0.0,0.0,0.0,0.0,0.0,0.0,0.0,0.0,0.0,0.0,1.3142,1.3166,1.3194,1.3194,1.3194,1.3194,1.3266,1.3367,1.3515,1.3555,1.3781,1.4281,1.4347,1.4698,1.543,1.4954,1.5178,1.6054,1.6482,1.6398,1.5952,0.0,0.0,0.0,0.0,0.0,0.0,0.0,0.0,0.0,0.0,0.0,0.0,0.0,0.0,0.0,0.0,0.0,0.0,0.0,0.0,0.0,0.0,0.0,0.0,0.0,0.0,0.0,0.0,0.0,0.0,0.0,0.0,0.0,0.0,0.0,0.0,0.0,0.0,0.0,0.0,0.0,0.0,0.0,0.0,0.0,0.0,0.0,0.0,0.0,0.0,0.0,0.0,0.0,0.0,0.0,0.0,0.0,0.0,0.0,0.0,0.0,0.0,0.0,0.0,0.0,0.0,0.0,0.0,0.0,0.0,1.0552,1.0082,0.0,0.0,0.0,0.0,0.0,0.0,0.0,0.0,0.0,0.0,0.0,0.0,0.0,0.0,0.0,0.0,0.0,0.0,0.0,0.0,0.0,1.3085,1.3061,1.3085,1.3113,1.3122,1.317,1.317,1.3146,1.317,1.335,1.3726,1.3401,1.3606,1.434,1.4106,1.4573,1.5793,1.5704,1.6377,1.776,1.8562,1.8576,1.7934,0.0,0.0,0.0,0.0,0.0,0.0,0.0,0.0,0.0,0.0,0.0,0.0,0.0,0.0,0.0,0.0,0.0,0.0,0.0,0.0,0.0,0.0,0.0,0.0,0.0,0.0,0.0,0.0,0.0,0.0,0.0,0.0,0.0,0.0,0.0,0.0,0.0,0.0,0.0,0.0,0.0,0.0,0.0,0.0,0.0,0.0,0.0,0.0,0.0,0.0,0.0,0.0,0.0,0.0,0.0,0.0,0.0,0.0,0.0,0.0,0.0,0.0,0.0,0.0,1.3063,1.3193,1.3172,1.3209,1.3237,1.3158,1.179,1.1106,1.0887,1.0507,0.0,0.0,0.0,0.0,0.0,0.0,0.0,0.0,0.0,0.0,0.0,0.0,0.0,0.0,0.0,0.0,0.0,0.0,0.0,1.3061,1.2939,1.3036,1.3061,1.2944,1.3041,1.3041,1.2944,1.3041,1.3105,1.3042,1.3312,1.3578,1.3799,1.4142,1.4687,1.5366,1.6769,1.8308,1.9972,2.0434,2.1011,2.1549,1.8877,0.0,0.0,0.0,0.0,0.0,0.0,0.0,0.0,0.0,0.0,0.0,0.0,0.0,0.0,0.0,0.0,0.0,0.0,0.0,0.0,0.0,0.0,0.0,0.0,0.0,0.0,0.0,0.0,0.0,0.0,0.0,0.0,0.0,0.0,0.0,0.0,0.0,0.0,0.0,0.0,0.0,0.0,0.0,0.9936,0.9643,0.0,0.0,0.0,0.0,0.0,0.0,0.0,0.0,0.0,0.0,0.0,0.0,0.0,1.2332,1.2687,1.3425,1.3658,1.3449,1.3853,1.381,1.3354,1.3549,1.3662,1.3802,1.368,0.0,1.2219,1.165,0.0,0.0,0.0,0.0,0.0,0.0,0.0,0.0,0.0,0.0,0.0,0.0,0.0,0.0,0.0,0.0,0.0,0.0,0.0,0.0,0.0,1.3749,1.4122,1.4277,1.5253,1.5311,1.405,1.4476,1.4319,1.3281,1.3184,1.3522,1.4299,1.426,1.5192,1.7145,1.9341,2.1096,2.2318,2.2709,2.3284,2.3861,2.1983,2.0755,1.9929,1.8792,0.0,0.0,0.0,0.0,0.0,0.0,0.0,0.0,0.0,0.0,0.0,0.0,0.0,0.0,0.0,0.0,0.0,0.0,0.0,0.0,0.0,0.0,0.0,0.0,0.0,0.0,0.0,0.0,0.0,0.0,0.0,0.0,0.0,0.0,0.0,0.0,0.0,0.0,0.0,1.0331,1.0521,1.0199,1.0609,1.0755,0.0,0.0,0.0,0.0,0.0,0.0,0.0,0.0,0.0,1.2941,1.3375,1.3857,1.4331,1.49,1.5262,1.5433,1.5819,1.5814,1.5509,1.5718,1.5773,1.5686,1.5718,1.5347,1.4597,1.3215,1.235,1.1838,0.0,0.0,0.0,0.0,1.1121,1.1325,0.0,0.0,0.0,0.0,0.0,0.0,0.0,0.0,0.0,0.0,0.0,0.0,1.3906,1.4766,1.5547,1.6161,1.7324,1.7324,1.5723,1.5713,1.5204,1.3887,1.3437,1.3594,1.4434,1.4874,1.6512,1.9436,2.1953,2.3769,2.4941,2.5254,2.5586,2.5859,2.5094,2.3521,2.145,2.0316,1.9272,0.0,0.0,0.0,0.0,0.0,0.0,0.0,0.0,0.0,0.0,0.0,0.0,0.0,0.0,0.0,0.0,0.0,0.0,0.0,0.0,0.0,0.0,0.0,0.0,0.0,0.0,0.0,0.0,0.0,0.0,0.0,0.0,0.0,0.0,0.0,0.0,0.0,0.0,1.0858,1.1165,1.0784,1.1533,1.1767,0.0,0.0,0.0,0.0,0.0,0.0,1.2899,1.3388,1.3906,1.4507,1.4998,1.5518,1.6022,1.6341,1.6758,1.7161,1.7377,1.7356,1.7136,1.7303,1.7248,1.7,1.7015,1.6848,1.6462,1.4681,1.3653,1.3061,1.2653,1.2438,1.2325,1.2252,1.238,1.2628,0.0,0.0,0.0,0.0,0.0,0.0,0.0,0.0,0.0,0.0,0.0,1.3522,1.5137,1.6083,1.7096,1.8325,1.8149,1.7969,1.7852,1.5957,1.4833,1.4727,1.4297,1.388,1.3574,1.6367,1.9102,2.1719,2.3932,2.6016,2.8066,2.8086,2.8105,2.8086,2.7503,2.622,2.4405,2.1827,2.0929,2.0968,0.0,0.0,0.0,0.0,0.0,0.0,0.0,0.0,0.0,0.0,0.0,0.0,0.0,0.0,0.0,0.0,0.0,0.0,0.0,0.0,0.0,0.0,0.0,0.0,0.0,0.0,0.0,0.0,0.0,0.0,0.0,0.0,0.0,0.0,0.0,0.0,0.0,0.0,0.0,1.1121,1.2438,0.0,0.0,0.0,0.0,1.3006,1.3554,1.3934,1.3992,1.4892,1.5531,1.5896,1.6773,1.7399,1.777,1.7884,1.7893,1.7934,1.7686,1.7447,1.7179,1.7192,1.7045,1.67,1.7,1.7073,1.6958,1.5791,1.509,1.471,1.4136,1.41,1.432,1.4012,1.41,1.4291,0.0,0.0,0.0,0.0,0.0,1.4143,1.3907,1.333,1.2915,1.2915,1.3619,1.4793,1.6484,1.8184,1.9824,2.1346,2.1853,2.168,2.0586,1.873,1.7441,1.6894,1.5615,1.5664,1.7187,1.9648,2.2187,2.4785,2.6641,2.8379,2.9961,2.9668,2.9512,2.9492,2.9035,2.8323,2.7212,2.4191,2.2524,2.165,1.9561,1.8295,0.0,0.0,0.0,0.0,0.0,0.0,0.0,0.0,0.0,0.0,0.0,0.0,0.0,0.0,0.0,0.0,0.0,0.0,0.0,0.0,0.0,0.0,0.0,0.0,0.0,0.0,0.0,0.0,0.0,0.0,0.0,0.0,0.0,0.0,0.0,0.0,0.0,1.3499,1.4618,0.0,1.4136,1.437,1.462,1.4878,1.5319,1.5742,1.6197,1.6725,1.7288,1.7789,1.8123,1.8443,1.8803,1.8644,1.8591,1.8605,1.8467,1.829,1.8023,1.821,1.8023,1.7555,1.7628,1.7541,1.7319,1.6706,1.6157,1.5631,1.4951,1.4694,1.465,1.4658,1.4856,1.5143,0.0,0.0,0.0,0.0,1.4971,1.4306,1.3884,1.3286,1.2954,1.3066,1.4363,1.6026,1.8008,2.0273,2.2344,2.4082,2.4355,2.3867,2.2617,2.0215,1.8535,1.7832,1.6836,1.75,2.0117,2.2402,2.4785,2.7246,2.8809,3.0176,3.1309,3.0703,3.043,3.041,2.9824,2.9414,2.8984,2.6693,2.4743,2.2988,2.1076,1.9902,1.9142,0.0,0.0,0.0,0.0,0.0,0.0,0.0,0.0,0.0,0.0,0.0,0.0,0.0,0.0,0.0,0.0,0.0,0.0,0.0,0.0,0.0,0.0,0.0,0.0,0.0,0.0,0.0,0.0,0.0,0.0,0.0,0.0,0.0,0.0,1.3975,1.494,1.5365,1.6462,1.6887,1.5966,1.6197,1.6423,1.6453,1.6826,1.7232,1.7603,1.8014,1.8412,1.8796,1.892,1.9126,1.9319,1.9164,1.9052,1.9052,1.9098,1.8918,1.8637,1.8838,1.8651,1.8183,1.8036,1.7847,1.7617,1.7209,1.6759,1.6236,1.5812,1.5539,1.5502,1.5632,1.5848,1.6094,0.0,0.0,0.0,1.488,1.449,1.3978,1.3065,1.2895,1.3027,1.3457,1.5067,1.7142,1.9668,2.2285,2.4551,2.6269,2.5215,2.4258,2.3828,2.0176,1.7852,1.7494,1.7891,1.9375,2.1973,2.4492,2.6836,2.9004,3.0312,3.1367,3.2229,3.1328,3.0937,3.0879,3.0019,2.9685,2.9646,2.9141,2.7571,2.5208,2.2938,2.1904,2.1491,0.0,0.0,0.0,0.0,0.0,0.0,0.0,0.0,0.0,0.0,0.0,0.0,0.0,0.0,0.0,0.0,0.0,0.0,0.0,0.0,0.0,0.0,0.0,0.0,0.0,0.0,0.0,0.0,0.0,0.0,0.0,0.0,0.0,1.3594,1.5218,1.6477,1.6477,1.7882,1.8382,1.7132,1.7811,1.8147,1.7647,1.8128,1.8347,1.8062,1.8651,1.8945,1.8945,1.9225,1.943,1.943,1.943,1.943,1.943,1.943,1.9212,1.8945,1.8931,1.8771,1.8477,1.8183,1.7982,1.7929,1.7395,1.6981,1.6697,1.6649,1.6744,1.6979,1.6979,1.7106,1.7235,0.0,0.0,1.5979,1.531,1.4698,1.4095,1.3501,1.3113,1.3027,1.3457,1.582,1.834,2.0586,2.3457,2.5781,2.7239,2.582,2.4707,2.4277,2.0566,1.8555,1.875,2.0371,2.25,2.5098,2.6738,2.8633,3.0801,3.1797,3.2383,3.2617,3.2383,3.1934,3.1328,3.1094,3.082,3.0508,3.0039,2.9313,2.8139,2.536,2.3708,2.2718,0.0,0.0,0.0,0.0,0.0,0.0,0.0,0.0,0.0,0.0,0.0,0.0,0.0,0.0,0.0,0.0,0.0,0.0,0.0,0.0,0.0,0.0,0.0,0.0,0.0,0.0,0.0,0.0,0.0,0.0,0.0,1.4995,1.5978,1.5978,1.6784,1.7756,1.8677,1.9409,1.9742,1.9659,1.9509,1.9486,1.9821,1.958,1.9459,1.9613,1.9586,1.9559,1.9559,1.9439,1.943,1.943,1.943,1.943,1.943,1.943,1.9319,1.9239,1.9025,1.8771,1.8477,1.8183,1.7862,1.7675,1.7353,1.6981,1.6673,1.6495,1.6259,1.6163,1.6366,1.6588,1.681,0.0,1.6328,1.6022,1.549,1.4789,1.4142,1.3668,1.321,1.3105,1.3691,1.6562,1.9238,2.0995,2.3881,2.5986,2.6797,2.543,2.4121,2.3144,2.0586,1.9531,0.0,0.0,2.4902,2.7148,2.8633,3.0176,3.1797,3.2461,3.2891,3.3047,3.2871,3.2519,3.2051,3.1875,3.166,3.1387,3.0937,3.0508,2.9941,2.7865,2.629,2.5004,2.3169,2.2431,2.2201,2.1155,2.0918,2.0937,1.9803,0.0,0.0,0.0,0.0,0.0,0.0,0.0,0.0,0.0,0.0,0.0,0.0,0.0,0.0,0.0,0.0,0.0,0.0,0.0,0.0,0.0,0.0,0.0,0.0,1.6507,1.7706,1.8379,1.8803,1.9371,2.0426,2.073,2.0873,2.0883,2.0494,2.0244,2.0484,2.0169,2.0045,2.0214,1.996,1.9853,1.9973,1.9693,1.9546,1.9546,1.9546,1.9492,1.943,1.943,1.943,1.9417,1.9185,1.8945,1.8651,1.8357,1.8063,1.7742,1.738,1.7099,0.0,0.0,0.0,0.0,0.0,1.665,1.6777,0.0,1.6328,1.6022,1.549,1.4789,1.4142,1.3668,1.321,1.3164,1.3938,1.7031,1.9609,2.0761,2.3588,2.5421,2.546,2.4336,2.2891,2.1229,2.0566,0.0,2.2109,2.4648,2.6797,2.8476,3.0176,3.1445,3.2305,3.2734,3.3164,3.3555,3.3184,3.2949,3.2851,3.248,3.2266,3.2148,3.1699,3.1309,3.0879,3.0,2.8906,2.7689,2.6026,2.5467,2.5405,2.4211,2.3067,2.2103,2.147,0.0,0.0,0.0,0.0,0.0,0.0,0.0,0.0,0.0,0.0,0.0,0.0,0.0,0.0,0.0,0.0,0.0,0.0,0.0,0.0,0.0,0.0,0.0,0.0,1.7896,1.9111,2.0676,2.0911,2.1102,2.1671,2.174,2.1612,2.1353,2.0962,2.0659,2.0443,2.0307,2.0294,2.0273,2.0054,0.0,0.0,0.0,1.98,1.98,1.9773,1.9626,1.943,1.943,1.943,1.943,1.9332,1.9158,1.8865,1.8571,1.825,1.7849,1.742,1.7166,1.7045,1.6522,1.6244,1.6224,1.6697,1.6838,1.6885,0.0,1.6328,1.6022,1.549,1.4789,1.4142,1.3668,1.321,1.3066,1.3529,1.6328,1.8477,1.9046,2.1836,2.3789,2.4141,2.2988,2.1816,2.0762,2.1523,2.2578,2.3867,2.6406,2.8437,2.9805,3.1211,3.2344,3.3184,3.3613,3.4043,3.4453,3.4375,3.3965,3.3301,3.3223,3.2793,3.2148,3.1699,3.1465,3.1328,3.043,2.9512,2.8574,2.7539,2.7219,2.7102,2.6163,2.6104,2.629,2.48,2.3795,2.293,2.1465,0.0,0.0,0.0,0.0,0.0,0.0,0.0,0.0,0.0,0.0,0.0,0.0,0.0,0.0,0.0,0.0,0.0,0.0,0.0,0.0,1.7838,1.9272,2.0647,2.1745,2.2111,2.218,2.2069,2.2004,2.2086,2.2343,2.1589,2.13,2.1721,2.1032,2.0695,2.0922,2.0668,2.0535,2.0588,2.008,1.98,1.98,1.9573,1.9426,1.943,1.943,0.0,1.9417,1.9118,1.8851,1.8557,1.8263,1.7822,1.7367,1.7246,1.6924,1.6482,1.6362,1.6147,1.5879,1.5974,1.6021,1.6069,0.0,1.6328,1.6134,1.5846,1.4971,1.4305,1.4328,1.3525,1.3126,1.3766,1.5713,1.7207,1.7603,1.9609,2.0977,2.1191,2.043,2.0117,2.0566,2.2383,2.4336,2.6269,2.8633,3.041,3.1465,3.2344,3.3105,3.375,3.418,3.4492,3.4687,3.4473,3.4258,3.4043,3.3613,3.332,3.3066,3.2207,3.1836,3.1758,3.0898,3.0293,2.9844,2.918,2.8926,2.8887,2.8457,2.8164,2.7812,2.6789,2.5508,2.416,2.2676,2.1016,1.9202,0.0,0.0,0.0,0.0,0.0,0.0,0.0,0.0,0.0,0.0,0.0,0.0,0.0,0.0,1.5243,1.5624,0.0,1.7999,1.9301,2.0472,2.1496,2.2286,2.2544,2.2624,2.2624,2.2315,2.2185,2.2341,2.1603,2.1325,2.179,2.1415,2.1262,2.1601,2.1327,2.1231,2.1382,2.0958,2.0583,2.0253,2.0104,1.9829,1.943,1.943,1.943,1.9417,1.9065,1.8771,1.8477,1.8183,1.7782,1.7407,1.7259,1.6857,1.6321,1.6321,1.6086,1.5832,1.5927,1.6069,1.6258,0.0,1.6349,1.6244,1.62,1.5243,1.4651,1.5085,1.3952,1.3306,1.4023,1.5119,1.5948,1.6161,1.733,1.811,1.811,1.8281,1.9082,0.0,2.332,2.5918,2.8437,3.0684,3.2207,3.291,3.3418,3.3887,3.4336,3.4668,3.4883,3.4941,3.4609,3.4531,3.4668,3.3984,3.3769,3.3867,3.2676,3.2229,3.209,3.123,3.084,3.0723,3.0332,3.0254,3.0293,3.0039,2.918,2.8105,2.7676,2.6211,2.4355,2.334,2.2305,2.0937,1.8344,1.8013,0.0,0.0,0.0,0.0,0.0,0.0,0.0,0.0,1.4319,1.4258,1.4658,1.5394,1.6257,1.7211,1.8116,1.9242,2.0676,2.1452,2.2081,2.2637,2.2697,2.2793,2.3043,2.2543,2.223,2.2292,2.174,2.1488,2.179,2.1677,2.174,2.1978,2.1756,2.1666,2.1915,2.1638,2.1238,2.0686,2.0618,2.0199,1.9511,1.9511,1.9426,1.9417,1.9118,1.8824,1.8464,1.805,1.7729,1.758,1.723,1.68,1.637,1.6351,1.6142,1.5879,1.6069,1.6258,1.6494,0.0,1.6436,1.6328,1.6222,1.5647,1.522,1.5266,1.4281,1.3597,1.3828,1.4506,1.4805,1.4445,1.5586,1.6378,1.6378,1.8398,2.0273,2.1641,2.4512,2.7148,2.9336,3.1855,3.3262,3.334,3.4141,3.4785,3.5234,3.5293,3.5508,3.5879,3.582,3.541,3.4687,3.4609,3.416,3.3437,3.2539,3.2229,3.209,3.123,3.0644,3.0273,3.0215,3.0449,3.0664,2.9473,2.8496,2.7728,2.7226,2.6152,2.5008,2.4824,2.3672,2.2148,2.1015,0.0,1.793,1.7266,1.5942,1.4692,1.4681,1.4514,1.4682,0.0,1.6357,1.6679,1.7274,1.7706,1.8189,1.8877,1.9798,2.0706,2.1467,2.2111,2.2637,2.3003,2.3029,2.3043,2.3106,2.2793,2.2668,2.2981,2.2668,2.2418,2.248,2.1929,2.1614,2.1677,2.1335,2.1195,2.1235,2.0953,2.0779,2.069,2.0422,2.0067,1.976,1.976,1.9613,1.943,1.9332,1.9011,1.8437,1.7661,1.7389,1.7579,1.7018,1.6731,1.6648,1.66,1.638,1.613,1.5927,1.5879,1.5879,0.0,0.0,1.6436,1.6328,1.5734,1.5355,1.5558,1.4697,1.4025,1.4073,1.4097,1.3926,1.3443,1.4102,1.4473,1.4265,1.6797,0.0,2.1036,2.4648,2.793,3.0586,3.2695,3.4043,3.4551,3.4922,3.5312,3.5762,3.5762,3.5723,3.5644,3.5371,3.5059,3.4668,3.418,3.3906,3.375,3.2891,3.2383,3.2109,3.1504,3.084,3.0117,2.9375,2.9062,2.8906,2.8105,2.709,0.0,0.0,2.5137,2.4648,2.4394,2.3496,2.2285,2.1172,1.9851,0.0,1.7165,1.6167,1.5384,1.4947,1.5376,1.6082,1.6786,1.7352,1.7831,1.8282,1.8789,1.9345,2.0003,2.0764,2.1496,2.2125,2.2608,2.2959,2.3091,2.2759,2.2508,2.2593,2.2259,2.2266,2.2764,2.248,2.2418,2.2606,2.2355,2.2292,2.248,2.2355,2.223,2.223,2.2179,2.1962,2.1594,2.1408,2.092,2.0096,2.0096,1.9816,1.9417,1.9185,1.8784,1.8196,1.7807,1.7617,1.759,1.7323,1.7196,1.7205,1.7002,1.6807,1.6649,1.6184,1.6225,1.6443,0.0,0.0,0.0,1.6414,1.5954,1.569,1.5935,1.5175,1.4582,1.4583,1.4048,1.3454,1.2944,1.3262,1.3379,1.3086,1.5371,0.0,0.0,2.3809,2.7344,3.0488,3.25,3.4023,3.5,3.5273,3.5605,3.6016,3.6016,3.5859,3.5566,3.5098,3.4824,3.4668,3.3926,3.3711,3.3848,3.3105,3.2559,3.2129,3.1562,3.0664,2.9531,2.8262,2.7129,2.6211,2.6016,2.5195,0.0,0.0,2.3184,2.3144,2.2969,2.248,2.1775,2.0738,1.9648,1.8469,1.7046,1.649,1.6265,1.5718,1.6433,1.7402,1.7779,1.8306,1.8818,1.9242,1.9696,2.0223,2.0867,2.1379,2.1906,2.252,2.2813,2.3003,2.3091,2.2508,2.2115,2.2213,2.183,2.1752,2.2299,2.2253,2.2352,2.2601,2.2625,2.2731,2.2918,2.2856,2.2793,2.2793,2.2793,2.263,2.2153,2.2067,2.1512,2.0561,2.0419,2.0168,1.9635,1.9199,1.8793,1.836,1.8128,1.7911,1.7818,1.7637,1.7579,1.7575,1.7386,1.7218,1.7022,1.6655,1.6669,1.6834,0.0,0.0,0.0,0.0,1.6371,1.6371,1.6371,1.5756,1.5288,1.5354,1.4445,1.3576,1.2968,1.3262,1.3496,1.3496,1.4707,1.6562,1.916,2.1756,2.4738,2.8242,3.0859,3.2812,3.4082,3.4961,3.5605,3.6016,3.6016,3.6016,3.5996,3.5566,3.5137,3.4687,3.4238,3.3828,3.3418,3.2988,3.2559,3.209,3.125,2.9883,2.8203,2.6934,2.4883,2.2715,2.3062,0.0,0.0,0.0,2.0059,2.0117,2.0566,2.0683,0.0,2.0052,1.8794,1.7527,1.7241,1.7181,1.7186,1.7246,1.7762,1.8423,1.9067,1.9529,1.9901,2.053,2.0676,2.0896,2.154,2.1686,2.1906,2.252,2.2637,2.2754,2.3062,2.2579,2.2198,2.2184,2.1628,2.1364,2.1701,2.2226,2.2576,2.2576,2.262,2.2606,2.2606,2.2292,2.2104,2.2104,2.2104,2.2104,2.209,2.1796,2.1488,2.118,2.0813,2.0564,2.0256,1.964,1.936,1.9304,1.8383,1.8122,1.8342,1.774,1.7514,1.7603,1.7789,1.7513,1.7036,1.7278,1.7046,1.6602,0.0,0.0,0.0,0.0,0.0,1.6414,1.6457,1.6132,1.5758,1.5378,1.4445,0.0,0.0,0.0,0.0,0.0,1.4512,1.6035,1.75,2.1074,2.3926,2.5644,2.9043,3.1074,3.1484,3.293,3.375,3.3887,3.416,3.416,3.3867,3.373,3.3437,3.3008,3.2871,3.2734,3.2559,3.2129,3.1699,3.1211,3.0059,2.8906,2.7689,2.5488,2.3418,2.1424,0.0,0.0,0.0,1.8477,1.8418,1.873,1.916,1.8906,1.8395,1.7916,1.7608,1.7434,1.7522,1.7384,1.7431,1.8115,1.8941,1.9696,2.0135,2.0486,2.072,2.072,2.0489,2.0472,2.0691,2.072,2.1013,2.1862,2.2184,2.2506,2.3032,2.274,2.2242,2.1613,2.154,2.132,2.0779,2.1511,2.2184,2.2593,2.2602,2.2701,2.2904,2.2793,2.2731,2.2731,2.2731,2.2731,2.2731,2.2414,2.2037,2.1541,2.0794,2.0368,2.0314,1.9863,1.958,1.9373,1.8823,1.8541,1.8422,1.8428,1.8452,1.8476,1.8506,1.8354,1.8188,1.807,1.7746,1.7332,0.0,0.0,0.0,0.0,0.0,0.0,0.0,0.0,0.0,0.0,0.0,0.0,0.0,0.0,0.0,0.0,0.0,1.5078,0.0,0.0,2.131,2.2734,2.5664,2.7383,2.7676,2.9082,2.9961,3.0273,3.0703,3.0937,3.0976,3.1269,3.1191,3.0781,3.0937,3.1016,3.0976,3.0547,2.9941,2.918,2.8008,2.666,2.5137,2.2988,2.1113,0.0,0.0,0.0,0.0,1.6484,1.6836,1.7383,1.7779,1.7579,1.7102,1.695,1.6973,1.7201,1.7787,1.7994,1.8233,1.9096,1.9945,2.0633,2.0852,2.0969,2.094,2.0618,2.0194,1.9886,1.9886,1.9555,1.9769,2.0984,2.1159,2.1525,2.2623,2.2301,2.1847,2.1584,2.1437,2.1189,2.0794,2.1218,2.1789,2.2418,2.2564,2.2769,2.3091,2.3106,2.3106,2.3106,2.3106,2.3106,2.3106,2.2681,2.2062,2.1331,2.0873,2.0558,2.0415,2.0086,1.9854,1.9647,1.9141,1.8764,1.8593,1.8698,1.8712,1.8736,1.8795,1.8738,1.8658,1.8505,1.8277,1.7892,0.0,0.0,0.0,0.0,0.0,0.0,0.0,0.0,0.0,0.0,0.0,0.0,0.0,0.0,0.0,0.0,0.0,0.0,0.0,0.0,0.0,1.9551,2.0996,2.2171,2.2953,2.3789,2.4668,2.5508,2.5937,2.6632,2.7434,2.8184,2.834,2.7988,2.8379,2.8555,2.8535,2.8125,2.7317,2.6123,2.5243,2.3403,2.1035,1.9727,0.0,0.0,0.0,0.0,0.0,1.4648,1.541,1.6169,1.6534,1.6662,1.6774,1.7168,1.6902,1.6833,1.8241,1.8958,1.9477,2.012,2.0735,2.1174,2.1159,2.0896,2.0559,2.0154,1.9623,1.9169,1.914,1.8394,1.8306,1.9847,1.9711,2.0018,2.1935,2.1423,2.1174,2.2081,2.1379,2.1057,2.1642,2.1437,2.1525,2.2154,2.2447,2.2754,2.3091,2.3106,2.3106,2.3106,2.3106,2.3106,2.3106,2.2491,2.1729,2.0744,2.1031,2.1031,2.0702,2.0378,2.0197,2.0154,1.9314,1.8936,1.8921,1.8593,1.8475,1.8475,1.8817,1.8735,1.8476,1.8716,1.8613,1.8277,0.0,0.0,0.0,0.0,0.0,0.0,0.0,0.0,0.0,0.0,0.0,0.0,0.0,0.0,0.0,0.0,0.0,0.0,0.0,0.0,0.0,0.0,0.0,0.0,0.0,0.0,0.0,0.0,0.0,2.3319,2.3536,2.3727,2.3767,2.3713,2.3836,2.39,2.39,2.3846,2.3652,2.3275,0.0,2.1412,2.0327,0.0,0.0,0.0,0.0,0.0,0.0,0.0,1.5787,1.6398,1.591,1.6285,1.712,1.7965,1.811,1.8319,1.9903,2.0166,2.015,2.0794,2.0911,2.0779,2.0489,2.0047,1.9477,1.8906,1.8277,1.7677,1.7194,1.7296,1.7823,1.8979,1.9828,2.0852,2.2301,2.2506,2.2418,2.2213,2.2154,2.2023,2.173,2.1847,2.2096,2.2476,2.2374,2.2535,2.3076,2.3106,2.3106,2.3106,2.3106,2.3106,2.3106,2.2491,2.1979,2.1438,2.1263,2.1146,2.1074,2.0723,2.0472,2.0168,1.976,1.9453,1.9168,1.9116,1.9063,1.9063,1.9168,1.9124,1.9103,1.9155,1.895,1.8613,0.0,0.0,0.0,0.0,0.0,0.0,0.0,0.0,0.0,0.0,0.0,0.0,0.0,0.0,0.0,0.0,0.0,0.0,0.0,0.0,0.0,0.0,0.0,0.0,0.0,0.0,0.0,0.0,0.0,0.0,0.0,2.0698,2.0995,2.0777,2.1232,2.1411,2.1391,0.0,0.0,0.0,0.0,0.0,0.0,0.0,0.0,0.0,0.0,0.0,0.0,0.0,0.0,1.7062,1.6852,1.7195,1.7835,1.8713,1.9098,1.9492,2.0582,2.0847,2.0969,2.1335,2.1072,2.0559,1.9959,1.9576,1.8985,1.7743,1.7204,1.6756,1.6066,1.614,1.6651,1.794,1.8994,2.0208,2.1789,2.2286,2.252,2.2579,2.2608,2.2535,2.2345,2.2359,2.2506,2.2813,2.255,2.2593,2.3076,2.3106,2.3106,2.3106,2.3106,2.3047,2.2901,2.2418,2.1949,2.1496,2.1307,2.1146,2.096,2.081,2.0618,2.0428,1.9959,1.9705,1.9529,1.933,1.9272,1.9272,1.9272,1.9272,1.9272,1.9272,1.9155,1.895,0.0,0.0,0.0,0.0,0.0,0.0,0.0,0.0,0.0,0.0,1.4694,0.0,0.0,0.0,0.0,0.0,0.0,0.0,0.0,0.0,0.0,0.0,0.0,0.0,0.0,0.0,0.0,0.0,0.0,0.0,0.0,0.0,0.0,0.0,0.0,0.0,0.0,0.0,0.0,0.0,0.0,0.0,0.0,0.0,0.0,0.0,0.0,0.0,0.0,0.0,1.6415,1.7951,1.8329,1.852,1.8721,1.9398,1.9889,2.0329,2.0808,2.1306,2.1701,2.1701,2.1145,2.034,1.9374,1.907,1.8485,1.6566,1.6236,1.6042,1.5315,1.5075,1.5455,1.7018,1.7882,1.9052,2.0998,2.1554,2.2096,2.3003,2.2857,2.2798,2.3076,2.2857,2.2798,2.3091,2.2842,2.2813,2.3091,2.3106,2.3106,2.3106,2.3106,2.2974,2.2696,2.2389,2.1947,2.1319,2.1307,2.106,2.0773,2.0798,2.082,2.0914,2.0244,1.9964,2.0065,1.9626,1.9403,1.9403,1.9403,1.9374,1.9397,1.9397,1.9368,1.9228,0.0,0.0,0.0,0.0,0.0,0.0,0.0,0.0,0.0,0.0,1.5401,1.4118,0.0,0.0,0.0,0.0,0.0,0.0,0.0,0.0,0.0,0.0,0.0,0.0,0.0,0.0,0.0,0.0,0.0,0.0,0.0,0.0,0.0,0.0,0.0,0.0,0.0,0.0,0.0,0.0,0.0,0.0,0.0,0.0,0.0,0.0,0.0,0.0,0.0,0.0,1.8057,1.8839,1.7857,1.826,1.9317,2.0195,2.0512,2.0823,2.1701,2.1818,2.1701,2.1701,2.0808,1.972,1.8701,1.7654,0.0,1.5394,1.5002,1.4702,1.432,1.4838,1.5701,1.6815,1.7925,1.9389,2.1335,2.1891,2.2359,2.3032,2.3062,2.3047,2.3106,2.3062,2.3047,2.3106,2.3062,2.3047,2.3106,2.3106,2.3106,2.3106,2.3106,2.3076,2.3018,2.271,2.2328,2.2036,2.1759,2.1409,2.1089,2.1088,2.1534,2.2119,2.1033,0.0,2.1509,2.0455,2.0008,2.0008,2.0008,1.9916,1.9735,1.9735,1.9558,1.9228,0.0,0.0,0.0,0.0,0.0,0.0,0.0,1.7983,1.8461,1.9373,1.8329,1.696,1.5497,1.4491,1.386,0.0,0.0,0.0,0.0,0.0,0.0,0.0,0.0,0.0,0.0,0.0,0.0,0.0,0.0,0.0,0.0,0.0,0.0,0.0,0.0,0.0,0.0,0.0,0.0,0.0,0.0,0.0,0.0,0.0,0.0,0.0,0.0,0.0,0.0,0.0,1.7652,1.8725,1.8784,1.9149,1.9681,2.0486,2.0969,2.1364,2.2008,2.2184,2.214,2.1993,2.0852,1.947,1.8101,0.0,0.0,1.4569,1.469,1.4819,1.3903,1.4384,1.5189,1.5979,1.7047,1.8517,2.0413,2.1115,2.1774,2.274,2.3003,2.3106,2.3106,2.3106,2.3106,2.3106,2.3728,2.3852,2.3168,2.3106,2.3106,2.3106,2.3106,2.3106,2.3106,2.2784,2.255,2.2403,2.2096,2.1774,2.1467,2.213,2.2503,2.2776,2.264,2.2776,2.3083,2.1681,2.1132,2.1132,2.1132,2.0557,1.9861,2.0484,2.0114,1.9309,0.0,0.0,0.0,0.0,0.0,0.0,0.0,1.9108,1.9784,2.145,2.126,2.0065,1.77,1.5992,1.4863,0.0,0.0,0.0,0.0,0.0,0.0,0.0,0.0,0.0,0.0,0.0,0.0,1.4048,1.4515,0.0,0.0,0.0,0.0,0.0,1.6345,0.0,0.0,0.0,0.0,0.0,0.0,0.0,0.0,0.0,0.0,0.0,0.0,0.0,0.0,0.0,1.6934,1.8059,1.9366,1.9725,1.9667,2.0252,2.0969,2.1686,2.2081,2.2403,2.2535,2.2169,2.0852,1.928,1.7604,1.7302,1.6618,1.4037,1.4545,1.5081,1.3746,1.4012,1.4604,1.5265,1.617,1.7504,1.9529,2.0325,2.1189,2.2476,2.2915,2.3106,2.3106,2.3106,2.3106,2.3106,2.4085,2.4332,2.3604,2.3775,2.3775,2.3542,2.3775,2.3961,2.3961,2.3642,2.3353,2.3035,2.2796,2.2483,2.2095,2.3053,2.3593,2.3799,2.42,2.4516,2.4661,2.3166,2.2419,2.2257,2.2457,2.1672,2.0536,2.1544,2.1029,1.9777,0.0,0.0,0.0,0.0,0.0,0.0,0.0,1.9409,2.0487,2.2639,2.246,2.1628,2.0293,1.8329,1.6534,0.0,0.0,0.0,0.0,0.0,0.0,0.0,0.0,0.0,0.0,0.0,0.0,1.4558,1.4599,0.0,0.0,0.0,0.0,0.0,0.0,1.5984,1.5711,0.0,0.0,0.0,0.0,0.0,0.0,0.0,0.0,0.0,0.0,0.0,0.0,0.0,0.0,1.6776,1.8071,1.8665,1.895,1.9301,0.0,0.0,2.2008,2.2403,2.2476,2.1891,2.053,1.8891,1.7314,0.0,1.574,1.3881,1.415,1.4474,1.3637,1.3784,1.434,1.5236,0.0,1.724,1.95,2.0325,2.1189,2.2476,0.0,0.0,2.3106,2.3106,2.3106,2.3106,2.323,2.379,2.4887,2.5973,2.6111,2.4949,2.605,2.6658,2.6658,2.6608,2.588,2.4427,2.4395,2.4032,2.3341,2.3457,2.4501,2.6136,2.5078,2.5298,0.0,2.4971,2.3867,2.2991,2.4017,2.3525,2.2377,2.3098,2.2537,2.1254,0.0,0.0,0.0,0.0,0.0,0.0,1.9183,1.966,2.084,2.3747,2.3923,2.3622,2.3135,2.1149,1.8558,1.5237,0.0,0.0,0.0,0.0,0.0,0.0,0.0,0.0,0.0,0.0,1.4245,1.4829,1.4829,0.0,0.0,0.0,0.0,0.0,0.0,1.5801,1.5649,0.0,0.0,0.0,0.0,0.0,0.0,0.0,0.0,0.0,0.0,0.0,1.5654,0.0,0.0,0.0,1.6143,1.6814,0.0,0.0,1.9331,2.0267,2.132,2.1964,2.2257,2.1803,2.0325,1.8764,1.7765,0.0,1.6016,1.4465,1.476,1.4887,1.371,1.3594,1.3945,1.4721,0.0,0.0,1.7768,1.8394,1.9322,2.1262,2.1935,2.2476,2.3047,2.3852,2.4641,2.5362,2.5423,2.5668,2.6233,2.5989,2.5989,2.6233,2.6719,2.7021,2.7021,2.7021,2.6695,2.6061,2.6044,2.5661,2.4961,2.5652,2.6172,2.6518,2.6735,2.7133,0.0,2.63,2.5516,2.5131,2.5626,2.4694,2.3285,2.4316,2.36,2.1976,0.0,0.0,0.0,0.0,0.0,1.725,1.9459,1.9811,2.0891,2.3898,2.4299,2.4224,2.4073,2.2372,1.9869,1.6453,1.5219,0.0,0.0,0.0,0.0,0.0,0.0,0.0,0.0,0.0,1.4444,1.5141,1.5043,1.5463,0.0,0.0,1.6029,1.6195,0.0,0.0,0.0,0.0,0.0,0.0,0.0,0.0,0.0,0.0,0.0,0.0,0.0,0.0,0.0,0.0,0.0,0.0,0.0,0.0,0.0,0.0,1.8456,1.9442,2.052,2.1272,2.1642,2.1233,1.9872,1.8474,0.0,0.0,1.6288,1.4889,1.5384,1.5525,1.3819,1.3674,1.3999,0.0,0.0,1.5068,1.7308,1.7608,1.8405,2.0575,2.1361,2.2094,2.3126,2.4698,2.5867,2.6415,2.6415,2.6598,2.6961,2.6172,2.6216,2.7547,2.7924,2.8164,2.8164,2.8164,2.7924,2.7547,2.7424,2.7023,2.6434,2.7089,2.7289,2.7079,2.7906,2.8301,0.0,2.7349,2.6808,2.6518,2.6786,2.5772,2.4404,2.5338,2.4623,2.3059,0.0,0.0,0.0,0.0,0.0,0.0,1.9459,1.9811,2.0614,2.2819,2.312,2.292,2.2397,2.137,2.0279,1.9158,1.662,0.0,0.0,0.0,0.0,0.0,0.0,0.0,0.0,0.0,1.4229,1.5478,1.5161,1.5463,1.6402,1.6402,1.6153,1.5718,0.0,0.0,0.0,0.0,0.0,0.0,0.0,0.0,0.0,0.0,0.0,0.0,0.0,0.0,0.0,0.0,0.0,0.0,0.0,1.5185,0.0,0.0,1.7685,1.9127,1.9729,2.034,2.0589,1.9945,1.9038,1.8075,0.0,1.687,1.6288,1.4889,1.5807,1.6193,1.3912,1.4078,1.4676,1.5041,0.0,0.0,1.8946,1.8753,1.8994,2.094,2.1484,2.2206,2.3461,2.5644,2.6459,2.5194,2.5133,2.5684,2.6961,2.7021,2.7547,2.8861,3.0157,3.084,3.084,3.084,3.0216,2.8861,2.8458,2.8056,2.7596,2.7212,2.7472,2.8301,2.8281,2.8301,0.0,2.8301,2.7565,2.659,2.7391,2.6955,2.5945,2.6244,2.5717,2.4716,0.0,0.0,0.0,0.0,0.0,0.0,0.0,1.848,1.9359,2.1245,2.1769,2.2221,2.2794,2.1543,2.0266,1.9199,1.7262,0.0,0.0,0.0,0.0,0.0,0.0,0.0,0.0,0.0,1.5374,1.6138,1.6022,1.6249,1.68,1.6519,1.634,1.6153,1.5504,1.5049,0.0,0.0,0.0,0.0,0.0,0.0,0.0,0.0,0.0,0.0,0.0,0.0,0.0,0.0,0.0,0.0,0.0,0.0,0.0,1.6118,1.6533,1.7231,1.8878,1.9288,1.9287,1.9589,1.8936,1.8186,1.7927,1.7526,1.6827,1.5591,1.6193,1.6367,1.4581,1.4851,1.5668,1.6594,1.6165,0.0,0.0,1.8535,1.8756,2.0945,2.2877,2.451,2.5787,2.7397,2.7787,2.6476,2.7185,2.7486,2.7021,2.7847,2.8879,3.0216,3.0704,3.0898,3.0898,3.0898,3.0704,3.0274,2.9815,2.9393,2.8971,2.8495,2.8311,2.8301,2.8301,2.8301,2.8301,2.8301,2.8067,2.7761,2.7727,2.7272,2.6615,2.6431,2.5993,2.5309,0.0,0.0,0.0,0.0,0.0,0.0,0.0,1.7677,1.8329,1.9585,2.0037,2.0659,2.1729,2.059,1.9624,1.9389,1.7824,0.0,0.0,0.0,0.0,0.0,0.0,0.0,0.0,1.5111,1.5649,1.6643,1.6643,1.6953,1.7523,1.745,1.7066,1.6381,1.5773,1.5318,0.0,0.0,0.0,0.0,0.0,0.0,1.4961,0.0,0.0,0.0,0.0,0.0,0.0,0.0,0.0,0.0,0.0,0.0,0.0,0.0,1.5821,1.5968,1.8006,1.8467,1.852,1.8946,1.8548,1.7972,1.7899,1.7642,1.7098,1.6087,1.6658,1.6768,1.4958,1.5455,1.6297,1.6753,1.6425,1.6806,1.8935,1.8387,1.8818,2.159,2.3893,2.5898,2.7544,2.8898,2.9116,2.7787,2.8444,2.8564,2.7787,2.8444,2.953,3.084,3.0898,3.0801,3.0625,3.0801,3.0801,3.0625,3.0176,2.9824,2.9551,2.8965,2.8535,2.8301,2.8301,2.8301,0.0,2.8301,2.8301,2.8262,2.7885,2.7402,2.6973,2.6543,2.6113,2.5577,0.0,0.0,0.0,0.0,0.0,0.0,0.0,1.7373,1.7599,1.8078,1.8204,1.8635,1.964,1.8806,1.8567,1.9605,0.0,0.0,0.0,0.0,0.0,0.0,0.0,0.0,1.5049,1.4656,1.5291,1.7068,1.7089,1.7564,1.8517,1.8953,1.8206,1.6506,1.6464,1.5925,1.5007,0.0,0.0,0.0,1.48,1.4945,0.0,0.0,0.0,0.0,0.0,0.0,0.0,0.0,0.0,0.0,0.0,0.0,0.0,0.0,0.0,0.0,0.0,1.78,1.8026,1.8067,1.7887,1.7613,1.7279,1.7314,0.0,1.6416,1.712,1.7282,1.5237,1.6,1.6733,1.6174,1.6173,1.6908,1.8971,1.8575,1.933,2.2756,2.4648,2.6504,2.8674,3.0099,3.0333,2.8979,2.8979,2.8979,2.892,2.8979,2.9589,3.084,3.084,3.0644,3.0195,3.0625,3.0605,3.0137,2.9726,2.9531,2.9492,2.8672,2.8301,2.8301,2.8301,2.8301,2.8301,2.8301,2.8301,2.8242,2.7793,2.7363,2.6953,2.6504,2.6094,2.5693,0.0,0.0,0.0,0.0,0.0,0.0,0.0,0.0,0.0,0.0,1.8304,1.8908,1.9157,1.8944,1.8712,0.0,0.0,0.0,0.0,0.0,0.0,0.0,0.0,0.0,1.5525,1.5801,1.6436,1.7544,1.7905,1.8559,1.9471,1.9575,1.8816,1.7378,1.7006,1.6159,1.5007,1.5007,0.0,0.0,1.4573,1.4469,0.0,0.0,0.0,0.0,1.4314,1.4486,0.0,0.0,0.0,0.0,0.0,0.0,0.0,0.0,1.5681,1.5927,1.6364,0.0,1.6343,1.6909,1.7267,1.7464,0.0,1.7374,1.7259,0.0,1.6874,1.7092,1.7334,1.7299,1.7854,1.9602,1.8453,1.8097,2.031,2.0749,2.1525,2.3456,2.5461,2.7158,2.8307,2.991,3.0333,2.8979,2.9844,2.9962,2.892,2.9844,3.0413,3.0371,3.0351,3.0312,3.0195,3.0312,3.0137,2.9707,2.9277,2.9062,2.9062,2.8535,2.8301,2.8301,2.8301,2.8301,2.8301,2.8301,2.8301,2.8223,2.7461,2.7109,2.6914,2.6172,2.5771,2.5693,0.0,0.0,0.0,0.0,0.0,0.0,0.0,0.0,0.0,0.0,0.0,1.8335,1.856,1.86,0.0,0.0,0.0,0.0,0.0,0.0,0.0,0.0,0.0,1.6091,1.538,1.5835,1.6705,1.803,1.842,1.9204,2.0389,2.0247,1.9233,1.7554,1.6691,1.5945,1.5339,1.5546,1.538,1.4987,1.4718,0.0,0.0,0.0,0.0,0.0,1.3946,1.4195,0.0,1.5409,1.5703,1.5742,0.0,0.0,0.0,0.0,1.5586,1.5762,1.5762,1.6222,1.6812,1.7206,1.7637,1.791,1.7715,0.0,0.0,0.0,1.7235,1.7422,1.7804,1.7929,1.8395,1.9869,1.8914,1.8625,2.0497,2.1645,2.3079,2.5161,2.6539,2.7858,2.9329,3.0335,3.0587,2.9844,3.0509,3.0587,2.9844,3.0316,3.0449,3.0195,3.0,2.9805,2.9609,2.9805,2.9707,2.9277,2.9023,2.8926,2.8906,2.8476,2.8301,2.8301,2.8301,2.8301,2.8301,2.8301,2.8301,2.8223,2.7578,2.7187,2.6934,2.6269,2.5849,2.5693,0.0,0.0,0.0,0.0,0.0,0.0,0.0,0.0,0.0,0.0,0.0,0.0,0.0,0.0,0.0,0.0,0.0,0.0,0.0,0.0,0.0,0.0,0.0,1.6001,1.5188,1.5622,1.6655,1.8214,1.8729,1.9669,2.1003,2.0869,1.9682,1.7645,1.6407,1.5835,1.5842,1.6153,1.5815,1.509,1.4945,0.0,0.0,0.0,0.0,0.0,0.0,0.0,0.0,1.5429,1.5889,1.6046,1.6219,0.0,0.0,0.0,0.0,0.0,1.5566,1.6777,1.7969,1.7773,1.8091,1.8403,1.8008,0.0,0.0,0.0,1.7715,1.79,1.7856,1.8342,1.8865,1.9294,1.9176,1.9423,2.0614,2.2243,2.4226,2.6788,2.7484,2.8572,3.0606,3.0859,3.0898,3.0898,3.082,3.0781,3.0781,3.0351,3.0078,3.0,2.9648,2.9258,2.8828,2.9258,2.9258,2.8828,2.8828,2.8828,2.8809,2.8457,2.8301,2.8301,2.8301,0.0,2.8281,2.8223,2.8203,2.8144,2.7708,2.7246,2.6875,2.6445,2.6055,2.5693,0.0,0.0,0.0,0.0,0.0,0.0,0.0,0.0,0.0,0.0,0.0,0.0,0.0,0.0,0.0,0.0,0.0,0.0,0.0,0.0,0.0,1.5871,1.6189,1.6255,1.5948,1.6378,1.689,1.7385,1.8891,1.9994,2.0693,2.1306,2.0535,1.8553,1.7719,1.6965,1.6278,1.5967,1.5711,1.5504,1.4738,0.0,0.0,0.0,0.0,0.0,0.0,0.0,0.0,1.4292,1.4922,1.5391,1.4718,0.0,0.0,0.0,0.0,0.0,1.62,1.7213,1.7754,1.6672,1.7246,1.8008,1.7578,0.0,0.0,0.0,0.0,1.7915,1.9286,1.936,1.9787,2.1632,2.2138,2.236,2.2548,2.3761,2.5099,2.6347,2.7835,2.9133,3.0198,3.0664,3.0898,3.0898,3.0527,3.0293,3.0293,2.9902,2.9492,2.9121,2.9062,2.8809,2.8398,2.8809,2.8809,2.8398,2.8398,2.8398,2.8398,2.832,2.8301,2.8301,0.0,2.8301,2.8262,2.791,2.7806,2.7728,2.6894,2.6543,2.6426,2.5996,2.5752,2.5693,0.0,0.0,0.0,0.0,0.0,0.0,0.0,0.0,0.0,0.0,0.0,0.0,0.0,0.0,0.0,0.0,0.0,0.0,0.0,0.0,1.6173,1.6568,1.6516,1.6525,1.6688,1.7102,1.7878,1.8978,2.0172,2.1031,2.1607,2.0765,1.9687,1.8357,1.7246,1.66,1.6402,1.6061,1.5958,1.6029,0.0,0.0,0.0,0.0,0.0,0.0,0.0,0.0,0.0,0.0,1.4679,1.5352,1.4913,0.0,0.0,0.0,0.0,0.0,1.5859,1.6836,1.7519,1.6966,1.7754,1.8594,1.8164,1.8066,0.0,0.0,1.873,1.9141,2.0352,2.0664,2.1225,2.2846,2.425,2.5088,2.4752,2.5883,2.705,2.7989,2.8802,2.9623,3.0489,3.0762,3.0781,3.0527,3.0312,3.0098,2.9863,2.9453,2.9121,2.8926,2.8691,2.8496,2.8301,2.8476,2.8476,2.8301,2.8301,2.8301,2.8301,2.8301,2.8301,2.8301,0.0,2.8301,2.8262,2.7885,2.7728,2.763,2.6719,2.6387,2.6328,2.5849,2.5693,2.5693,0.0,0.0,0.0,0.0,0.0,0.0,0.0,0.0,0.0,0.0,0.0,0.0,0.0,0.0,0.0,0.0,0.0,0.0,0.0,0.0,1.6167,1.6917,1.6686,1.6925,1.7695,1.7935,1.8874,2.0532,2.1511,2.2247,2.2712,2.0707,1.9158,1.8064,1.69,1.6322,1.6259,1.6124,1.6124,1.6247,0.0,0.0,0.0,0.0,0.0,0.0,0.0,0.0,0.0,0.0,0.0,0.0,0.0,0.0,0.0,1.5547,1.541,1.5488,1.5781,1.6621,1.7402,1.75,1.834,1.9121,1.9102,1.8968,1.9085,1.9766,2.0156,2.0586,2.1229,2.1992,2.2887,2.4068,2.5994,2.7155,2.6732,2.7867,2.8914,2.9371,2.9694,3.0137,3.082,3.0898,3.0703,3.0234,3.0098,2.9863,2.9434,2.9004,2.8769,2.8769,2.8457,2.8301,2.8301,2.8301,2.8301,2.8301,2.8301,2.8301,2.8301,2.8301,2.8301,2.8281,2.8184,2.8144,2.8105,2.763,2.7415,2.7337,2.6523,2.623,2.6191,2.581,2.5693,2.5693,0.0,0.0,0.0,0.0,0.0,0.0,0.0,0.0,0.0,0.0,0.0,0.0,0.0,0.0,0.0,0.0,0.0,0.0,0.0,0.0,1.5851,1.6185,1.6515,1.7507,1.9298,1.8997,1.94,2.0605,2.2522,2.3484,2.3484,2.2047,2.0222,1.818,1.7881,1.7071,1.5943,1.5914,1.5914,1.5902,1.5578,0.0,0.0,0.0,0.0,0.0,0.0,0.0,0.0,0.0,0.0,0.0,0.0,0.0,1.6007,1.5547,1.541,1.5684,1.6914,1.7305,1.748,1.7871,1.8286,1.8948,2.0156,2.0117,2.0176,2.1445,2.1719,2.1758,2.1836,2.3144,2.4641,2.5956,2.7312,2.818,2.8175,2.9222,2.9757,2.9028,3.0062,3.082,3.0879,3.0898,3.0703,3.0234,2.9844,2.9434,2.8984,2.8574,2.834,2.834,2.832,2.8301,2.8301,2.8301,2.8301,2.8301,2.8301,2.8301,2.8301,2.8301,2.8301,2.8262,2.7943,2.7767,2.7708,2.6816,2.6484,2.6426,2.5908,2.5732,2.5732,2.5693,2.5693,2.5693,0.0,0.0,0.0,0.0,0.0,0.0,0.0,0.0,0.0,0.0,0.0,0.0,0.0,0.0,0.0,0.0,0.0,0.0,0.0,1.5633,1.5743,1.6206,1.6535,1.7402,1.8919,1.986,2.0801,2.1777,2.2549,2.2968,2.3057,2.1431,1.9865,1.8321,1.7344,1.6687,1.6217,1.5618,1.5698,1.6246,1.5862,1.5681,0.0,0.0,0.0,0.0,0.0,0.0,0.0,0.0,1.3717,1.4289,1.386,1.4629,1.5625,1.5449,1.541,1.5586,1.6378,1.7181,1.7812,1.7969,1.8926,1.9883,2.0117,2.0664,2.1426,2.2503,2.3364,2.3912,2.3912,2.4394,2.5254,2.6562,2.7851,2.8878,2.9413,3.0161,3.0393,2.9795,3.0161,3.0351,3.0098,3.0078,2.9883,2.9434,2.9258,2.8984,2.8555,2.8125,2.791,2.791,2.7637,2.75,2.75,2.75,2.75,2.75,2.8027,2.8301,2.8301,2.8301,2.8144,2.7891,2.7787,2.7519,2.7226,2.6621,2.6387,2.6348,2.5849,2.5693,2.5693,2.5693,2.5693,2.5693,0.0,0.0,0.0,0.0,0.0,0.0,0.0,0.0,0.0,0.0,0.0,0.0,0.0,0.0,0.0,0.0,0.0,0.0,1.574,1.5546,1.5635,1.6206,1.6535,1.7291,1.8578,2.0313,2.1619,2.2519,2.2793,2.2902,2.28,2.1214,1.995,1.8869,1.7461,1.69,1.6903,1.5644,1.5613,1.6337,1.5818,1.5678,0.0,0.0,0.0,0.0,0.0,0.0,0.0,0.0,1.3482,1.3899,1.3926,1.4609,1.5449,1.5586,1.5625,1.5684,1.6007,1.6816,1.7637,1.7773,1.9102,2.0469,2.084,2.1836,2.3008,2.4141,2.4863,2.5273,2.5273,2.5273,2.5664,2.6816,2.8203,2.9336,2.9922,3.0391,3.0508,3.0059,3.0,2.9883,2.9646,2.9626,2.9336,2.8769,2.8711,2.8535,2.8125,2.7695,2.7519,2.7708,2.7246,2.7012,2.7012,2.7012,2.7012,2.7031,2.7598,2.7891,2.7891,2.7891,2.7734,2.7461,2.7324,2.709,2.6777,2.6367,2.6191,2.6152,2.581,2.5693,2.5693,2.5693,2.5693,2.5693,0.0,0.0,0.0,0.0,0.0,0.0,0.0,0.0,1.7578,1.7578,1.7578,0.0,0.0,0.0,0.0,0.0,0.0,0.0,1.541,1.541,1.5605,1.6065,1.6484,1.7291,1.8559,2.0294,2.16,2.2519,2.3359,2.3452,2.2864,2.1743,2.0703,1.9844,1.8574,1.8008,1.7891,1.6152,1.5664,1.6026,1.5308,1.5153,1.5371,0.0,0.0,0.0,0.0,0.0,0.0,0.0,1.3618,1.3652,1.4512,1.5059,1.5488,1.5968,1.6085,1.6085,1.6105,1.6406,1.6804,1.7285,1.8672,2.0488,2.2613,2.3764,2.4922,2.666,2.6298,2.5693,2.5713,2.5693,2.5966,2.6875,2.8437,2.9607,2.957,2.9922,3.0039,2.9609,2.957,2.957,2.9607,2.9551,2.9199,2.8359,2.8281,2.8105,2.7728,2.7246,2.7207,2.7689,2.7226,2.7012,2.7012,2.7012,2.7012,2.7012,2.7012,2.7012,2.7012,2.7012,2.7012,2.6992,2.6562,2.6387,2.6348,2.5869,2.5693,2.5693,2.5693,2.5693,2.5693,2.5693,2.5693,2.5693,0.0,0.0,0.0,0.0,0.0,0.0,0.0,0.0,1.6389,1.6389,1.6304,0.0,0.0,0.0,0.0,0.0,0.0,0.0,1.5604,1.5468,1.5361,1.5319,1.5939,1.6445,1.6816,1.8828,2.0742,2.2519,2.2126,2.174,2.1273,2.0605,1.9806,1.8968,1.8578,1.8125,1.748,1.6035,1.584,1.6426,1.5311,1.5096,1.5371,0.0,0.0,0.0,0.0,0.0,0.0,0.0,0.0,0.0,1.3809,1.459,1.543,1.5566,1.585,1.6163,1.6445,1.6855,1.7441,1.8477,2.0019,2.1777,2.3613,2.4192,2.5078,2.7422,2.7226,2.6738,2.7031,2.6602,2.6367,2.6914,2.7949,2.8769,2.9062,2.9473,2.959,2.916,2.9121,2.9004,2.8691,2.8452,2.8178,2.7924,2.7578,2.7344,2.7207,2.6816,2.6641,2.6758,2.6348,2.6064,2.6064,2.6064,2.6064,2.6064,2.6064,2.6426,2.7012,2.7012,2.6855,2.6562,2.6445,2.6211,2.5918,2.5752,2.5693,2.5693,2.5693,2.5693,2.5693,2.5693,2.5693,2.5693,0.0,0.0,0.0,0.0,0.0,0.0,0.0,0.0,1.5691,1.5691,1.5633,1.5575,0.0,0.0,0.0,0.0,0.0,0.0,0.0,1.5488,1.54,1.5437,1.5841,1.6418,1.707,1.8535,1.9844,2.0937,2.0977,2.0742,2.0312,2.0391,2.0254,1.9922,1.9709,1.9163,1.8301,1.6992,1.6531,1.6609,1.5684,1.5478,1.5644,0.0,0.0,0.0,0.0,0.0,0.0,0.0,0.0,0.0,1.3457,1.416,1.4913,1.5117,1.5469,1.5928,1.6348,1.7031,1.793,1.9219,2.0977,2.2871,2.4766,2.5723,2.6699,2.8437,2.8125,2.7598,2.7871,2.7207,2.6777,2.7207,2.7988,2.8574,2.8652,2.9043,2.916,2.8711,2.8672,2.8496,2.8086,2.7812,2.7571,2.7187,2.6914,2.6758,2.6758,2.6367,2.6133,2.6133,2.583,2.5518,2.5167,2.5518,2.5596,2.5469,2.5596,2.5966,2.6454,2.6454,2.6367,2.6133,2.6133,2.5977,2.5674,2.5547,2.5586,2.5674,2.5547,2.5586,2.5693,2.5693,2.5693,2.5693,0.0,0.0,1.4978,1.5574,0.0,0.0,0.0,0.0,1.541,1.541,1.541,1.541,0.0,0.0,0.0,0.0,0.0,0.0,0.0,0.0,1.5586,1.6026,1.6183,1.6992,1.8559,1.8984,1.8984,1.8539,1.9785,2.0195,1.9824,2.0703,2.1387,2.1738,2.1346,2.0664,1.9707,1.8437,1.7389,1.659,1.6094,1.5968,1.6026,1.5948,0.0,0.0,0.0,0.0,0.0,0.0,0.0,0.0,1.3418,1.3821,1.425,1.4707,1.5137,1.5566,1.6085,1.7051,1.8301,1.9727,2.1736,2.3919,2.5996,2.7734,2.9023,2.9375,2.8867,2.834,2.834,2.7676,2.7266,2.7708,2.834,2.8691,2.834,2.8594,2.8672,2.8281,2.8242,2.8066,2.7708,2.763,2.7226,2.6445,2.6309,2.6289,2.6328,2.5879,2.5577,2.5635,2.5596,2.5187,2.4414,2.5167,2.543,2.5125,2.5449,2.5596,2.5635,2.5674,2.5693,2.5693,2.5635,2.5635,2.5596,2.5195,2.5254,2.5538,2.5215,2.5312,2.5635,2.5674,2.5693,2.5693,0.0,0.0,1.495,1.5409,0.0,0.0,0.0,0.0,0.0,1.541,0.0,0.0,0.0,0.0,0.0,0.0,0.0,0.0,0.0,0.0,1.5449,1.5547,1.6855,1.791,1.8578,1.8398,1.8242,1.8144,1.8715,1.8968,1.8909,2.0137,2.0801,2.0899,2.1113,2.0333,1.8792,1.7506,1.6699,1.6144,1.5,1.4941,1.5488,1.4777,1.4348,0.0,0.0,0.0,0.0,0.0,0.0,0.0,1.3743,1.427,1.4727,1.5156,1.5586,1.6124,1.6907,1.7337,1.8144,2.0801,2.3594,2.5898,2.6699,2.793,2.8848,2.8613,2.8691,2.8789,2.8789,2.8359,2.8047,2.8144,2.8027,2.8027,2.8262,2.8086,2.7963,2.7812,2.7865,2.7637,2.7187,2.6855,2.6582,2.6406,2.5742,2.5508,2.581,2.5137,2.4863,2.5195,2.4883,2.4609,2.4414,2.4609,2.4824,2.5106,2.4824,2.4883,2.5215,2.5586,2.5693,2.5674,2.5371,2.5215,2.5176,2.4746,2.4609,2.4727,2.498,2.5137,2.5254,2.5557,2.5693,2.5693,0.0,0.0,0.0,0.0,0.0,0.0,0.0,0.0,0.0,0.0,0.0,0.0,0.0,1.541,0.0,0.0,1.541,1.5312,1.5098,1.5293,1.5605,1.5985,1.7305,1.7896,1.7701,1.7715,1.75,1.707,1.7305,1.7832,1.8617,1.9746,2.0488,2.0898,2.1093,2.0235,1.8559,1.7896,1.7031,1.6026,1.5332,1.5332,1.5644,1.4972,1.4582,1.4394,1.3938,0.0,0.0,0.0,0.0,0.0,0.0,0.0,1.4258,1.464,1.5254,1.5937,1.6836,1.7812,1.9375,2.2598,2.4746,2.6289,2.7129,2.7851,2.832,2.8301,2.8633,2.8848,2.8652,2.8437,2.8223,2.8027,2.7865,2.7676,2.7676,2.75,2.7344,2.7344,2.7344,2.7187,2.6758,2.6523,2.6309,2.6094,2.5449,2.5176,2.541,2.4785,2.4434,2.4453,2.4434,2.4219,2.3764,2.4219,2.4434,2.4453,2.4434,2.4531,2.4766,2.5,2.505,2.505,2.4863,2.4746,2.4727,2.4297,2.4238,2.4414,2.4453,2.4707,2.5145,2.5332,2.5547,2.5693,0.0,0.0,0.0,0.0,0.0,0.0,0.0,0.0,0.0,0.0,0.0,0.0,0.0,1.541,1.541,0.0,0.0,0.0,1.5312,1.5371,1.5781,1.6551,1.7441,1.7598,1.6941,1.7168,1.6985,1.632,1.6242,1.707,1.8734,1.9473,2.0312,2.119,2.1034,2.0138,1.8695,1.8403,1.7441,1.6085,1.5928,1.5909,1.5928,1.5469,1.5078,1.4746,1.4348,1.3958,1.3555,1.3125,0.0,0.0,0.0,0.0,1.3594,1.3977,1.466,1.5488,1.6356,1.8305,2.0859,2.3867,2.5195,2.5966,2.709,2.7441,2.7656,2.8008,2.8418,2.8594,2.8242,2.8125,2.7949,2.7617,2.7552,2.7344,2.7051,2.6953,2.6914,2.6914,2.6914,2.6738,2.6309,2.6211,2.6016,2.5644,2.5137,2.493,2.4988,2.4473,2.4062,2.3809,2.4062,2.3803,2.3101,2.3803,2.4062,2.3789,2.4141,2.4258,2.4199,2.4199,2.4277,2.4414,2.4336,2.4316,2.4277,2.3848,2.3887,2.416,2.3906,2.4219,2.4863,2.4969,2.5234,2.5625,0.0,0.0,0.0,0.0,0.0,0.0,0.0,0.0,0.0,0.0,1.541,1.541,1.541,1.541,1.541,1.541,1.541,1.5254,1.4883,0.0,0.0,1.6163,1.7024,1.7578,1.7832,1.7135,1.6953,1.7239,1.6836,1.7519,1.9199,1.9316,2.0039,2.1171,2.0391,1.9766,1.9102,1.7584,1.6621,1.6026,1.5283,1.5176,1.5449,1.5039,1.4844,1.4785,1.4727,1.4414,1.3958,1.3574,1.3418,0.0,0.0,0.0,1.3594,1.3977,1.4473,1.5059,1.5948,1.8555,2.1307,2.2559,2.4316,2.5732,2.5908,2.6562,2.7109,2.7168,2.7539,2.7812,2.7806,2.7441,2.7168,2.7109,2.6797,2.666,2.6973,2.6699,2.6465,2.6465,2.6465,2.6309,2.581,2.5469,2.5262,2.5156,2.4414,2.4121,2.4473,2.3705,2.3457,2.3769,2.3477,2.3218,2.3101,2.3218,2.3432,2.3789,2.3848,2.3672,2.3257,2.3257,2.3666,2.4394,2.4023,2.3867,2.3848,2.3354,2.3218,2.3296,2.3672,2.3867,2.4004,2.4375,2.4785,2.5156,0.0,0.0,0.0,0.0,0.0,0.0,0.0,0.0,0.0,0.0,0.0,1.541,1.541,1.541,1.541,1.541,1.541,1.5332,1.5156,1.5312,1.5605,1.6065,1.6476,1.6621,1.6562,1.6426,1.6328,1.6269,1.6328,1.7363,1.9297,1.9531,2.0332,2.1543,2.0176,1.9453,1.918,1.7428,1.6484,1.6046,1.542,1.5254,1.5371,1.4941,1.4941,1.5098,1.4863,1.4668,1.4394,1.373,1.3516,1.3477,1.3223,0.0,0.0,0.0,1.4055,1.4824,1.666,1.8437,2.0177,2.2051,2.3223,2.4192,2.5421,2.5986,2.6426,2.6914,2.6973,2.7012,2.7266,2.7148,2.6934,2.6699,2.6504,2.6269,2.5977,2.5762,2.5566,2.5312,2.5273,2.5215,2.4972,2.4824,2.4707,2.4707,2.4141,2.3867,2.4062,2.3432,2.3179,2.3418,2.3198,2.3101,2.3101,2.3101,2.3198,2.3418,2.3418,2.3276,2.3101,2.3101,2.3296,2.3647,2.3452,2.3418,2.3418,2.3179,2.3101,2.312,2.3315,2.3574,2.3809,2.4004,2.4336,2.4707,0.0,0.0,0.0,0.0,0.0,0.0,0.0,0.0,0.0,0.0,0.0,1.541,1.541,0.0,0.0,0.0,1.541,1.5371,1.5254,1.5352,1.5508,1.5752,1.587,1.5772,1.541,1.5723,1.5831,1.5586,1.6016,1.7344,1.9453,1.9883,2.0898,2.2305,2.0684,1.9766,1.9355,1.7818,1.7031,1.6692,1.5879,1.5586,1.5527,1.5098,1.5137,1.5371,1.5059,1.4941,1.4824,1.4082,1.3828,1.375,1.3203,1.3047,0.0,0.0,0.0,1.4582,1.6758,1.7876,1.8929,2.1016,2.2031,2.293,2.4504,2.5128,2.5538,2.623,2.6113,2.5977,2.6289,2.6543,2.6582,2.6269,2.6133,2.582,2.5204,2.5028,2.4785,2.4453,2.4414,2.4414,2.4414,2.4316,2.4258,2.4258,2.3867,2.3633,2.3633,2.3276,2.3101,2.3101,2.3101,2.3101,2.3101,2.3101,2.3101,2.3101,2.3101,2.3101,2.3101,2.3101,2.3101,2.3101,2.3101,2.3101,2.3101,2.3101,2.3101,2.3101,2.3101,2.3296,2.3633,2.3633,2.3887,2.4258,0.0,0.0,0.0,0.0,0.0,0.0,0.0,0.0,0.0,0.0,0.0,1.541,1.541,1.541,1.541,1.541,1.541,1.5234,1.4872,1.5195,1.5254,1.4891,1.5234,0.0,1.541,1.543,1.5644,1.6065,1.6484,1.7759,1.9883,2.037,2.1701,2.3633,2.2324,2.1055,1.9824,1.889,1.8481,1.8325,1.6699,1.6065,1.6007,1.5547,1.5391,1.541,1.5391,1.5371,1.5312,1.4863,1.4727,1.457,1.375,1.3477,1.3398,0.0,0.0,0.0,1.5264,1.6777,1.8164,1.8676,2.0644,2.2539,2.2656,2.3613,2.4492,2.4551,2.4531,2.4531,2.4551,2.5187,2.5752,2.5732,2.541,2.5165,2.5125,2.4707,2.4434,2.4414,2.4414,2.4414,2.4414,2.4062,2.3828,2.3828,2.3418,2.314,2.314,2.3101,2.3101,2.3101,2.3101,2.3101,2.3101,2.3101,2.3101,2.3101,2.3101,2.3101,2.3101,2.3101,2.3101,2.3101,2.3101,2.3101,2.3101,2.3101,2.3101,2.3101,2.3101,2.3101,2.314,2.314,2.3437,2.3828,0.0,0.0,0.0,0.0,0.0,0.0,0.0,0.0,0.0,0.0,0.0,0.0,0.0,1.6239,1.6239,1.6239,1.5996,1.5791,1.5635,1.5488,1.5469,1.5635,1.5772,1.587,1.587,1.587,1.5762,1.5644,1.6094,1.7129,1.8711,1.9687,2.0566,2.1289,2.082,2.084,2.1035,1.8789,1.7988,1.813,1.7266,1.6738,1.6484,1.6297,1.6239,1.62,1.5937,1.587,1.5752,1.5048,1.4813,1.4687,1.4075,1.3704,1.3418,1.3032,1.3477,1.4231,1.4844,1.5889,1.6992,1.7988,1.9104,2.0196,2.1074,2.2266,2.3281,2.3555,2.4043,2.4414,2.4414,2.4668,2.4883,2.4883,2.4746,2.4551,2.4277,2.4121,2.3906,2.3588,2.3549,2.3549,2.3549,2.3457,2.3379,2.3379,2.3179,2.3101,2.3101,2.3101,2.3101,2.3101,2.3101,2.3101,2.3101,2.3101,2.3101,2.3101,2.3101,2.3101,2.3101,2.3101,2.3101,2.3101,2.3101,2.3101,2.3101,2.3101,2.3101,2.3101,2.3101,2.3101,2.3101,2.3101,2.3198,2.3379,0.0,0.0,0.0,1.541,0.0,1.5449,1.5605,1.5625,1.5781,1.623,0.0,0.0,0.0,0.0,1.6707,1.6707,1.6465,1.6289,1.6289,1.6016,1.5977,1.6269,1.6289,1.6289,1.6289,1.6289,1.6074,1.5625,1.6074,1.6875,1.8027,1.8987,1.9805,2.0294,1.9902,2.0352,2.1328,1.9473,1.875,1.8789,1.793,1.75,1.733,1.733,1.733,1.7291,1.7031,1.6836,1.6594,1.5576,1.5244,1.5146,1.4531,1.4036,1.3652,1.3379,1.3809,1.4387,1.4707,1.5439,1.6418,1.7676,1.8188,1.8734,2.0059,2.1016,2.1758,2.2249,2.2969,2.3613,2.375,2.3887,2.4082,2.4375,2.4297,2.4102,2.3828,2.3672,2.3457,2.314,2.3101,2.3101,2.3101,2.3101,2.3101,2.3101,2.3101,2.3101,2.3101,2.3101,2.3101,2.3101,2.2964,2.2886,2.2886,2.2886,2.2886,2.2886,2.3023,2.3101,2.3101,2.3101,2.3101,2.3101,2.3101,2.3101,2.3101,2.3101,2.3101,2.3101,2.3101,2.3101,2.3101,2.3101,2.3101,2.3101,1.541,1.541,1.5381,1.543,1.543,1.5586,1.6046,1.6124,1.6281,1.6668,0.0,0.0,0.0,0.0,0.0,1.6765,1.6746,1.6726,1.6726,1.6707,1.6707,1.6726,1.6726,1.6726,1.6726,1.6726,1.6523,1.6124,1.6523,1.7135,1.8008,1.8383,1.9494,2.1054,1.9863,1.9766,2.0586,2.0957,2.0918,2.0429,1.8711,1.8247,1.8637,1.8617,1.8637,1.8637,1.8617,1.8364,1.7852,1.6594,1.6144,1.6007,1.5126,1.4512,1.4133,1.4114,1.4434,1.4813,0.0,0.0,0.0,1.7617,1.7949,1.8281,1.9512,1.9824,1.998,2.0449,2.1211,2.1953,2.2383,2.2769,2.3315,2.4199,2.4023,2.3769,2.3769,2.3398,2.3101,2.3101,2.3101,2.3101,2.3101,2.3101,2.3101,2.3101,2.3081,2.3081,2.3081,2.3062,2.3062,2.3062,2.2715,2.25,2.25,2.25,2.2519,2.2519,2.2906,2.3101,2.3101,2.3101,2.3101,2.3101,2.3101,2.3101,2.3101,2.3101,2.3101,2.3101,2.3101,2.3101,2.3101,2.3101,2.3101,2.3101,1.541,1.541,1.5508,1.585,1.5909,1.6065,1.6484,1.6512,1.6699,0.0,0.0,0.0,1.8052,1.8398,1.8457,1.8091,1.7798,1.7519,1.7227,1.6882,1.6843,1.7187,1.7207,1.7207,1.7207,1.7207,1.6992,1.6512,1.6648,1.7012,0.0,0.0,1.8559,1.9319,1.9629,1.9707,1.9646,1.9121,1.9355,2.0,1.887,1.887,1.9531,1.9219,1.9297,1.9475,1.9219,1.9023,1.8789,1.7793,1.7461,1.7266,1.6105,1.5224,1.4551,1.4192,1.4434,1.4813,1.4813,0.0,0.0,0.0,0.0,0.0,1.7083,1.7852,1.8652,1.9082,1.9863,2.0684,2.1405,2.1639,2.1892,2.25,2.3008,2.3276,2.3276,2.3179,2.3101,2.3101,2.3101,2.3101,2.3101,2.3101,2.3101,0.0,2.2808,2.2676,2.2676,2.2402,2.2227,2.2227,2.2109,2.2051,2.2051,2.2363,2.2519,2.2519,2.2906,2.3101,2.3101,2.3101,2.3101,2.3101,2.3101,2.3101,2.3101,2.3101,2.3101,2.3101,2.3101,2.3101,2.3101,2.3101,2.3101,2.3101,1.541,1.5566,1.582,1.6269,1.6641,1.7031,1.7428,1.7642,1.7891,0.0,0.0,0.0,1.8887,0.0,1.957,1.8965,1.8516,1.813,1.793,1.75,1.735,1.7637,1.7637,1.7637,1.7637,1.7637,1.7441,1.7012,0.0,0.0,0.0,0.0,0.0,1.8364,1.8906,1.8984,1.873,1.8223,1.875,1.9883,1.957,1.9844,2.0469,2.0586,2.0781,2.0957,2.0723,2.0644,2.043,1.9023,1.8184,1.7559,1.6457,1.6007,1.5703,1.4902,1.5234,0.0,0.0,0.0,0.0,1.6367,0.0,0.0,1.6515,1.6946,1.7324,1.772,1.8481,1.9299,1.9982,2.0411,2.0762,2.1016,2.1736,2.236,2.2598,2.2617,2.2617,2.2617,2.2617,2.2617,2.2617,2.2617,2.2617,2.2617,2.2383,2.2246,2.2246,2.2012,2.1894,2.1894,2.1699,2.1621,2.1621,2.1855,2.207,2.2246,2.2676,2.2925,2.3101,2.3101,2.3101,2.3101,2.3101,2.3101,2.3101,2.3101,2.3101,2.3101,2.3101,2.3101,2.3101,2.3101,2.3101,2.3101,0.0,1.5801,1.6261,1.6746,1.75,1.8184,1.8676,1.9102,1.9394,0.0,1.959,0.0,0.0,0.0,0.0,0.0,1.9082,1.8715,1.8676,1.8325,1.8125,1.8086,1.8125,1.8105,1.8008,1.8047,1.7871,0.0,0.0,0.0,0.0,0.0,0.0,0.0,1.8008,1.8008,1.8008,1.8105,1.8809,1.9883,2.0351,2.082,2.1346,2.2148,2.248,2.2519,2.2519,2.2519,2.2207,2.0195,1.8613,1.7402,1.6692,1.6868,1.709,1.5957,1.6465,0.0,0.0,0.0,0.0,1.7598,1.6816,0.0,1.6953,1.6692,1.632,1.6602,1.7266,1.7949,1.8364,1.916,1.9707,1.9707,2.0411,2.1171,2.1738,2.1855,2.1894,2.1894,2.1894,2.1894,2.1894,2.1894,2.1894,2.1894,2.1836,2.1797,2.1738,2.1779,2.1779,2.1779,2.1367,2.1112,2.1112,2.1171,2.1465,2.1894,2.2305,2.2691,2.3101,2.3101,2.3101,2.3101,2.3101,2.3101,2.3101,2.3101,2.3101,2.3101,2.3101,2.3101,2.3101,2.3101,2.3101,2.3101,1.5889,1.6026,1.6457,1.7559,1.7891,1.8379,1.9492,1.9727,2.0039,2.0722,2.1465,0.0,0.0,0.0,0.0,0.0,2.0332,1.9531,1.918,1.9082,1.8887,1.85,1.8848,1.8711,1.8027,1.8305,1.8266,1.7891,0.0,0.0,0.0,0.0,0.0,0.0,1.8008,1.8008,1.8066,1.875,1.918,1.9453,1.9863,2.0723,2.1777,2.1953,2.2227,2.2519,2.2519,2.2519,2.2344,2.123,1.9728,1.8383,1.8613,1.7832,1.6843,1.6973,1.722,1.7376,1.72,1.7363,1.7519,1.7058,1.7467,0.0,1.6133,1.6484,1.6985,1.6359,1.6359,1.6711,1.748,1.8047,1.8379,1.8379,1.9102,2.0059,2.1171,2.166,2.1894,2.1894,2.1894,2.1894,2.1894,2.1894,2.1894,2.1894,2.1562,2.1211,2.0879,2.086,2.086,2.086,2.0781,2.0742,2.0742,2.1055,2.1465,2.1894,2.2305,2.2691,2.3101,2.3101,2.3101,2.3101,2.3101,2.3101,2.3101,2.3101,2.3101,2.3101,2.3101,2.3101,2.3101,2.3101,2.3101,2.3101,1.6046,1.6457,1.7161,1.8418,1.9004,1.9648,2.0723,2.1074,2.1445,2.2048,2.3276,0.0,2.3516,2.3281,0.0,0.0,0.0,0.0,0.0,1.9394,1.9199,1.8965,1.916,1.9082,1.8652,1.8598,1.85,1.8286,0.0,0.0,0.0,0.0,0.0,0.0,1.8008,1.8008,1.8047,1.8691,1.9082,1.9375,2.0469,2.1289,2.1953,2.2598,2.2832,2.2808,2.3066,2.2871,2.2383,2.1483,2.0625,1.9748,1.8926,1.8652,1.8477,1.7637,1.7832,1.8218,1.7559,1.7695,1.7949,1.7701,1.7642,0.0,0.0,1.6406,1.6406,1.6406,1.6055,1.6016,1.6894,1.7227,1.733,1.733,1.8086,1.8887,1.9494,2.0176,2.0586,2.0586,2.0586,2.0586,2.0586,2.0586,2.0586,2.0586,2.0391,2.0254,2.0234,2.0234,2.037,2.0605,2.0605,2.0605,2.0605,2.0781,2.123,2.1894,2.209,2.2539,2.3101,2.3101,2.3101,2.3101,2.3101,2.3101,2.3101,2.3101,2.3101,2.3101,2.3101,2.3101,2.3101,2.3101,2.3101,2.3101,1.6242,1.6836,1.7793,1.9062,1.9959,2.0781,2.1621,2.2187,2.2672,2.3257,2.4641,2.5117,2.3809,2.4043,2.3711,2.2185,0.0,0.0,2.0547,1.998,1.959,1.9414,1.9492,1.9453,1.9297,1.8987,1.8812,1.8715,0.0,0.0,0.0,0.0,0.0,0.0,0.0,1.8262,1.8281,1.8676,1.9141,1.9705,2.125,2.1836,2.1894,2.3086,2.332,2.3023,2.3516,2.3223,2.2519,2.1697,2.1385,2.1015,1.9316,1.9531,2.0175,1.8574,1.8789,1.9336,1.8379,1.8437,1.875,1.8734,1.8149,1.7506,0.0,0.0,0.0,1.6523,1.6035,1.5723,1.6336,1.6512,1.6512,1.6356,1.7116,1.7695,1.7539,1.8242,1.8887,1.9141,1.9082,1.9082,1.916,1.916,1.9199,1.9277,1.9297,1.9434,1.9785,1.9785,1.9961,2.0351,2.0429,2.0488,2.0488,2.0566,2.1055,2.1894,2.1797,2.2246,2.3101,2.3003,2.3023,2.3101,2.3101,2.3101,2.3101,2.3101,2.3101,2.3101,2.3101,2.3101,2.3101,2.3101,2.3101,2.3101,1.6707,1.7051,1.7793,1.9062,1.9668,2.0293,2.1132,2.1951,2.293,2.4121,2.4785,2.5215,2.5382,2.4492,2.4238,2.5089,2.3086,2.2073,2.2797,2.168,2.0625,1.9883,2.0215,2.0096,1.9297,1.9609,1.959,1.9219,1.8754,0.0,0.0,0.0,0.0,1.8539,1.8965,1.9141,1.918,1.959,2.0019,2.0546,2.1484,2.166,2.1366,2.2324,2.2617,2.2637,2.3023,2.3101,2.2945,2.2519,2.2129,2.1777,2.1523,2.0781,2.0098,2.0605,2.0625,2.0507,2.0723,2.1113,2.1094,1.959,1.998,2.0001,1.7369,0.0,1.7837,1.6457,0.0,1.5928,1.5625,0.0,0.0,1.5137,1.6055,1.657,1.582,1.6434,1.7408,1.8539,1.8344,1.8301,1.8637,1.8676,1.8831,1.9258,1.9297,1.9316,1.9355,1.9355,1.9375,1.9434,1.9785,1.998,1.998,2.041,2.1055,2.1875,2.1504,2.1912,2.3081,2.2711,2.275,2.3101,2.3101,2.3101,2.3101,2.3101,2.3101,2.3101,2.3101,2.3101,2.3101,2.3101,2.3101,2.3101,1.7148,1.7461,1.8144,1.9434,1.9805,2.0333,2.1717,2.3296,2.4446,2.4766,2.5889,2.6543,2.6484,2.5781,2.5312,2.5352,2.3906,2.293,2.2793,2.2051,0.0,2.1074,2.0996,2.0781,2.043,2.0078,1.9824,1.9648,1.9219,0.0,0.0,0.0,0.0,1.9023,1.9199,1.9297,1.9336,2.0,2.0254,2.0293,2.1426,2.1621,2.1346,2.2734,2.3262,2.3242,2.312,2.3101,2.2984,2.2363,2.2363,2.248,2.1738,2.1465,2.1406,2.1229,2.1054,2.0937,2.0859,2.1172,2.1269,2.0312,2.0059,1.9707,1.8149,1.7642,1.7428,1.7246,0.0,0.0,0.0,0.0,0.0,0.0,1.6152,1.6211,1.587,1.5898,1.6317,1.7369,1.735,0.0,1.7486,1.7506,1.7564,1.7793,1.8047,1.8281,1.8535,1.8769,1.9023,1.9277,1.9687,1.9922,1.9922,2.039,2.0879,2.1504,2.1288,2.1736,2.2773,2.2598,2.2734,2.3081,2.2847,2.2867,2.3081,2.2828,2.2867,2.3101,2.3101,2.3101,2.3101,2.3101,2.3101,2.3101,1.7734,1.7969,1.8516,1.9551,1.9941,2.0644,2.2266,2.375,2.4727,2.4863,2.5996,2.6836,2.6992,2.6855,2.666,2.6484,2.5586,2.4668,2.3809,2.3008,2.2383,2.1914,2.1582,2.1366,2.1366,2.0664,2.0273,2.0273,1.9727,1.9453,0.0,0.0,0.0,0.0,1.9707,1.9824,1.9863,2.0605,2.082,2.0703,2.168,2.1934,2.1834,2.3008,2.3516,2.3574,2.3198,2.3101,2.3003,2.2441,2.2637,2.2925,2.2009,2.2068,2.2422,2.1873,2.1639,2.1543,2.1328,2.1504,2.1561,2.0918,2.0233,1.9453,1.8754,1.7974,1.7506,1.793,1.7695,0.0,0.0,0.0,0.0,0.0,0.0,1.6007,1.5772,1.5547,1.5703,1.6465,1.6543,1.6543,0.0,1.6543,1.657,1.6687,1.7031,1.7383,1.7812,1.8091,1.8496,1.8926,1.9453,1.9746,1.9746,2.0331,2.0781,2.119,2.1073,2.1504,2.2344,2.2207,2.236,2.275,2.2598,2.2676,2.2906,2.2711,2.2828,2.3101,2.3101,2.3101,2.3101,2.3101,2.3101,2.3101,1.8559,1.8578,1.8734,1.9219,2.0038,2.1036,2.2305,2.2227,2.2598,2.4219,2.4492,2.5156,2.6836,2.7383,2.8281,2.9883,2.8867,2.7793,2.6934,2.5273,2.3594,2.1953,2.1875,2.1855,2.1855,2.1426,2.1151,2.1151,2.0274,1.9883,0.0,0.0,0.0,0.0,2.0742,2.1132,2.1171,2.166,2.207,2.2441,2.248,2.2691,2.3003,2.2695,2.2769,2.312,2.3101,2.3101,2.3081,2.3062,2.3081,2.3081,2.3042,2.2769,2.2578,2.2925,2.275,2.2559,2.2906,2.3023,2.273,2.1483,2.0859,2.0233,1.889,1.8926,1.8984,1.8164,1.8652,1.8828,1.7617,0.0,0.0,0.0,0.0,0.0,0.0,1.5156,1.5586,1.6065,1.6124,1.6124,1.6124,1.6124,1.63,1.6668,1.6707,1.6953,1.7383,1.7422,1.7617,1.8047,1.8867,1.9316,1.9316,2.0175,2.0781,2.119,2.0801,2.1094,2.1894,2.1424,2.1504,2.1953,2.2344,2.2519,2.2559,2.2906,2.3081,2.3101,2.3101,2.3101,2.3101,2.3101,2.3101,2.3101,1.9062,1.9297,1.9531,1.9668,1.9941,2.0664,2.2266,2.3105,2.4277,2.6309,2.7051,2.8281,3.0586,3.0723,3.0996,3.1836,3.0469,2.9062,2.793,2.6523,2.5195,2.4088,2.3501,2.3008,2.2777,2.2305,2.1953,2.166,2.1074,2.0742,0.0,0.0,0.0,0.0,2.0977,2.119,2.1268,2.2305,2.2656,2.2539,2.2769,2.3315,2.3861,2.3159,2.2964,2.3101,2.3101,2.3101,2.3101,2.3101,2.3101,2.3101,2.3101,2.3003,2.2906,2.3062,2.2984,2.2906,2.3062,2.3101,2.2867,2.1914,2.1328,2.0742,1.9707,1.959,1.9551,1.8965,1.9082,1.9062,1.834,0.0,0.0,0.0,0.0,0.0,0.0,1.5312,1.5469,1.5605,1.5625,1.5625,1.5625,1.5625,1.5684,1.581,1.6133,1.6484,1.6902,1.7227,1.7695,1.8364,1.8984,1.9414,1.9687,2.0312,2.0683,2.0781,2.0683,2.0879,2.1445,2.1268,2.158,2.2285,2.2168,2.2422,2.2867,2.2773,2.2847,2.3101,2.3101,2.3101,2.3101,2.3101,2.3101,2.3144,1.9531,1.9863,2.0098,1.9941,2.0293,2.1094,2.2519,2.4082,2.5781,2.7637,2.875,3.0371,3.2969,3.2871,3.291,3.3652,3.2539,3.0937,2.8887,2.8125,2.6953,2.5204,2.4687,2.4199,2.3613,2.334,2.2832,2.2109,2.1992,2.1758,0.0,0.0,0.0,0.0,2.1269,2.1465,2.1543,2.2676,2.2988,2.2754,2.2984,2.3432,2.3906,2.3296,2.3276,2.351,2.3198,2.3101,2.3101,2.3101,2.3101,2.3101,2.3101,2.3101,2.3101,2.3101,2.3101,2.3101,2.3101,2.3101,2.2925,2.2285,2.1777,2.123,2.0352,2.0273,2.0215,1.9629,1.9766,1.9805,1.9163,0.0,0.0,0.0,0.0,0.0,0.0,1.541,1.541,1.541,1.541,1.541,1.541,1.541,1.541,1.541,1.5664,1.6094,1.6668,1.6992,1.7617,1.8578,1.9062,1.9492,1.9902,2.039,2.0605,2.0605,2.0605,2.0801,2.119,2.119,2.158,2.2285,2.2168,2.2422,2.2867,2.275,2.2847,2.3101,2.3101,2.3101,2.3101,2.3101,2.3101,2.3144,2.0059,2.0332,2.0546,2.0117,2.1074,2.2207,2.3003,2.5,2.6875,2.8242,2.9551,3.1328,3.3926,3.3828,3.4082,3.5351,3.5019,3.332,3.0037,3.0098,2.8789,2.5478,2.5664,2.5401,2.4531,2.4473,2.3828,2.2578,2.2949,2.2758,0.0,0.0,0.0,0.0,2.1719,2.1914,2.1973,2.2769,2.312,2.314,2.314,2.3159,2.3159,2.312,2.3627,2.4316,2.3393,2.3101,2.3101,2.3101,2.3101,2.3101,2.3101,2.3101,2.3101,2.3101,2.3101,2.3101,2.3101,2.3101,2.3003,2.2637,2.2227,2.1699,2.0899,2.0996,2.1015,2.0157,2.0625,2.0937,2.0098,0.0,0.0,0.0,0.0,0.0,0.0,1.5449,1.5449,1.5449,1.543,1.541,1.541,1.541,1.541,1.541,1.541,1.5771,1.6648,1.6707,1.7291,1.8598,1.9062,1.9492,1.9941,2.039,2.0625,2.0644,2.0644,2.084,2.1229,2.1229,2.1504,2.1934,2.2344,2.2519,2.2578,2.2925,2.3101,2.3101,2.3101,2.3101,2.3101,2.3101,2.3101,2.3144,2.0878,2.125,2.1602,2.1816,2.2129,2.2637,2.3496,2.5195,2.7305,2.9883,3.1601,3.3457,3.5762,3.5898,3.5976,3.6309,3.5644,3.4414,3.2559,3.1953,3.0741,2.8569,2.791,2.709,2.5898,2.5234,2.4434,2.3457,2.293,2.2578,2.2344,0.0,0.0,0.0,0.0,2.2363,2.2402,2.3262,2.3633,2.3652,2.3965,2.4082,2.4023,2.3335,2.3627,2.4316,2.3393,2.3101,2.3101,2.3101,2.3101,2.3101,2.3101,2.3101,2.3101,2.3101,2.3101,2.3101,2.3101,2.3101,2.3062,2.2964,2.2656,2.2285,2.207,2.2109,2.2031,2.1484,2.1309,2.1034,2.0508,0.0,0.0,0.0,0.0,0.0,0.0,1.5928,1.5928,1.5928,1.5605,1.541,1.541,1.541,1.541,1.541,1.541,1.5771,1.6648,0.0,1.7428,1.9062,1.9238,1.9648,2.0391,2.0546,2.0742,2.1055,2.1055,2.1289,2.1719,2.1719,2.1953,2.2363,2.2461,2.2695,2.2945,2.3042,2.3101,2.3101,2.3101,2.3101,2.3101,2.3101,2.3232,2.3406,2.1522,2.2012,2.25,2.2711,2.3574,2.4434,2.5098,2.6191,2.7969,3.0801,3.248,3.4023,3.5625,3.6152,3.6465,3.666,3.6055,3.5039,3.3516,3.3164,3.2051,2.9941,2.9199,2.8164,2.6699,2.5996,2.5039,2.3789,2.3496,2.3144,2.273,0.0,0.0,0.0,0.0,2.2519,2.2559,2.3223,2.3711,2.4043,2.3906,2.3965,0.0,2.3354,2.3393,2.3744,2.3276,2.3101,2.3101,2.3101,2.3101,2.3101,2.3101,2.3101,2.3101,2.3101,2.3101,2.3101,2.3101,2.3101,2.3101,2.3101,2.2925,2.2734,2.2559,2.2519,2.2402,2.1973,2.1699,2.1387,2.0937,0.0,0.0,0.0,0.0,0.0,0.0,1.6348,1.6348,1.6348,1.6133,1.5918,1.5723,1.5527,1.541,1.541,1.5586,1.5996,1.6668,0.0,1.7715,1.9238,1.9473,1.9883,2.0605,2.0997,2.1172,2.119,2.1385,2.1738,2.2168,2.2168,2.2383,2.275,2.275,2.2886,2.3101,2.3101,2.3101,2.3101,2.3101,2.3101,2.3101,2.3101,2.3188,2.3363,2.2009,2.2695,2.3237,2.3198,2.5019,2.668,2.7324,2.791,2.9101,3.1465,3.2988,3.4101,3.4805,3.5664,3.6289,3.6562,3.6289,3.541,3.3789,3.3926,3.3008,3.0644,3.0019,2.8945,2.7226,2.666,2.5566,2.3867,2.4121,2.3822,2.3081,0.0,0.0,0.0,0.0,2.2598,2.2617,2.3003,2.3608,2.4277,2.3471,2.3457,2.375,2.3257,2.3101,2.3101,2.3159,2.314,2.3101,2.3101,2.3101,2.3101,2.3159,2.314,2.3101,2.3159,2.314,2.3101,2.3101,2.3101,2.3101,2.3101,2.3101,2.3003,2.2676,2.2598,2.248,2.2129,2.2012,2.1836,2.1366,0.0,0.0,0.0,0.0,1.7402,1.6921,1.6824,1.6785,1.6785,1.6746,0.0,1.63,1.5781,1.5488,1.5488,1.587,1.632,0.0,0.0,1.7969,1.9238,1.9648,2.0117,2.0762,2.1445,2.1699,2.1444,2.1816,2.2187,2.2598,2.2598,2.275,2.3101,2.3101,2.3101,2.3101,2.3101,2.3101,2.3101,2.3101,2.3101,2.3101,2.3144,2.3144,2.3232,2.2379,2.3359,2.4082,2.373,2.5469,2.7519,2.9355,3.0625,3.1797,3.293,3.4844,3.6016,3.582,3.6562,3.6816,3.6191,3.6387,3.6133,3.5117,3.4434,3.3555,3.2383,3.1269,2.9844,2.8105,2.6973,2.5703,2.4316,2.3627,2.3237,2.3101,0.0,0.0,0.0,0.0,0.0,2.3023,2.3496,2.3769,2.3887,2.373,2.3711,2.375,2.3257,2.3101,2.314,2.3555,2.3437,2.3101,2.3101,2.3101,2.3159,2.3574,2.3437,2.3159,2.3574,2.3418,2.3101,2.3101,2.3101,2.3101,2.3101,2.3101,2.3081,2.3003,2.2984,2.2964,2.2886,2.2637,2.2266,2.1855,0.0,0.0,0.0,1.8711,1.8247,1.7852,1.748,1.7266,1.7266,1.6953,1.6804,1.7129,1.6457,1.5987,1.5987,1.6046,1.6457,0.0,0.0,1.7969,0.0,1.9355,2.0117,0.0,0.0,2.1836,2.2875,2.2539,2.2617,2.2984,2.2984,2.3023,2.3101,2.3101,2.3101,2.3101,2.3101,2.3101,2.3101,2.3101,2.3101,2.3144,2.3363,2.3406,2.345,2.3583,2.3932,2.4567,2.5644,2.7012,2.873,3.0898,3.25,3.3457,3.3437,3.4141,3.4668,3.4668,3.584,3.6465,3.6055,3.6211,3.6152,3.5742,3.4687,3.3789,3.3144,3.168,3.0176,2.8652,2.7148,2.5859,2.4746,2.3672,2.3101,2.3101,0.0,0.0,2.3101,0.0,2.3218,0.0,2.3691,2.4043,2.4434,2.4199,2.4258,2.4394,2.3965,2.3764,2.3783,2.4043,2.3984,2.3725,2.3555,2.3477,2.3477,2.3457,2.3457,2.3477,2.3457,2.3457,2.3437,2.3159,2.3101,2.3101,2.3101,2.3101,2.3101,2.3101,2.3101,2.3101,2.3101,2.2945,2.2594,2.2012,2.0996,0.0,1.9687,1.9258,1.8828,1.8364,1.813,1.7949,1.7734,1.7519,1.7383,1.7383,1.7024,1.6692,1.6426,1.6652,1.6966,0.0,0.0,1.8203,0.0,0.0,0.0,2.1543,0.0,2.2207,2.2832,2.2832,2.2906,2.3101,2.3101,2.3101,2.3101,2.3101,2.3101,2.3101,2.3101,2.3101,2.3101,2.3101,2.3188,2.3319,2.345,2.3624,2.3904,2.489,2.4881,2.546,2.7598,2.8945,3.0312,3.2031,3.375,3.4609,3.3926,3.3711,3.3711,3.3945,3.5371,3.6211,3.6035,3.6094,3.6074,3.5898,3.4668,3.375,3.3301,3.1758,3.0273,2.8945,2.7441,2.6133,2.5106,2.3867,2.3179,2.3101,0.0,0.0,0.0,0.0,2.3379,2.3789,2.3789,2.4277,2.5086,2.459,2.4668,2.5067,2.459,2.4414,2.4434,2.4531,2.4551,2.4512,2.418,2.4004,2.3887,2.3633,2.3711,2.3867,2.3588,2.373,2.3848,2.3471,2.3374,2.3354,2.3257,2.3237,2.3198,2.312,2.3101,2.3101,2.3101,2.3023,2.2769,2.2148,2.1309,0.0,2.0254,1.9766,1.9297,1.8929,1.8715,1.8481,1.8184,1.8066,1.7871,1.7559,1.7519,1.7363,1.6999,1.7246,1.7422,1.7519,0.0,0.0,0.0,0.0,2.0332,2.1463,0.0,2.2519,2.2793,2.2984,2.3101,2.3101,2.3101,2.3101,2.3101,2.3101,2.3101,2.3101,2.3101,2.3101,2.3101,2.3144,2.3319,2.3493,2.36,2.3904,2.4206,2.5649,2.6652,2.7656,2.8633,3.082,3.25,3.2695,3.4219,3.5293,3.5215,3.5859,3.6172,3.582,3.6621,3.6875,3.6094,3.6387,3.6289,3.5508,3.4219,3.3301,3.2871,3.1601,3.0273,2.8945,2.8008,2.6789,2.5106,2.416,2.3516,2.3101,2.3101,0.0,0.0,2.3101,2.3379,2.3789,2.3789,2.4277,2.5086,2.459,2.4668,2.5067,2.459,2.4414,2.4473,2.4863,2.5,2.5047,2.5008,2.4687,2.4414,2.4766,2.4648,2.4434,2.4785,2.4629,2.4355,2.4316,2.4297,2.4199,2.3828,2.373,2.3633,2.3179,2.3101,2.3101,2.3101,2.2789,2.2539,2.2461,2.1717,2.1112,0.0,2.0372,1.9844,1.9805,1.9085,1.8578,1.8559,1.8208,1.7988,1.7949,1.7949,1.793,1.7891,1.7578,1.7559,0.0,0.0,0.0,1.9258,1.9336,2.0332,2.2383,2.209,2.2519,2.3672,2.332,2.3101,2.3101,2.3101,2.3101,2.3101,2.3101,2.3101,2.3101,2.3101,2.3101,2.3144,2.3363,2.3493,2.3537,2.3991,2.4163,2.4249,2.7165,2.7756,2.8839,3.0859,3.168,3.2559,3.4121,3.4941,3.5391,3.5391,3.5684,3.5937,3.6016,3.6328,3.6387,3.6055,3.6172,3.6133,3.5801,3.4551,3.3613,3.3184,3.1953,3.0644,2.9336,2.8476,2.7207,2.5469,2.4863,2.4199,2.3535,2.3535,2.3379,2.3101,2.3418,2.3633,2.3828,2.4336,2.4793,2.5078,2.5176,2.5265,2.5449,2.5226,2.5167,2.5187,2.541,2.5469,2.5469,2.5469,2.5176,2.4785,2.4707,2.4727,2.4785,2.4707,2.4746,2.4746,2.4492,2.4414,2.4375,2.4199,2.3984,2.375,2.3574,2.3276,2.3101,2.3101,2.2964,2.2812,2.2559,2.2031,2.1543,2.1229,0.0,2.0215,1.9941,1.9609,1.9182,1.8656,1.8461,1.8247,1.8027,1.8008,1.8105,1.8325,1.8008,1.7832,0.0,0.0,0.0,1.9277,0.0,2.0723,2.2129,2.2227,2.2656,2.3398,2.3179,2.3101,2.3101,2.3101,2.3101,2.3101,2.3101,2.3101,2.3101,2.3101,2.3101,2.3101,2.3232,2.345,2.3711,2.3884,2.4163,2.4378,2.8597,2.8994,3.0045,3.2587,3.2704,3.3097,3.4922,3.5312,3.5391,3.5391,3.5391,3.5547,3.5976,3.6016,3.6016,3.6016,3.6016,3.5918,3.5644,3.4648,3.3769,3.3086,3.207,3.0957,2.9785,2.8906,2.7695,2.6064,2.5547,2.4766,2.3789,2.3789,2.3691,2.3491,2.3828,2.4043,2.4199,2.4851,2.5184,2.5293,2.5605,2.5693,2.5693,2.5693,2.5693,2.5693,2.5693,2.5693,2.5693,2.5693,2.5527,2.5215,2.4902,2.5019,2.5195,2.4902,2.5019,2.5195,2.4883,2.4758,2.4766,2.4648,2.4375,2.4102,2.3848,2.3555,2.3257,2.312,2.3101,2.3003,2.2711,2.2363,2.1934,2.1504,0.0,0.0,2.0176,2.0,1.9687,1.9046,1.887,1.8676,1.8418,1.8379,1.8516,1.8773,1.8555,0.0,0.0,0.0,0.0,0.0,0.0,0.0,2.1875,2.2305,2.2672,2.3101,2.3101,2.3101,2.3101,2.3101,2.3101,2.3101,2.3101,2.3101,2.3101,2.3101,2.3101,2.3101,2.3188,2.345,2.3797,2.3884,2.4143,2.4507,2.9729,3.0625,3.1612,3.3315,3.4239,3.4729,3.47,3.5098,3.5391,3.5391,3.5391,3.5547,3.5976,3.6016,3.6016,3.6016,3.6016,3.5644,3.4766,3.4316,3.3516,3.2307,3.1758,3.1094,3.0215,2.9355,2.8281,2.6992,2.6103,2.5059,2.3789,2.3789,2.4004,2.4394,2.4414,2.4648,2.5106,2.5106,2.5332,2.5674,2.5693,2.5693,2.5693,2.5693,2.5693,2.5693,2.5693,2.5693,2.5693,2.5693,2.5693,2.5674,2.5674,2.5674,2.5674,2.5674,2.5674,2.5674,2.5674,2.5674,2.5557,2.5176,2.5106,2.4871,2.3984,2.3789,2.3652,2.3179,2.3101,2.3101,2.3081,2.275,2.2363,2.1953,0.0,0.0,0.0,2.0195,1.9902,1.9902,1.9531,1.9277,1.9277,1.9277,1.9277,1.9277,1.9277,0.0,0.0,0.0,0.0,1.9883,2.0332,0.0,2.1875,2.2305,2.2672,2.3101,2.3101,2.3101,2.3101,2.3101,2.3101,2.3101,2.3101,2.3101,2.3101,2.3101,2.3101,2.3144,2.3406,2.3624,2.3841,2.412,2.4335,2.4507,3.0792,3.1967,3.2957,3.3489,3.4224,3.4731,3.4726,3.5098,3.5273,3.4961,3.5195,3.5449,3.5586,3.5586,3.5469,3.5156,3.5117,3.5,3.4726,3.4023,3.332,3.2617,3.1894,3.1094,3.0215,2.9648,2.873,2.7461,2.7187,2.6387,2.5117,2.4805,2.457,2.4434,2.4727,2.4941,2.5145,2.5391,2.5557,2.5693,2.5693,2.5693,2.5693,2.5693,2.5693,2.5693,2.5693,2.5693,2.5693,2.5693,2.5693,2.5693,2.5693,2.5693,2.5693,2.5693,2.5693,2.5693,2.5693,2.5693,2.5654,2.5566,2.5293,2.5047,2.4773,2.4219,2.3672,2.3179,2.3101,2.3101,2.3101,2.275,2.2383,2.1953,2.1523,0.0,2.0664,2.0488,2.0254,1.9941,1.9805,1.9609,1.9316,1.9297,1.9414,1.9687,1.9453,0.0,0.0,0.0,0.0,0.0,2.1114,0.0,2.2305,2.2734,2.2964,2.3101,2.3101,2.3101,2.3101,2.3101,2.3101,2.3101,2.3101,2.3101,2.3101,2.3101,2.3101,2.3101,2.3188,2.345,2.3837,2.427,2.4655,2.5003,3.15,3.2445,3.3306,3.3566,3.4243,3.4712,3.4512,3.4844,3.498,3.4531,3.4707,3.4961,3.5117,3.5137,3.5156,3.5195,3.5195,3.5059,3.4726,3.4199,3.3496,3.2598,3.2051,3.1348,3.0469,3.0019,2.9336,2.8432,2.7734,2.7012,2.6161,2.5762,2.5508,2.541,2.5684,2.5703,2.5586,2.5859,2.583,2.5693,2.5693,2.5693,2.5693,2.5693,2.5693,2.5693,2.5693,2.5693,2.5693,2.5693,2.5693,2.5693,2.5693,2.5693,2.5693,2.5693,2.5693,2.5693,2.5693,2.5693,2.5693,2.5693,2.5527,2.5273,2.5145,2.4531,2.3906,2.3432,2.3379,2.3296,2.312,2.2886,2.2617,2.2187,2.1758,2.1328,2.0879,2.0703,2.0507,2.0195,2.0312,2.0234,1.9842,1.9922,2.0059,0.0,0.0,0.0,0.0,0.0,2.0352,2.0801,2.166,2.2246,2.2519,2.2886,2.3101,2.3101,2.3257,2.3379,2.3379,2.351,2.3569,2.3569,2.3569,2.3491,2.3379,2.3379,2.3237,2.312,2.3408,2.3731,2.4142,2.4694,2.5169,2.5482,3.1771,3.2245,3.2767,3.3462,3.42,3.4602,3.4096,3.4394,3.4512,3.4082,3.4062,3.4219,3.4609,3.4648,3.5,3.5859,3.5937,3.5566,3.4707,3.4609,3.3848,3.2307,3.2109,3.1699,3.0918,3.043,2.998,2.9531,2.7891,2.709,2.7051,2.6621,2.6641,2.7012,2.7012,2.6797,2.6426,2.6426,2.6191,2.5771,2.5752,2.5732,2.5732,2.5693,2.5693,2.5693,2.5693,2.5693,2.5693,2.5693,2.5693,2.5693,2.5732,2.5732,2.5732,2.5693,2.5693,2.5693,2.5693,2.5693,2.5693,2.5693,2.5693,2.5577,2.5176,2.4746,2.4336,2.3926,2.3809,2.3672,2.3218,2.312,2.2964,2.2578,2.2168,2.1738,2.1288,2.0898,2.0664,2.0683,0.0,0.0,2.0742,2.1016,2.1074,0.0,0.0,0.0,0.0,0.0,2.0898,2.1268,2.209,2.2519,2.2559,2.2906,2.312,2.314,2.3633,2.3828,2.3848,2.4238,2.4414,2.4414,2.4414,2.4199,2.3828,2.3873,2.3594,2.3262,2.4004,2.4386,2.467,2.5386,2.5776,2.5875,3.1827,3.244,3.3017,3.3059,3.3701,3.4135,3.3652,3.3945,3.4062,3.3633,3.3867,3.4121,3.4219,3.4219,3.4434,3.4961,3.5019,3.4785,3.4258,3.3613,3.293,3.2207,3.1543,3.1094,3.0898,3.043,2.9824,2.9082,2.834,2.7832,2.75,2.707,2.6914,2.7012,2.7012,2.6953,2.6875,2.6875,2.6797,2.668,2.6367,2.623,2.6191,2.5859,2.5693,2.5693,2.5693,2.5693,2.5693,2.5693,2.5693,2.5752,2.6133,2.623,2.6172,2.5791,2.5693,2.5693,2.5693,2.5693,2.5693,2.5693,2.5693,2.5577,2.5176,2.5028,2.4785,2.4355,2.4004,2.3769,2.3652,2.3315,2.2964,2.2578,2.2168,2.1855,2.1738,2.1348,2.1191,0.0,2.166,2.168,2.1582,2.1367,2.1328,0.0,0.0,2.1346,2.1719,2.1934,2.209,2.2207,2.2402,2.2676,2.2945,2.3042,2.3257,2.3633,2.4062,2.4277,2.4277,2.4375,2.4414,2.4414,2.4414,2.4355,2.4258,2.4461,2.4493,2.4459,2.4806,2.5118,2.5406,2.588,2.6228,2.648,3.2038,3.2483,3.2879,3.3077,3.3661,3.3926,3.3496,3.3789,3.3926,3.3476,3.3633,3.3848,3.4043,3.4082,3.4238,3.4668,3.4707,3.4434,3.3809,3.334,3.2715,3.1914,3.1426,3.1094,3.0898,3.0644,3.0078,2.9219,2.8984,2.8555,2.7949,2.7715,2.7598,2.7598,2.7598,2.75,2.7305,2.7305,2.7207,2.6992,2.6758,2.668,2.6641,2.6406,2.6278,2.6278,2.6278,2.6278,2.6278,2.6278,2.6278,2.6317,2.6602,2.668,2.6621,2.6387,2.6278,2.6278,2.6278,2.6172,2.5996,2.5732,2.5693,2.5635,2.543,2.5371,2.5254,2.4805,2.4375,2.4023,2.3828,2.3437,2.3023,2.2789,2.2441,2.2168,2.2168,2.1797,2.1621,2.1855,2.2051,2.209,2.1894,2.1836,2.1836,2.1875,2.1836,0.0,2.2168,2.2754,2.291,2.2519,2.2695,2.2964,2.3437,2.3588,2.3803,2.4082,2.4512,2.4707,2.4727,2.4922,2.4972,2.4972,2.4972,2.4902,2.4754,2.5006,2.498,2.4868,2.5436,2.5747,2.5946,2.6469,2.6775,2.6936,3.2294,3.2422,3.2613,3.3292,3.373,3.3848,3.3476,3.373,3.3848,3.3476,3.3418,3.3555,3.3945,3.3965,3.4121,3.4473,3.4512,3.4219,3.3555,3.3457,3.2871,3.168,3.1562,3.1328,3.0898,3.0898,3.0488,2.9668,2.9646,2.916,2.8379,2.832,2.8301,2.8301,2.8359,2.8184,2.7904,2.7982,2.7695,2.7305,2.7226,2.7168,2.7109,2.7031,2.7012,2.7012,2.7012,2.7012,2.7012,2.7012,2.7012,2.7031,2.709,2.7109,2.7129,2.7187,2.7207,2.7187,2.7051,2.6758,2.6387,2.6016,2.5888,2.5888,2.5888,2.5888,2.5752,2.5352,2.4922,2.4473,2.3965,2.3535,2.3179,2.3101,2.275,2.2539,2.2598,0.0,2.2012,2.207,2.2383,2.2461,2.2109,2.2402,2.2461,2.2109,2.2461,2.2715,2.2715,2.3457,2.3555,2.2832,2.3101,2.3516,2.3887,2.4297,2.4512,2.4531,2.4961,2.5176,2.5176,2.5566,2.5693,2.5693,2.5693,2.5527,2.5223,2.5461,2.5384,2.5133,2.6006,2.6335,2.6423,2.707,2.7309,2.7247,3.2294,3.2422,3.2613,3.3292,3.3476,3.3496,3.3437,3.3476,3.3496,3.3437,3.3418,3.3437,3.3516,3.3516,3.3555,3.3613,3.3613,3.3711,3.3945,3.3633,3.3008,3.2109,3.1719,3.1328,3.0898,3.0898,3.0625,3.0098,2.9746,2.9316,2.8809,2.8457,2.8301,2.8301,2.8672,2.8789,2.875,2.9121,2.9023,2.8594,2.8242,2.7891,2.7519,2.7148,2.7012,2.7012,2.7012,2.7012,2.7012,2.7012,2.7012,2.709,2.7441,2.7559,2.7637,2.7988,2.8086,2.793,2.7207,2.6973,2.6894,2.6836,2.6816,2.6816,2.6816,2.6816,2.6699,2.6269,2.584,2.5226,2.4473,2.3984,2.3574,2.3159,2.275,2.2637,2.2945,0.0,2.2539,2.2847,2.2964,2.2964,2.2906,2.3008,2.3027,2.2906,2.334,2.3594,2.3594,2.4062,2.4258,2.4121,2.418,2.4258,2.4316,2.4746,2.4961,2.5028,2.541,2.5625,2.5596,2.5654,2.5693,2.5693,2.5693,2.5654,2.5625,2.5915,2.6116,2.6247,2.6662,2.6921,2.7158,2.7289,2.7309,2.7289,3.2294,3.2422,3.2613,3.3292,3.3418,3.3418,3.3418,3.3418,3.3418,3.3418,3.3418,3.3418,3.3418,3.3418,3.3418,3.3418,3.3418,3.3496,3.3711,3.332,3.2715,3.1855,3.1621,3.1328,3.0898,3.0898,3.0664,3.0195,3.0,2.9687,2.9258,2.9062,2.8984,2.8984,2.8945,2.8926,2.8926,2.9141,2.9101,2.8906,2.8711,2.8516,2.8301,2.7871,2.7695,2.7695,2.7695,2.7715,2.7715,2.7715,2.7715,2.7734,2.7949,2.8008,2.8047,2.8242,2.8301,2.8144,2.7539,2.7363,2.7305,2.707,2.7012,2.7012,2.7012,2.7012,2.6953,2.6758,2.6191,2.5557,2.5148,2.4394,2.3789,2.3783,2.3237,2.3008,2.3437,2.332,2.3281,2.3457,2.3691,2.3783,2.3783,2.3828,2.3828,2.3783,2.4004,2.4121,2.4121,2.4531,2.4766,2.4766,2.4766,2.4766,2.4766,2.5215,2.543,2.543,2.5596,2.5693,2.5693,2.5693,2.5693,2.5693,2.5693,2.5693,2.5742,2.6014,2.6255,2.6544,2.6805,2.7092,2.7357,2.7857,2.8045,2.8117,3.2166,3.2294,3.2485,3.3165,3.3292,3.3292,3.3355,3.3418,3.3418,3.3418,3.3418,3.3418,3.3418,3.3418,3.3418,3.3418,3.3418,3.3418,3.3418,3.3125,3.2559,3.1699,3.1484,3.123,3.0898,3.0898,3.0723,3.0351,3.0254,3.0039,2.9707,2.9609,2.9626,2.9607,2.9316,2.9219,2.9219,2.9336,2.9316,2.9219,2.9219,2.916,2.9023,2.8594,2.8437,2.8418,2.832,2.8301,2.8301,2.8301,2.8359,2.8437,2.8437,2.8437,2.8457,2.8555,2.8594,2.8476,2.8002,2.7812,2.7734,2.7402,2.7305,2.7305,2.7305,2.7305,2.7285,2.7187,2.6641,2.6133,2.5869,2.498,2.4277,2.4394,0.0,2.3516,2.375,2.3867,2.3945,2.3945,2.4219,2.4414,2.4414,2.4512,2.457,2.457,2.4668,2.4727,2.4727,2.5039,2.5273,2.5419,2.5273,2.5215,2.5215,2.5664,2.5849,2.5849,2.5947,2.5986,2.5986,2.5937,2.5849,2.583,2.5732,2.5693,2.5742,2.5917,2.6207,2.6496,2.6757,2.7023,2.7404,2.8351,2.8678,2.8863,3.1846,3.1929,3.2166,3.2804,3.2931,3.3038,3.3355,3.3418,3.3418,3.3418,3.3418,3.3418,3.3418,3.3418,3.3418,3.3418,3.3418,3.3418,3.3418,3.3398,3.3008,3.2148,3.1367,3.0918,3.0898,3.0898,3.0879,3.084,3.041,3.0176,3.0137,2.9746,2.9626,2.959,2.9941,3.0098,3.0137,3.0566,3.0488,3.0098,3.0098,2.9863,2.9473,2.9043,2.8867,2.8828,2.8437,2.8301,2.8301,2.8301,2.8555,2.8867,2.8867,2.8867,2.8945,2.9355,2.9473,2.9297,2.8476,2.8242,2.8242,2.8203,2.8203,2.8203,2.8203,2.8203,2.8086,2.7748,2.7611,2.7337,2.6484,2.5937,2.5284,2.4551,0.0,0.0,2.3848,2.4121,2.4375,2.4375,2.4394,2.4414,2.4414,2.4785,2.5067,2.5067,2.541,2.5596,2.5596,2.5615,2.5879,2.6269,2.5898,2.5635,2.5635,2.6133,2.6348,2.6348,2.6738,2.6914,2.6914,2.6523,2.6348,2.6309,2.5869,2.5693,2.5693,2.5742,2.6014,2.6496,2.6496,2.6832,2.7404,2.8351,2.8678,2.8863,3.1846,3.1929,3.2038,3.2485,3.274,3.2912,3.3038,3.3292,3.3418,3.3418,3.3418,3.3418,3.3418,3.3672,3.3828,3.3828,3.4062,3.4101,3.3848,3.4062,3.3711,3.2598,3.1738,3.1269,3.1269,3.1016,3.0898,3.0898,3.0703,3.0625,3.0625,3.0469,3.0391,3.0391,3.0254,3.0195,3.0215,3.0391,3.0351,3.0195,3.0195,3.0098,2.9922,2.9492,2.9316,2.9297,2.9141,2.9082,2.9082,2.9082,2.9199,2.9316,2.9316,2.9316,2.9355,2.9531,2.9626,2.9548,2.918,2.9082,2.9082,2.9082,2.8887,2.8672,2.8672,2.8476,2.8242,2.8086,2.7851,2.7611,2.7297,2.6621,2.6113,2.6035,0.0,2.5226,2.5391,2.5547,2.5644,2.5644,2.5859,2.6035,2.6035,2.6172,2.6269,2.6269,2.6426,2.6523,2.6523,2.6523,2.6602,2.6777,2.6621,2.6523,2.6523,2.6699,2.6777,2.6777,2.6934,2.7012,2.7012,2.6855,2.6641,2.6387,2.6634,2.6516,2.6152,2.6824,2.6963,2.6899,2.7094,2.7221,2.7478,2.9026,2.9624,2.9852,3.1717,3.1717,3.1846,3.2166,3.2549,3.2804,3.2848,3.3165,3.3418,3.3418,3.3418,3.3418,3.3418,3.3809,3.4082,3.4082,3.4453,3.4531,3.4101,3.4336,3.4043,3.3027,3.2168,3.1719,3.1719,3.1309,3.1094,3.1094,3.0957,3.0957,3.1094,3.0957,3.0957,3.1074,3.0625,3.041,3.041,3.041,3.041,3.041,3.041,3.041,3.0371,2.9922,2.9766,2.9746,2.9665,2.9626,2.9626,2.9626,2.9648,2.9766,2.9766,2.9863,2.9961,2.9805,2.9863,2.998,2.998,2.998,2.9922,2.9704,2.9355,2.9121,2.9121,2.8906,2.8691,2.8691,2.8457,2.8315,2.8315,2.7559,2.7031,2.7187,2.6602,2.6191,2.6367,2.6504,2.6582,2.6582,2.6836,2.7012,2.7012,2.7012,2.707,2.7207,2.709,2.7012,2.7012,2.7012,2.709,2.7226,2.7226,2.7285,2.7422,2.7285,2.7226,2.7226,2.7363,2.7422,2.7402,2.7285,2.707,2.6847,2.7238,2.714,2.6802,2.7552,2.7663,2.7288,2.7484,2.7655,2.7951,2.9578,3.0396,3.089,3.1377,3.1377,3.1506,3.1846,3.2166,3.2485,3.2848,3.3165,3.3418,3.3418,3.3418,3.3418,3.3418,3.3809,3.4082,3.4082,3.4453,3.4531,3.4121,3.4082,3.3887,3.3457,3.2637,3.2229,3.2168,3.1758,3.1523,3.1523,3.1094,3.1113,3.1504,3.1094,3.1113,3.1504,3.1074,3.0898,3.0898,3.0898,3.0898,3.0898,3.0898,3.0898,3.084,3.0371,3.0195,3.0137,2.9726,2.9646,2.9646,2.9646,2.9863,3.0195,3.0195,3.0527,3.0801,3.0332,3.0527,3.0898,3.0898,3.0898,3.0684,2.9861,2.9626,2.957,2.957,2.9626,2.9626,2.9626,2.9626,2.9626,2.9626,2.8867,2.8164,2.7754,2.7305,2.6875,2.6465,2.6758,2.7031,2.7031,2.7031,2.7031,2.7031,2.7031,2.7207,2.7689,2.7266,2.7031,2.7031,2.7031,2.7226,2.7708,2.7728,2.7924,2.8281,2.7871,2.7728,2.7728,2.8086,2.8301,2.8281,2.7904,2.7728,2.7689,2.7495,2.7399,2.745,2.7794,2.7783,2.7652,2.7603,2.8067,2.8817,2.9852,3.08,3.1757,3.1377,3.1377,3.1442,3.1506,3.1846,3.2166,3.2485,3.2867,3.3102,3.3355,3.3418,3.3418,3.3418,3.3809,3.4199,3.4492,3.4922,3.5254,3.543,3.4863,3.4609,3.4805,3.3672,3.291,3.2617,3.2187,3.1816,3.1523,3.1699,3.1699,3.1523,3.1387,3.1406,3.1504,3.1074,3.0898,3.0898,3.0898,3.0898,3.0898,3.0898,3.0898,3.0879,3.0742,3.0684,3.0664,3.0547,3.0488,3.0488,3.0488,3.0586,3.0684,3.0684,3.0781,3.0859,3.0723,3.0781,3.0898,3.0898,3.0898,3.082,3.0566,3.0254,3.0,3.0,2.9785,2.9626,2.9626,2.9626,2.9626,2.9626,2.9411,2.9043,2.8613,2.8437,2.8203,2.7793,2.7832,2.791,2.791,2.791,2.791,2.791,2.791,2.7969,2.8105,2.7988,2.791,2.791,2.791,2.7969,2.8105,2.8105,2.8164,2.8301,2.8164,2.8105,2.8105,2.8223,2.8301,2.8281,2.8164,2.7949,2.7728,2.8356,2.8341,2.7978,2.8992,2.9256,2.9042,2.8853,2.9171,2.9806,3.0422,3.106,3.1757,3.1377,3.1377,3.1377,3.1377,3.1653,3.1974,3.2358,3.2676,3.3038,3.3355,3.3418,3.3418,3.3418,3.3809,3.4238,3.4668,3.5137,3.5566,3.5996,3.5371,3.5098,3.5391,3.4629,3.3926,3.332,3.2715,3.2285,3.2031,3.2129,3.2129,3.2012,3.1855,3.1855,3.1992,3.1406,3.123,3.1367,3.1035,3.0996,3.1133,3.0957,3.0898,3.0898,3.0898,3.0898,3.0898,3.0898,3.0898,3.0898,3.0898,3.0898,3.0898,3.0898,3.0898,3.0898,3.0898,3.0898,3.0898,3.0898,3.0898,3.0898,3.0898,3.0684,3.0469,3.0469,3.0273,3.0098,3.0098,3.0098,3.0098,3.0098,2.9941,2.9726,2.9473,2.9277,2.9023,2.8594,2.8535,2.8476,2.832,2.8301,2.8359,2.8516,2.8398,2.8359,2.8535,2.8535,2.8535,2.8535,2.8379,2.8359,2.8535,2.8379,2.8379,2.8535,2.8379,2.8301,2.8301,2.8301,2.8301,2.8301,2.8301,2.8164,2.7982,2.8747,2.8866,2.8593,2.9556,2.9947,2.9845,2.9671,3.0057,3.0802,3.1061,3.1577,3.2264,3.1377,3.1377,3.1377,3.1377,3.1653,3.1974,3.2358,3.2696,3.3052,3.3413,3.3516,3.3516,3.3496,3.3828,3.4238,3.4668,3.5156,3.5605,3.5996,3.5664,3.5449,3.5449,3.541,3.5,3.4141,3.332,3.2871,3.2793,3.2441,3.2461,3.2793,3.2402,3.2422,3.2754,3.1934,3.1797,3.217,3.1328,3.1211,3.1484,3.1094,3.0918,3.0898,3.0898,3.0898,3.0898,3.0898,3.0898,3.0898,3.0898,3.0918,3.0937,3.0898,3.0918,3.0937,3.0898,3.0918,3.0937,3.0898,3.0918,3.0937,3.0898,3.0898,3.0898,3.0898,3.0898,3.0898,3.0898,3.0898,3.0898,3.0898,3.0547,3.0234,3.0195,2.9883,2.9473,2.9043,2.8984,2.8828,2.8457,2.8418,2.8555,2.8945,2.8633,2.8574,2.8945,2.8984,2.8984,2.8984,2.8613,2.8574,2.8965,2.8613,2.8594,2.8965,2.8555,2.834,2.8301,2.8301,2.8301,2.8301,2.8301,2.8281,2.8335,2.8867,2.9132,2.9185,2.9784,3.0121,3.0302,3.0182,3.0829,3.1785,3.1697,3.2245,3.3111,3.1377,3.1377,3.1377,3.1377,3.1442,3.1699,3.2294,3.277,3.3302,3.3862,3.4219,3.4297,3.3965,3.4023,3.4238,3.4668,3.543,3.5918,3.6016,3.5937,3.5879,3.5879,3.5566,3.5137,3.457,3.4062,3.3476,3.2793,3.3027,3.3027,3.2793,3.2695,3.2715,3.2773,3.2246,3.207,3.2209,3.1973,3.1738,3.1504,3.1426,3.1191,3.0898,3.0898,3.0898,3.0898,3.0898,3.0898,3.0898,3.0898,3.1113,3.1328,3.0996,3.1113,3.1328,3.0996,3.1133,3.1309,3.0976,3.1133,3.1309,3.0976,3.0898,3.0898,3.0898,3.0898,3.0898,3.0898,3.0898,3.0898,3.0898,3.082,3.0625,3.0254,3.0117,2.9902,2.9492,2.9434,2.9394,2.9297,2.9297,2.9336,2.9414,2.9355,2.9336,2.9414,2.9434,2.9434,2.9434,2.9336,2.9336,2.9434,2.9336,2.9336,2.9434,2.9004,2.8613,2.8301,2.8301,2.8301,2.8301,2.8301,2.8408,2.8621,2.8973,2.9237,2.9501,2.9889,3.0751,3.1796,3.096,3.1805,3.33,3.243,3.2543,3.3111,3.1377,3.1377,3.1377,3.1377,3.1377,3.1635,3.2294,3.2611,3.3001,3.3706,3.3945,3.4004,3.3789,3.3945,3.4238,3.4668,3.5117,3.5391,3.5391,3.5391,3.5391,3.5391,3.5176,3.4863,3.4414,3.418,3.375,3.3086,3.332,3.3301,3.3086,3.3086,3.3086,3.3066,3.2656,3.2578,3.2734,3.2344,3.2148,3.209,3.168,3.1387,3.1172,3.0957,3.1016,3.1172,3.0957,3.0898,3.0898,3.0898,3.1035,3.1191,3.0957,3.1035,3.1172,3.0957,3.1191,3.1465,3.125,3.1504,3.1719,3.1289,3.1191,3.1133,3.0937,3.0898,3.0898,3.0898,3.0898,3.0898,3.0898,3.0898,3.082,3.0566,3.0527,3.0371,2.9922,2.9863,2.9785,2.959,2.9626,2.9626,2.9626,2.9961,3.0117,2.9883,2.9863,2.9863,2.9863,2.9668,2.9668,2.9863,2.9668,2.9668,2.9863,2.9238,2.8809,2.8594,2.8398,2.8301,2.8301,2.8301,2.8408,2.8514,2.892,2.9185,2.9396,2.9837,3.0968,3.2345,3.1806,3.2535,3.3853,3.3251,3.3107,3.3111,3.1377,3.1377,3.1377,3.1377,3.1433,3.1681,3.2324,3.2585,3.2937,3.3558,3.3764,3.3848,3.3769,3.4004,3.4316,3.4668,3.4707,3.4726,3.4805,3.4746,3.4707,3.4707,3.4707,3.4492,3.4082,3.4141,3.3926,3.3418,3.3418,3.3418,3.3418,3.3418,3.3418,3.3398,3.3066,3.3105,3.3379,3.2676,3.25,3.2637,3.1914,3.1543,3.1367,3.1016,3.1152,3.1465,3.1133,3.1055,3.1113,3.1113,3.1152,3.1211,3.1133,3.1152,3.1211,3.1133,3.1406,3.1719,3.1641,3.1894,3.207,3.1621,3.1465,3.1328,3.0976,3.0898,3.0898,3.0898,3.0898,3.0898,3.0898,3.0898,3.0898,3.0898,3.0898,3.0762,3.0371,3.0312,3.0195,2.9844,2.9785,2.9785,2.9785,3.0469,3.0723,3.0351,3.0312,3.0312,3.0312,2.998,2.9961,3.0312,2.998,2.9961,3.0312,2.9587,2.9196,2.9196,2.8741,2.8466,2.8354,2.8354,2.8408,2.8548,2.892,2.9185,2.929,2.9973,3.1164,3.2581,3.2635,3.3265,3.4173,3.4073,3.3621,3.3093,3.1377,3.1377,3.1377,3.1377,3.1689,3.204,3.2432,3.336,3.4165,3.4566,3.5229,3.5527,3.5176,3.4824,3.4629,3.4687,3.4707,3.4863,3.5273,3.4922,3.4707,3.4707,3.4707,3.4492,3.4082,3.4434,3.4219,3.3418,3.3418,3.3418,3.3418,3.3418,3.3418,3.3418,3.3359,3.3379,3.3418,3.3301,3.2871,3.2246,3.2129,3.1641,3.0976,3.0918,3.1152,3.1504,3.1445,3.168,3.1992,3.1992,3.2246,3.248,3.2109,3.2246,3.2461,3.2109,3.2285,3.2539,3.2168,3.2129,3.207,3.1621,3.125,3.0957,3.0898,3.0898,3.0898,3.0898,3.0898,3.0898,3.0898,3.0898,3.0898,3.0898,3.0898,3.0859,3.0801,3.0801,3.0781,3.0723,3.0703,3.0703,3.0703,3.082,3.0859,3.0801,3.0801,3.0801,3.0801,3.0742,3.0742,3.0801,3.0742,3.0742,3.0801,3.0579,3.0455,3.0435,2.9899,2.9246,2.8621,2.8621,2.894,2.9396,2.9185,2.9396,2.9942,3.0991,3.205,3.3162,3.3598,3.4381,3.5232,3.4731,3.3947,3.3187,3.1377,3.1377,3.1451,3.1689,3.1873,3.2132,3.246,3.3142,3.3642,3.3747,3.4508,3.4901,3.4727,3.4498,3.4355,3.4355,3.4121,3.4062,3.4277,3.4101,3.3984,3.3984,3.3984,3.3906,3.3711,3.3887,3.3809,3.3418,3.3672,3.3652,3.3418,3.3418,3.3418,3.3418,3.3418,3.3418,3.3418,3.3418,3.3203,3.2851,3.2617,3.2285,3.1934,3.1699,3.1875,3.2226,3.2226,3.2207,3.2229,3.2229,3.2285,3.2422,3.2287,3.2285,3.2402,3.2226,3.2461,3.2754,3.2559,3.2695,3.2715,3.2051,3.1738,3.1484,3.0996,3.1074,3.125,3.125,3.125,3.1309,3.1562,3.1406,3.125,3.125,3.1055,3.0898,3.0898,3.0898,3.0898,3.0898,3.0898,3.0898,3.0898,3.0898,3.0898,3.0898,3.0898,3.0898,3.0898,3.0898,3.0898,3.0898,3.0898,3.0898,3.0898,3.0736,3.069,3.069,3.0218,2.9749,2.9299,2.904,2.9079,2.9343,3.0005,3.0422,3.0785,3.1993,3.3151,3.4117,3.4366,3.4889,3.5433,3.4881,3.4424,3.4022]}]]